<?xml version="1.0" encoding="UTF-8" standalone="no" ?>
<gpx xmlns="http://www.topografix.com/GPX/1/1" xmlns:xsi="http://www.w3.org/2001/XMLSchema-instance" xsi:schemaLocation="http://www.topografix.com/GPX/1/1 http://www.topografix.com/GPX/1/1/gpx.xsd" version="1.1" creator="VisuGPX - https://www.visugpx.com">
  <metadata>
    <name>sortie Puylévèque</name>
    <desc><![CDATA[départ du domaine Pineraie]]></desc>
  </metadata>
  <trk>
    <name><![CDATA[05-DEC-15 14:12:12]]></name>
    <trkseg>
      <trkpt lat="44.49032" lon="1.12043">
        <ele>109.25</ele>
        <time>2015-12-05T08:28:14Z</time>
      </trkpt>
      <trkpt lat="44.49033" lon="1.12043">
        <ele>109.73</ele>
        <time>2015-12-05T08:28:43Z</time>
      </trkpt>
      <trkpt lat="44.49032" lon="1.12038">
        <ele>109.73</ele>
        <time>2015-12-05T08:28:47Z</time>
      </trkpt>
      <trkpt lat="44.49024" lon="1.12015">
        <ele>110.69</ele>
        <time>2015-12-05T08:29:02Z</time>
      </trkpt>
      <trkpt lat="44.48994" lon="1.12003">
        <ele>111.65</ele>
        <time>2015-12-05T08:29:17Z</time>
      </trkpt>
      <trkpt lat="44.48978" lon="1.12002">
        <ele>113.57</ele>
        <time>2015-12-05T08:29:30Z</time>
      </trkpt>
      <trkpt lat="44.48978" lon="1.11994">
        <ele>114.05</ele>
        <time>2015-12-05T08:29:37Z</time>
      </trkpt>
      <trkpt lat="44.48977" lon="1.11991">
        <ele>114.05</ele>
        <time>2015-12-05T08:29:40Z</time>
      </trkpt>
      <trkpt lat="44.48976" lon="1.11955">
        <ele>114.05</ele>
        <time>2015-12-05T08:29:53Z</time>
      </trkpt>
      <trkpt lat="44.48975" lon="1.11909">
        <ele>115.01</ele>
        <time>2015-12-05T08:30:08Z</time>
      </trkpt>
      <trkpt lat="44.48972" lon="1.1187">
        <ele>116.46</ele>
        <time>2015-12-05T08:30:21Z</time>
      </trkpt>
      <trkpt lat="44.48972" lon="1.11849">
        <ele>117.9</ele>
        <time>2015-12-05T08:30:29Z</time>
      </trkpt>
      <trkpt lat="44.4897" lon="1.11848">
        <ele>117.9</ele>
        <time>2015-12-05T08:30:30Z</time>
      </trkpt>
      <trkpt lat="44.48965" lon="1.11848">
        <ele>117.9</ele>
        <time>2015-12-05T08:30:33Z</time>
      </trkpt>
      <trkpt lat="44.48964" lon="1.11851">
        <ele>118.38</ele>
        <time>2015-12-05T08:30:34Z</time>
      </trkpt>
      <trkpt lat="44.48963" lon="1.11853">
        <ele>118.38</ele>
        <time>2015-12-05T08:30:35Z</time>
      </trkpt>
      <trkpt lat="44.48962" lon="1.11855">
        <ele>118.38</ele>
        <time>2015-12-05T08:30:36Z</time>
      </trkpt>
      <trkpt lat="44.48962" lon="1.11858">
        <ele>118.38</ele>
        <time>2015-12-05T08:30:37Z</time>
      </trkpt>
      <trkpt lat="44.48961" lon="1.11861">
        <ele>118.38</ele>
        <time>2015-12-05T08:30:38Z</time>
      </trkpt>
      <trkpt lat="44.48959" lon="1.11863">
        <ele>118.38</ele>
        <time>2015-12-05T08:30:39Z</time>
      </trkpt>
      <trkpt lat="44.48958" lon="1.11865">
        <ele>118.38</ele>
        <time>2015-12-05T08:30:40Z</time>
      </trkpt>
      <trkpt lat="44.48942" lon="1.11857">
        <ele>119.82</ele>
        <time>2015-12-05T08:30:50Z</time>
      </trkpt>
      <trkpt lat="44.48926" lon="1.11844">
        <ele>123.67</ele>
        <time>2015-12-05T08:31:01Z</time>
      </trkpt>
      <trkpt lat="44.48911" lon="1.11846">
        <ele>126.55</ele>
        <time>2015-12-05T08:31:10Z</time>
      </trkpt>
      <trkpt lat="44.48895" lon="1.11877">
        <ele>127.51</ele>
        <time>2015-12-05T08:31:24Z</time>
      </trkpt>
      <trkpt lat="44.48882" lon="1.11914">
        <ele>127.03</ele>
        <time>2015-12-05T08:31:37Z</time>
      </trkpt>
      <trkpt lat="44.48858" lon="1.11956">
        <ele>127.51</ele>
        <time>2015-12-05T08:31:53Z</time>
      </trkpt>
      <trkpt lat="44.48834" lon="1.1198">
        <ele>130.4</ele>
        <time>2015-12-05T08:32:08Z</time>
      </trkpt>
      <trkpt lat="44.48814" lon="1.11997">
        <ele>132.32</ele>
        <time>2015-12-05T08:32:19Z</time>
      </trkpt>
      <trkpt lat="44.48793" lon="1.12021">
        <ele>134.24</ele>
        <time>2015-12-05T08:32:32Z</time>
      </trkpt>
      <trkpt lat="44.48779" lon="1.12042">
        <ele>134.24</ele>
        <time>2015-12-05T08:32:45Z</time>
      </trkpt>
      <trkpt lat="44.4877" lon="1.1204">
        <ele>134.72</ele>
        <time>2015-12-05T08:32:50Z</time>
      </trkpt>
      <trkpt lat="44.48757" lon="1.12025">
        <ele>140.01</ele>
        <time>2015-12-05T08:33:01Z</time>
      </trkpt>
      <trkpt lat="44.48746" lon="1.12023">
        <ele>142.89</ele>
        <time>2015-12-05T08:33:10Z</time>
      </trkpt>
      <trkpt lat="44.48733" lon="1.12026">
        <ele>142.89</ele>
        <time>2015-12-05T08:33:21Z</time>
      </trkpt>
      <trkpt lat="44.48717" lon="1.12022">
        <ele>145.78</ele>
        <time>2015-12-05T08:33:33Z</time>
      </trkpt>
      <trkpt lat="44.4871" lon="1.12018">
        <ele>145.78</ele>
        <time>2015-12-05T08:33:38Z</time>
      </trkpt>
      <trkpt lat="44.487" lon="1.12021">
        <ele>145.3</ele>
        <time>2015-12-05T08:33:43Z</time>
      </trkpt>
      <trkpt lat="44.48694" lon="1.12024">
        <ele>143.85</ele>
        <time>2015-12-05T08:33:48Z</time>
      </trkpt>
      <trkpt lat="44.48693" lon="1.12018">
        <ele>143.85</ele>
        <time>2015-12-05T08:33:53Z</time>
      </trkpt>
      <trkpt lat="44.48712" lon="1.11962">
        <ele>143.85</ele>
        <time>2015-12-05T08:34:07Z</time>
      </trkpt>
      <trkpt lat="44.4873" lon="1.1189">
        <ele>142.41</ele>
        <time>2015-12-05T08:34:22Z</time>
      </trkpt>
      <trkpt lat="44.48733" lon="1.11879">
        <ele>142.41</ele>
        <time>2015-12-05T08:34:24Z</time>
      </trkpt>
      <trkpt lat="44.48741" lon="1.11838">
        <ele>140.97</ele>
        <time>2015-12-05T08:34:31Z</time>
      </trkpt>
      <trkpt lat="44.48749" lon="1.11816">
        <ele>139.53</ele>
        <time>2015-12-05T08:34:35Z</time>
      </trkpt>
      <trkpt lat="44.48769" lon="1.11768">
        <ele>135.68</ele>
        <time>2015-12-05T08:34:43Z</time>
      </trkpt>
      <trkpt lat="44.48743" lon="1.11753">
        <ele>129.92</ele>
        <time>2015-12-05T08:34:52Z</time>
      </trkpt>
      <trkpt lat="44.48717" lon="1.11769">
        <ele>127.03</ele>
        <time>2015-12-05T08:34:59Z</time>
      </trkpt>
      <trkpt lat="44.487" lon="1.11756">
        <ele>125.59</ele>
        <time>2015-12-05T08:35:03Z</time>
      </trkpt>
      <trkpt lat="44.48654" lon="1.11719">
        <ele>125.59</ele>
        <time>2015-12-05T08:35:16Z</time>
      </trkpt>
      <trkpt lat="44.48658" lon="1.11692">
        <ele>125.11</ele>
        <time>2015-12-05T08:35:21Z</time>
      </trkpt>
      <trkpt lat="44.48675" lon="1.11655">
        <ele>123.67</ele>
        <time>2015-12-05T08:35:27Z</time>
      </trkpt>
      <trkpt lat="44.4867" lon="1.11634">
        <ele>123.19</ele>
        <time>2015-12-05T08:35:32Z</time>
      </trkpt>
      <trkpt lat="44.48657" lon="1.11623">
        <ele>123.19</ele>
        <time>2015-12-05T08:35:36Z</time>
      </trkpt>
      <trkpt lat="44.48618" lon="1.11589">
        <ele>120.78</ele>
        <time>2015-12-05T08:35:47Z</time>
      </trkpt>
      <trkpt lat="44.4857" lon="1.11549">
        <ele>115.98</ele>
        <time>2015-12-05T08:36:00Z</time>
      </trkpt>
      <trkpt lat="44.48549" lon="1.11529">
        <ele>114.05</ele>
        <time>2015-12-05T08:36:06Z</time>
      </trkpt>
      <trkpt lat="44.48548" lon="1.11526">
        <ele>114.05</ele>
        <time>2015-12-05T08:36:07Z</time>
      </trkpt>
      <trkpt lat="44.48549" lon="1.11522">
        <ele>114.05</ele>
        <time>2015-12-05T08:36:08Z</time>
      </trkpt>
      <trkpt lat="44.4855" lon="1.11519">
        <ele>113.57</ele>
        <time>2015-12-05T08:36:09Z</time>
      </trkpt>
      <trkpt lat="44.48552" lon="1.11516">
        <ele>113.57</ele>
        <time>2015-12-05T08:36:10Z</time>
      </trkpt>
      <trkpt lat="44.48566" lon="1.11494">
        <ele>114.05</ele>
        <time>2015-12-05T08:36:16Z</time>
      </trkpt>
      <trkpt lat="44.48566" lon="1.11489">
        <ele>114.05</ele>
        <time>2015-12-05T08:36:17Z</time>
      </trkpt>
      <trkpt lat="44.48565" lon="1.11484">
        <ele>114.05</ele>
        <time>2015-12-05T08:36:18Z</time>
      </trkpt>
      <trkpt lat="44.48548" lon="1.11459">
        <ele>113.57</ele>
        <time>2015-12-05T08:36:23Z</time>
      </trkpt>
      <trkpt lat="44.48526" lon="1.1143">
        <ele>112.13</ele>
        <time>2015-12-05T08:36:32Z</time>
      </trkpt>
      <trkpt lat="44.48504" lon="1.11422">
        <ele>108.77</ele>
        <time>2015-12-05T08:36:38Z</time>
      </trkpt>
      <trkpt lat="44.48431" lon="1.11417">
        <ele>107.32</ele>
        <time>2015-12-05T08:36:54Z</time>
      </trkpt>
      <trkpt lat="44.48391" lon="1.11407">
        <ele>109.73</ele>
        <time>2015-12-05T08:37:08Z</time>
      </trkpt>
      <trkpt lat="44.48357" lon="1.11399">
        <ele>111.65</ele>
        <time>2015-12-05T08:37:21Z</time>
      </trkpt>
      <trkpt lat="44.48333" lon="1.11395">
        <ele>113.57</ele>
        <time>2015-12-05T08:37:33Z</time>
      </trkpt>
      <trkpt lat="44.48305" lon="1.1139">
        <ele>116.94</ele>
        <time>2015-12-05T08:37:45Z</time>
      </trkpt>
      <trkpt lat="44.48276" lon="1.11386">
        <ele>121.26</ele>
        <time>2015-12-05T08:37:59Z</time>
      </trkpt>
      <trkpt lat="44.48264" lon="1.11386">
        <ele>121.74</ele>
        <time>2015-12-05T08:38:06Z</time>
      </trkpt>
      <trkpt lat="44.48262" lon="1.11384">
        <ele>121.74</ele>
        <time>2015-12-05T08:38:08Z</time>
      </trkpt>
      <trkpt lat="44.48262" lon="1.11383">
        <ele>121.74</ele>
        <time>2015-12-05T08:38:09Z</time>
      </trkpt>
      <trkpt lat="44.48273" lon="1.11364">
        <ele>118.86</ele>
        <time>2015-12-05T08:38:15Z</time>
      </trkpt>
      <trkpt lat="44.48323" lon="1.11264">
        <ele>112.61</ele>
        <time>2015-12-05T08:38:29Z</time>
      </trkpt>
      <trkpt lat="44.48399" lon="1.11125">
        <ele>104.92</ele>
        <time>2015-12-05T08:38:46Z</time>
      </trkpt>
      <trkpt lat="44.4842" lon="1.11085">
        <ele>103.48</ele>
        <time>2015-12-05T08:38:55Z</time>
      </trkpt>
      <trkpt lat="44.48421" lon="1.11079">
        <ele>102.52</ele>
        <time>2015-12-05T08:39:06Z</time>
      </trkpt>
      <trkpt lat="44.48422" lon="1.11076">
        <ele>102.52</ele>
        <time>2015-12-05T08:39:07Z</time>
      </trkpt>
      <trkpt lat="44.48422" lon="1.11072">
        <ele>102.52</ele>
        <time>2015-12-05T08:39:08Z</time>
      </trkpt>
      <trkpt lat="44.48421" lon="1.11067">
        <ele>102.52</ele>
        <time>2015-12-05T08:39:09Z</time>
      </trkpt>
      <trkpt lat="44.48418" lon="1.11062">
        <ele>102.52</ele>
        <time>2015-12-05T08:39:10Z</time>
      </trkpt>
      <trkpt lat="44.48414" lon="1.11059">
        <ele>102.52</ele>
        <time>2015-12-05T08:39:11Z</time>
      </trkpt>
      <trkpt lat="44.48411" lon="1.11056">
        <ele>103</ele>
        <time>2015-12-05T08:39:12Z</time>
      </trkpt>
      <trkpt lat="44.48399" lon="1.11041">
        <ele>102.52</ele>
        <time>2015-12-05T08:39:16Z</time>
      </trkpt>
      <trkpt lat="44.48383" lon="1.11022">
        <ele>102.52</ele>
        <time>2015-12-05T08:39:21Z</time>
      </trkpt>
      <trkpt lat="44.4838" lon="1.11018">
        <ele>102.52</ele>
        <time>2015-12-05T08:39:22Z</time>
      </trkpt>
      <trkpt lat="44.48377" lon="1.11014">
        <ele>102.52</ele>
        <time>2015-12-05T08:39:23Z</time>
      </trkpt>
      <trkpt lat="44.48315" lon="1.10957">
        <ele>101.56</ele>
        <time>2015-12-05T08:39:39Z</time>
      </trkpt>
      <trkpt lat="44.48245" lon="1.1091">
        <ele>101.08</ele>
        <time>2015-12-05T08:39:54Z</time>
      </trkpt>
      <trkpt lat="44.48165" lon="1.10864">
        <ele>99.63</ele>
        <time>2015-12-05T08:40:10Z</time>
      </trkpt>
      <trkpt lat="44.48159" lon="1.10862">
        <ele>99.15</ele>
        <time>2015-12-05T08:40:11Z</time>
      </trkpt>
      <trkpt lat="44.48081" lon="1.10842">
        <ele>97.71</ele>
        <time>2015-12-05T08:40:26Z</time>
      </trkpt>
      <trkpt lat="44.48005" lon="1.10807">
        <ele>97.71</ele>
        <time>2015-12-05T08:40:41Z</time>
      </trkpt>
      <trkpt lat="44.47997" lon="1.10797">
        <ele>98.19</ele>
        <time>2015-12-05T08:40:43Z</time>
      </trkpt>
      <trkpt lat="44.47994" lon="1.10792">
        <ele>98.19</ele>
        <time>2015-12-05T08:40:44Z</time>
      </trkpt>
      <trkpt lat="44.47957" lon="1.10728">
        <ele>99.15</ele>
        <time>2015-12-05T08:40:55Z</time>
      </trkpt>
      <trkpt lat="44.47945" lon="1.107">
        <ele>99.63</ele>
        <time>2015-12-05T08:41:00Z</time>
      </trkpt>
      <trkpt lat="44.47944" lon="1.10694">
        <ele>99.63</ele>
        <time>2015-12-05T08:41:01Z</time>
      </trkpt>
      <trkpt lat="44.47942" lon="1.10688">
        <ele>100.11</ele>
        <time>2015-12-05T08:41:02Z</time>
      </trkpt>
      <trkpt lat="44.47939" lon="1.10681">
        <ele>100.11</ele>
        <time>2015-12-05T08:41:03Z</time>
      </trkpt>
      <trkpt lat="44.47937" lon="1.10675">
        <ele>100.11</ele>
        <time>2015-12-05T08:41:04Z</time>
      </trkpt>
      <trkpt lat="44.47908" lon="1.10581">
        <ele>101.08</ele>
        <time>2015-12-05T08:41:18Z</time>
      </trkpt>
      <trkpt lat="44.47894" lon="1.10488">
        <ele>102.52</ele>
        <time>2015-12-05T08:41:33Z</time>
      </trkpt>
      <trkpt lat="44.47887" lon="1.10389">
        <ele>103.48</ele>
        <time>2015-12-05T08:41:49Z</time>
      </trkpt>
      <trkpt lat="44.47886" lon="1.10287">
        <ele>104.44</ele>
        <time>2015-12-05T08:42:05Z</time>
      </trkpt>
      <trkpt lat="44.47887" lon="1.10213">
        <ele>105.88</ele>
        <time>2015-12-05T08:42:18Z</time>
      </trkpt>
      <trkpt lat="44.47887" lon="1.10208">
        <ele>105.88</ele>
        <time>2015-12-05T08:42:19Z</time>
      </trkpt>
      <trkpt lat="44.47892" lon="1.10127">
        <ele>107.32</ele>
        <time>2015-12-05T08:42:33Z</time>
      </trkpt>
      <trkpt lat="44.479" lon="1.10028">
        <ele>108.77</ele>
        <time>2015-12-05T08:42:50Z</time>
      </trkpt>
      <trkpt lat="44.47903" lon="1.09981">
        <ele>108.29</ele>
        <time>2015-12-05T08:42:58Z</time>
      </trkpt>
      <trkpt lat="44.47906" lon="1.09951">
        <ele>109.25</ele>
        <time>2015-12-05T08:43:03Z</time>
      </trkpt>
      <trkpt lat="44.47908" lon="1.09903">
        <ele>110.21</ele>
        <time>2015-12-05T08:43:11Z</time>
      </trkpt>
      <trkpt lat="44.47909" lon="1.09848">
        <ele>111.17</ele>
        <time>2015-12-05T08:43:20Z</time>
      </trkpt>
      <trkpt lat="44.47909" lon="1.09842">
        <ele>110.69</ele>
        <time>2015-12-05T08:43:21Z</time>
      </trkpt>
      <trkpt lat="44.4791" lon="1.09805">
        <ele>111.17</ele>
        <time>2015-12-05T08:43:27Z</time>
      </trkpt>
      <trkpt lat="44.4791" lon="1.09799">
        <ele>111.17</ele>
        <time>2015-12-05T08:43:28Z</time>
      </trkpt>
      <trkpt lat="44.4791" lon="1.09693">
        <ele>111.17</ele>
        <time>2015-12-05T08:43:45Z</time>
      </trkpt>
      <trkpt lat="44.47908" lon="1.09675">
        <ele>110.69</ele>
        <time>2015-12-05T08:43:48Z</time>
      </trkpt>
      <trkpt lat="44.479" lon="1.09583">
        <ele>111.17</ele>
        <time>2015-12-05T08:44:02Z</time>
      </trkpt>
      <trkpt lat="44.47898" lon="1.09549">
        <ele>111.17</ele>
        <time>2015-12-05T08:44:07Z</time>
      </trkpt>
      <trkpt lat="44.47897" lon="1.09503">
        <ele>111.17</ele>
        <time>2015-12-05T08:44:14Z</time>
      </trkpt>
      <trkpt lat="44.47899" lon="1.0947">
        <ele>111.65</ele>
        <time>2015-12-05T08:44:19Z</time>
      </trkpt>
      <trkpt lat="44.47897" lon="1.0943">
        <ele>112.13</ele>
        <time>2015-12-05T08:44:25Z</time>
      </trkpt>
      <trkpt lat="44.47896" lon="1.09356">
        <ele>113.09</ele>
        <time>2015-12-05T08:44:38Z</time>
      </trkpt>
      <trkpt lat="44.4789" lon="1.09286">
        <ele>115.5</ele>
        <time>2015-12-05T08:44:53Z</time>
      </trkpt>
      <trkpt lat="44.47873" lon="1.09208">
        <ele>117.9</ele>
        <time>2015-12-05T08:45:08Z</time>
      </trkpt>
      <trkpt lat="44.47861" lon="1.09161">
        <ele>118.86</ele>
        <time>2015-12-05T08:45:17Z</time>
      </trkpt>
      <trkpt lat="44.47842" lon="1.09087">
        <ele>121.74</ele>
        <time>2015-12-05T08:45:32Z</time>
      </trkpt>
      <trkpt lat="44.47836" lon="1.09065">
        <ele>122.22</ele>
        <time>2015-12-05T08:45:38Z</time>
      </trkpt>
      <trkpt lat="44.47835" lon="1.09063">
        <ele>122.22</ele>
        <time>2015-12-05T08:45:39Z</time>
      </trkpt>
      <trkpt lat="44.47835" lon="1.0906">
        <ele>122.71</ele>
        <time>2015-12-05T08:45:40Z</time>
      </trkpt>
      <trkpt lat="44.47834" lon="1.09058">
        <ele>122.71</ele>
        <time>2015-12-05T08:45:41Z</time>
      </trkpt>
      <trkpt lat="44.47833" lon="1.09056">
        <ele>122.71</ele>
        <time>2015-12-05T08:45:42Z</time>
      </trkpt>
      <trkpt lat="44.47831" lon="1.09049">
        <ele>123.19</ele>
        <time>2015-12-05T08:45:46Z</time>
      </trkpt>
      <trkpt lat="44.47832" lon="1.09048">
        <ele>123.19</ele>
        <time>2015-12-05T08:45:47Z</time>
      </trkpt>
      <trkpt lat="44.47833" lon="1.09046">
        <ele>123.19</ele>
        <time>2015-12-05T08:45:48Z</time>
      </trkpt>
      <trkpt lat="44.47835" lon="1.09045">
        <ele>123.19</ele>
        <time>2015-12-05T08:45:49Z</time>
      </trkpt>
      <trkpt lat="44.47855" lon="1.09017">
        <ele>126.55</ele>
        <time>2015-12-05T08:46:01Z</time>
      </trkpt>
      <trkpt lat="44.47857" lon="1.09013">
        <ele>126.55</ele>
        <time>2015-12-05T08:46:03Z</time>
      </trkpt>
      <trkpt lat="44.4786" lon="1.09004">
        <ele>127.51</ele>
        <time>2015-12-05T08:46:07Z</time>
      </trkpt>
      <trkpt lat="44.47865" lon="1.08993">
        <ele>128.47</ele>
        <time>2015-12-05T08:46:12Z</time>
      </trkpt>
      <trkpt lat="44.47881" lon="1.08958">
        <ele>130.4</ele>
        <time>2015-12-05T08:46:26Z</time>
      </trkpt>
      <trkpt lat="44.47898" lon="1.08916">
        <ele>131.36</ele>
        <time>2015-12-05T08:46:40Z</time>
      </trkpt>
      <trkpt lat="44.47917" lon="1.0888">
        <ele>129.43</ele>
        <time>2015-12-05T08:46:51Z</time>
      </trkpt>
      <trkpt lat="44.47944" lon="1.08828">
        <ele>131.84</ele>
        <time>2015-12-05T08:47:04Z</time>
      </trkpt>
      <trkpt lat="44.4796" lon="1.08803">
        <ele>132.32</ele>
        <time>2015-12-05T08:47:15Z</time>
      </trkpt>
      <trkpt lat="44.47979" lon="1.08767">
        <ele>132.8</ele>
        <time>2015-12-05T08:47:25Z</time>
      </trkpt>
      <trkpt lat="44.48014" lon="1.08708">
        <ele>133.28</ele>
        <time>2015-12-05T08:47:40Z</time>
      </trkpt>
      <trkpt lat="44.48047" lon="1.08651">
        <ele>133.28</ele>
        <time>2015-12-05T08:47:53Z</time>
      </trkpt>
      <trkpt lat="44.48084" lon="1.08588">
        <ele>135.2</ele>
        <time>2015-12-05T08:48:07Z</time>
      </trkpt>
      <trkpt lat="44.4812" lon="1.08524">
        <ele>135.68</ele>
        <time>2015-12-05T08:48:21Z</time>
      </trkpt>
      <trkpt lat="44.48154" lon="1.08463">
        <ele>136.16</ele>
        <time>2015-12-05T08:48:34Z</time>
      </trkpt>
      <trkpt lat="44.48191" lon="1.08401">
        <ele>136.16</ele>
        <time>2015-12-05T08:48:48Z</time>
      </trkpt>
      <trkpt lat="44.48214" lon="1.08348">
        <ele>136.64</ele>
        <time>2015-12-05T08:49:01Z</time>
      </trkpt>
      <trkpt lat="44.48223" lon="1.08298">
        <ele>137.61</ele>
        <time>2015-12-05T08:49:14Z</time>
      </trkpt>
      <trkpt lat="44.48212" lon="1.08268">
        <ele>139.53</ele>
        <time>2015-12-05T08:49:26Z</time>
      </trkpt>
      <trkpt lat="44.48183" lon="1.08244">
        <ele>140.97</ele>
        <time>2015-12-05T08:49:37Z</time>
      </trkpt>
      <trkpt lat="44.48163" lon="1.08224">
        <ele>140.97</ele>
        <time>2015-12-05T08:49:44Z</time>
      </trkpt>
      <trkpt lat="44.48163" lon="1.08204">
        <ele>140.49</ele>
        <time>2015-12-05T08:49:51Z</time>
      </trkpt>
      <trkpt lat="44.48171" lon="1.08193">
        <ele>141.45</ele>
        <time>2015-12-05T08:50:00Z</time>
      </trkpt>
      <trkpt lat="44.48187" lon="1.08175">
        <ele>142.89</ele>
        <time>2015-12-05T08:50:14Z</time>
      </trkpt>
      <trkpt lat="44.48188" lon="1.08174">
        <ele>142.89</ele>
        <time>2015-12-05T08:50:15Z</time>
      </trkpt>
      <trkpt lat="44.48203" lon="1.08158">
        <ele>144.82</ele>
        <time>2015-12-05T08:50:28Z</time>
      </trkpt>
      <trkpt lat="44.48216" lon="1.08143">
        <ele>146.26</ele>
        <time>2015-12-05T08:50:37Z</time>
      </trkpt>
      <trkpt lat="44.48216" lon="1.08125">
        <ele>148.18</ele>
        <time>2015-12-05T08:50:43Z</time>
      </trkpt>
      <trkpt lat="44.48207" lon="1.08103">
        <ele>149.14</ele>
        <time>2015-12-05T08:50:52Z</time>
      </trkpt>
      <trkpt lat="44.48196" lon="1.08086">
        <ele>149.14</ele>
        <time>2015-12-05T08:51:02Z</time>
      </trkpt>
      <trkpt lat="44.48191" lon="1.08084">
        <ele>150.1</ele>
        <time>2015-12-05T08:51:13Z</time>
      </trkpt>
      <trkpt lat="44.4819" lon="1.08084">
        <ele>148.18</ele>
        <time>2015-12-05T08:51:44Z</time>
      </trkpt>
      <trkpt lat="44.4819" lon="1.08086">
        <ele>148.18</ele>
        <time>2015-12-05T08:52:09Z</time>
      </trkpt>
      <trkpt lat="44.48191" lon="1.08087">
        <ele>147.7</ele>
        <time>2015-12-05T08:52:30Z</time>
      </trkpt>
      <trkpt lat="44.48192" lon="1.08087">
        <ele>147.7</ele>
        <time>2015-12-05T08:52:47Z</time>
      </trkpt>
      <trkpt lat="44.48187" lon="1.0809">
        <ele>148.66</ele>
        <time>2015-12-05T08:52:59Z</time>
      </trkpt>
      <trkpt lat="44.48158" lon="1.08098">
        <ele>155.39</ele>
        <time>2015-12-05T08:53:14Z</time>
      </trkpt>
      <trkpt lat="44.48131" lon="1.08103">
        <ele>160.2</ele>
        <time>2015-12-05T08:53:26Z</time>
      </trkpt>
      <trkpt lat="44.481" lon="1.08112">
        <ele>165</ele>
        <time>2015-12-05T08:53:40Z</time>
      </trkpt>
      <trkpt lat="44.48069" lon="1.08116">
        <ele>168.85</ele>
        <time>2015-12-05T08:53:52Z</time>
      </trkpt>
      <trkpt lat="44.48029" lon="1.08125">
        <ele>173.17</ele>
        <time>2015-12-05T08:54:08Z</time>
      </trkpt>
      <trkpt lat="44.47997" lon="1.08135">
        <ele>179.42</ele>
        <time>2015-12-05T08:54:23Z</time>
      </trkpt>
      <trkpt lat="44.47983" lon="1.0814">
        <ele>181.35</ele>
        <time>2015-12-05T08:54:32Z</time>
      </trkpt>
      <trkpt lat="44.47972" lon="1.08144">
        <ele>181.83</ele>
        <time>2015-12-05T08:54:39Z</time>
      </trkpt>
      <trkpt lat="44.47963" lon="1.08147">
        <ele>181.35</ele>
        <time>2015-12-05T08:54:45Z</time>
      </trkpt>
      <trkpt lat="44.47957" lon="1.08151">
        <ele>180.87</ele>
        <time>2015-12-05T08:54:49Z</time>
      </trkpt>
      <trkpt lat="44.47951" lon="1.08155">
        <ele>180.87</ele>
        <time>2015-12-05T08:54:53Z</time>
      </trkpt>
      <trkpt lat="44.47936" lon="1.08164">
        <ele>182.31</ele>
        <time>2015-12-05T08:55:05Z</time>
      </trkpt>
      <trkpt lat="44.47934" lon="1.08165">
        <ele>183.27</ele>
        <time>2015-12-05T08:55:07Z</time>
      </trkpt>
      <trkpt lat="44.47913" lon="1.08172">
        <ele>186.15</ele>
        <time>2015-12-05T08:55:23Z</time>
      </trkpt>
      <trkpt lat="44.47892" lon="1.08179">
        <ele>190</ele>
        <time>2015-12-05T08:55:39Z</time>
      </trkpt>
      <trkpt lat="44.47874" lon="1.08185">
        <ele>193.36</ele>
        <time>2015-12-05T08:55:55Z</time>
      </trkpt>
      <trkpt lat="44.47862" lon="1.08187">
        <ele>195.28</ele>
        <time>2015-12-05T08:56:09Z</time>
      </trkpt>
      <trkpt lat="44.4786" lon="1.08188">
        <ele>195.28</ele>
        <time>2015-12-05T08:56:23Z</time>
      </trkpt>
      <trkpt lat="44.47858" lon="1.08188">
        <ele>193.84</ele>
        <time>2015-12-05T08:56:48Z</time>
      </trkpt>
      <trkpt lat="44.47855" lon="1.08187">
        <ele>194.8</ele>
        <time>2015-12-05T08:57:11Z</time>
      </trkpt>
      <trkpt lat="44.47849" lon="1.08186">
        <ele>197.69</ele>
        <time>2015-12-05T08:57:28Z</time>
      </trkpt>
      <trkpt lat="44.47848" lon="1.08187">
        <ele>197.69</ele>
        <time>2015-12-05T08:57:34Z</time>
      </trkpt>
      <trkpt lat="44.47845" lon="1.08202">
        <ele>199.61</ele>
        <time>2015-12-05T08:57:49Z</time>
      </trkpt>
      <trkpt lat="44.47846" lon="1.08203">
        <ele>201.05</ele>
        <time>2015-12-05T08:58:18Z</time>
      </trkpt>
      <trkpt lat="44.47845" lon="1.08202">
        <ele>200.09</ele>
        <time>2015-12-05T08:58:26Z</time>
      </trkpt>
      <trkpt lat="44.47848" lon="1.08176">
        <ele>198.65</ele>
        <time>2015-12-05T08:58:39Z</time>
      </trkpt>
      <trkpt lat="44.47844" lon="1.08172">
        <ele>197.69</ele>
        <time>2015-12-05T08:58:50Z</time>
      </trkpt>
      <trkpt lat="44.47837" lon="1.08172">
        <ele>201.53</ele>
        <time>2015-12-05T08:59:03Z</time>
      </trkpt>
      <trkpt lat="44.47827" lon="1.08175">
        <ele>205.38</ele>
        <time>2015-12-05T08:59:18Z</time>
      </trkpt>
      <trkpt lat="44.47813" lon="1.08177">
        <ele>207.78</ele>
        <time>2015-12-05T08:59:34Z</time>
      </trkpt>
      <trkpt lat="44.47804" lon="1.08179">
        <ele>207.3</ele>
        <time>2015-12-05T08:59:48Z</time>
      </trkpt>
      <trkpt lat="44.47804" lon="1.08179">
        <ele>205.38</ele>
        <time>2015-12-05T09:00:27Z</time>
      </trkpt>
      <trkpt lat="44.47802" lon="1.08179">
        <ele>204.9</ele>
        <time>2015-12-05T09:01:04Z</time>
      </trkpt>
      <trkpt lat="44.47803" lon="1.08179">
        <ele>205.38</ele>
        <time>2015-12-05T09:01:32Z</time>
      </trkpt>
      <trkpt lat="44.47802" lon="1.0818">
        <ele>205.38</ele>
        <time>2015-12-05T09:01:34Z</time>
      </trkpt>
      <trkpt lat="44.47793" lon="1.08182">
        <ele>206.82</ele>
        <time>2015-12-05T09:01:41Z</time>
      </trkpt>
      <trkpt lat="44.47773" lon="1.08192">
        <ele>210.67</ele>
        <time>2015-12-05T09:01:59Z</time>
      </trkpt>
      <trkpt lat="44.4777" lon="1.08193">
        <ele>211.63</ele>
        <time>2015-12-05T09:02:02Z</time>
      </trkpt>
      <trkpt lat="44.47767" lon="1.08196">
        <ele>212.11</ele>
        <time>2015-12-05T09:02:07Z</time>
      </trkpt>
      <trkpt lat="44.47765" lon="1.08205">
        <ele>212.59</ele>
        <time>2015-12-05T09:02:15Z</time>
      </trkpt>
      <trkpt lat="44.47761" lon="1.08209">
        <ele>212.59</ele>
        <time>2015-12-05T09:02:19Z</time>
      </trkpt>
      <trkpt lat="44.47745" lon="1.08219">
        <ele>214.99</ele>
        <time>2015-12-05T09:02:35Z</time>
      </trkpt>
      <trkpt lat="44.47747" lon="1.08221">
        <ele>215.47</ele>
        <time>2015-12-05T09:03:06Z</time>
      </trkpt>
      <trkpt lat="44.47745" lon="1.08221">
        <ele>214.03</ele>
        <time>2015-12-05T09:03:21Z</time>
      </trkpt>
      <trkpt lat="44.47744" lon="1.08221">
        <ele>212.59</ele>
        <time>2015-12-05T09:04:01Z</time>
      </trkpt>
      <trkpt lat="44.47744" lon="1.08222">
        <ele>213.07</ele>
        <time>2015-12-05T09:04:23Z</time>
      </trkpt>
      <trkpt lat="44.47742" lon="1.08225">
        <ele>214.03</ele>
        <time>2015-12-05T09:04:35Z</time>
      </trkpt>
      <trkpt lat="44.4774" lon="1.08226">
        <ele>215.95</ele>
        <time>2015-12-05T09:04:55Z</time>
      </trkpt>
      <trkpt lat="44.4774" lon="1.08226">
        <ele>215.47</ele>
        <time>2015-12-05T09:05:12Z</time>
      </trkpt>
      <trkpt lat="44.47739" lon="1.08227">
        <ele>215.95</ele>
        <time>2015-12-05T09:05:33Z</time>
      </trkpt>
      <trkpt lat="44.47739" lon="1.08227">
        <ele>215.95</ele>
        <time>2015-12-05T09:06:02Z</time>
      </trkpt>
      <trkpt lat="44.4774" lon="1.08227">
        <ele>215.47</ele>
        <time>2015-12-05T09:06:30Z</time>
      </trkpt>
      <trkpt lat="44.47739" lon="1.08227">
        <ele>215.47</ele>
        <time>2015-12-05T09:06:53Z</time>
      </trkpt>
      <trkpt lat="44.47739" lon="1.08227">
        <ele>216.91</ele>
        <time>2015-12-05T09:07:16Z</time>
      </trkpt>
      <trkpt lat="44.47733" lon="1.08233">
        <ele>218.36</ele>
        <time>2015-12-05T09:07:35Z</time>
      </trkpt>
      <trkpt lat="44.47729" lon="1.08236">
        <ele>218.84</ele>
        <time>2015-12-05T09:07:38Z</time>
      </trkpt>
      <trkpt lat="44.47714" lon="1.08255">
        <ele>221.24</ele>
        <time>2015-12-05T09:07:52Z</time>
      </trkpt>
      <trkpt lat="44.47703" lon="1.08275">
        <ele>222.2</ele>
        <time>2015-12-05T09:08:06Z</time>
      </trkpt>
      <trkpt lat="44.47688" lon="1.08311">
        <ele>225.09</ele>
        <time>2015-12-05T09:08:20Z</time>
      </trkpt>
      <trkpt lat="44.47662" lon="1.08347">
        <ele>224.12</ele>
        <time>2015-12-05T09:08:34Z</time>
      </trkpt>
      <trkpt lat="44.47642" lon="1.08366">
        <ele>222.2</ele>
        <time>2015-12-05T09:08:45Z</time>
      </trkpt>
      <trkpt lat="44.47603" lon="1.08369">
        <ele>223.16</ele>
        <time>2015-12-05T09:09:00Z</time>
      </trkpt>
      <trkpt lat="44.47564" lon="1.08368">
        <ele>223.16</ele>
        <time>2015-12-05T09:09:14Z</time>
      </trkpt>
      <trkpt lat="44.4753" lon="1.08364">
        <ele>225.57</ele>
        <time>2015-12-05T09:09:28Z</time>
      </trkpt>
      <trkpt lat="44.47508" lon="1.08358">
        <ele>226.53</ele>
        <time>2015-12-05T09:09:39Z</time>
      </trkpt>
      <trkpt lat="44.47504" lon="1.08358">
        <ele>226.53</ele>
        <time>2015-12-05T09:09:41Z</time>
      </trkpt>
      <trkpt lat="44.47495" lon="1.08352">
        <ele>226.53</ele>
        <time>2015-12-05T09:09:46Z</time>
      </trkpt>
      <trkpt lat="44.47476" lon="1.08338">
        <ele>230.37</ele>
        <time>2015-12-05T09:10:00Z</time>
      </trkpt>
      <trkpt lat="44.47463" lon="1.08327">
        <ele>233.74</ele>
        <time>2015-12-05T09:10:11Z</time>
      </trkpt>
      <trkpt lat="44.47439" lon="1.08307">
        <ele>234.7</ele>
        <time>2015-12-05T09:10:23Z</time>
      </trkpt>
      <trkpt lat="44.47411" lon="1.08281">
        <ele>235.18</ele>
        <time>2015-12-05T09:10:37Z</time>
      </trkpt>
      <trkpt lat="44.47384" lon="1.08248">
        <ele>233.74</ele>
        <time>2015-12-05T09:10:52Z</time>
      </trkpt>
      <trkpt lat="44.47359" lon="1.08212">
        <ele>235.66</ele>
        <time>2015-12-05T09:11:05Z</time>
      </trkpt>
      <trkpt lat="44.47328" lon="1.08189">
        <ele>236.14</ele>
        <time>2015-12-05T09:11:18Z</time>
      </trkpt>
      <trkpt lat="44.47295" lon="1.08168">
        <ele>237.58</ele>
        <time>2015-12-05T09:11:31Z</time>
      </trkpt>
      <trkpt lat="44.4726" lon="1.08144">
        <ele>238.06</ele>
        <time>2015-12-05T09:11:45Z</time>
      </trkpt>
      <trkpt lat="44.47225" lon="1.08124">
        <ele>244.79</ele>
        <time>2015-12-05T09:11:59Z</time>
      </trkpt>
      <trkpt lat="44.47193" lon="1.0811">
        <ele>251.52</ele>
        <time>2015-12-05T09:12:11Z</time>
      </trkpt>
      <trkpt lat="44.47161" lon="1.0809">
        <ele>255.37</ele>
        <time>2015-12-05T09:12:25Z</time>
      </trkpt>
      <trkpt lat="44.47157" lon="1.08083">
        <ele>255.37</ele>
        <time>2015-12-05T09:12:28Z</time>
      </trkpt>
      <trkpt lat="44.47151" lon="1.0808">
        <ele>252</ele>
        <time>2015-12-05T09:13:02Z</time>
      </trkpt>
      <trkpt lat="44.47151" lon="1.08081">
        <ele>252</ele>
        <time>2015-12-05T09:13:30Z</time>
      </trkpt>
      <trkpt lat="44.4715" lon="1.08079">
        <ele>250.56</ele>
        <time>2015-12-05T09:13:48Z</time>
      </trkpt>
      <trkpt lat="44.47147" lon="1.08079">
        <ele>249.12</ele>
        <time>2015-12-05T09:14:08Z</time>
      </trkpt>
      <trkpt lat="44.47147" lon="1.08079">
        <ele>249.12</ele>
        <time>2015-12-05T09:14:33Z</time>
      </trkpt>
      <trkpt lat="44.47147" lon="1.08079">
        <ele>249.6</ele>
        <time>2015-12-05T09:14:57Z</time>
      </trkpt>
      <trkpt lat="44.47147" lon="1.08079">
        <ele>249.12</ele>
        <time>2015-12-05T09:14:58Z</time>
      </trkpt>
      <trkpt lat="44.47138" lon="1.08079">
        <ele>249.12</ele>
        <time>2015-12-05T09:15:11Z</time>
      </trkpt>
      <trkpt lat="44.47139" lon="1.08079">
        <ele>250.08</ele>
        <time>2015-12-05T09:15:33Z</time>
      </trkpt>
      <trkpt lat="44.47135" lon="1.0808">
        <ele>248.64</ele>
        <time>2015-12-05T09:15:45Z</time>
      </trkpt>
      <trkpt lat="44.47121" lon="1.08079">
        <ele>247.68</ele>
        <time>2015-12-05T09:15:59Z</time>
      </trkpt>
      <trkpt lat="44.47093" lon="1.08074">
        <ele>249.12</ele>
        <time>2015-12-05T09:16:12Z</time>
      </trkpt>
      <trkpt lat="44.47061" lon="1.08068">
        <ele>250.56</ele>
        <time>2015-12-05T09:16:23Z</time>
      </trkpt>
      <trkpt lat="44.47021" lon="1.08053">
        <ele>252.48</ele>
        <time>2015-12-05T09:16:36Z</time>
      </trkpt>
      <trkpt lat="44.46983" lon="1.08045">
        <ele>252.96</ele>
        <time>2015-12-05T09:16:48Z</time>
      </trkpt>
      <trkpt lat="44.46955" lon="1.08044">
        <ele>255.37</ele>
        <time>2015-12-05T09:16:58Z</time>
      </trkpt>
      <trkpt lat="44.46924" lon="1.08042">
        <ele>256.81</ele>
        <time>2015-12-05T09:17:09Z</time>
      </trkpt>
      <trkpt lat="44.46897" lon="1.08046">
        <ele>258.25</ele>
        <time>2015-12-05T09:17:22Z</time>
      </trkpt>
      <trkpt lat="44.46876" lon="1.08065">
        <ele>263.06</ele>
        <time>2015-12-05T09:17:35Z</time>
      </trkpt>
      <trkpt lat="44.46863" lon="1.08086">
        <ele>265.46</ele>
        <time>2015-12-05T09:17:47Z</time>
      </trkpt>
      <trkpt lat="44.46844" lon="1.08114">
        <ele>265.46</ele>
        <time>2015-12-05T09:17:59Z</time>
      </trkpt>
      <trkpt lat="44.46816" lon="1.08149">
        <ele>267.38</ele>
        <time>2015-12-05T09:18:11Z</time>
      </trkpt>
      <trkpt lat="44.46808" lon="1.08156">
        <ele>267.86</ele>
        <time>2015-12-05T09:18:13Z</time>
      </trkpt>
      <trkpt lat="44.46804" lon="1.08159">
        <ele>268.35</ele>
        <time>2015-12-05T09:18:14Z</time>
      </trkpt>
      <trkpt lat="44.46801" lon="1.08163">
        <ele>268.35</ele>
        <time>2015-12-05T09:18:15Z</time>
      </trkpt>
      <trkpt lat="44.46762" lon="1.0822">
        <ele>269.31</ele>
        <time>2015-12-05T09:18:30Z</time>
      </trkpt>
      <trkpt lat="44.46727" lon="1.08267">
        <ele>271.23</ele>
        <time>2015-12-05T09:18:45Z</time>
      </trkpt>
      <trkpt lat="44.46681" lon="1.08282">
        <ele>266.9</ele>
        <time>2015-12-05T09:18:59Z</time>
      </trkpt>
      <trkpt lat="44.46606" lon="1.08289">
        <ele>259.21</ele>
        <time>2015-12-05T09:19:12Z</time>
      </trkpt>
      <trkpt lat="44.46566" lon="1.08299">
        <ele>255.37</ele>
        <time>2015-12-05T09:19:21Z</time>
      </trkpt>
      <trkpt lat="44.46559" lon="1.08308">
        <ele>254.89</ele>
        <time>2015-12-05T09:19:28Z</time>
      </trkpt>
      <trkpt lat="44.46559" lon="1.0831">
        <ele>254.89</ele>
        <time>2015-12-05T09:19:29Z</time>
      </trkpt>
      <trkpt lat="44.46558" lon="1.08312">
        <ele>254.89</ele>
        <time>2015-12-05T09:19:30Z</time>
      </trkpt>
      <trkpt lat="44.46559" lon="1.08314">
        <ele>254.89</ele>
        <time>2015-12-05T09:19:31Z</time>
      </trkpt>
      <trkpt lat="44.46559" lon="1.08316">
        <ele>254.89</ele>
        <time>2015-12-05T09:19:32Z</time>
      </trkpt>
      <trkpt lat="44.46559" lon="1.08319">
        <ele>254.89</ele>
        <time>2015-12-05T09:19:33Z</time>
      </trkpt>
      <trkpt lat="44.46559" lon="1.08321">
        <ele>254.89</ele>
        <time>2015-12-05T09:19:34Z</time>
      </trkpt>
      <trkpt lat="44.46559" lon="1.08323">
        <ele>254.41</ele>
        <time>2015-12-05T09:19:35Z</time>
      </trkpt>
      <trkpt lat="44.46559" lon="1.08326">
        <ele>254.41</ele>
        <time>2015-12-05T09:19:36Z</time>
      </trkpt>
      <trkpt lat="44.46559" lon="1.08329">
        <ele>253.93</ele>
        <time>2015-12-05T09:19:37Z</time>
      </trkpt>
      <trkpt lat="44.46561" lon="1.08385">
        <ele>251.52</ele>
        <time>2015-12-05T09:19:50Z</time>
      </trkpt>
      <trkpt lat="44.46566" lon="1.08435">
        <ele>248.16</ele>
        <time>2015-12-05T09:20:01Z</time>
      </trkpt>
      <trkpt lat="44.46584" lon="1.08526">
        <ele>242.87</ele>
        <time>2015-12-05T09:20:13Z</time>
      </trkpt>
      <trkpt lat="44.46595" lon="1.08659">
        <ele>238.06</ele>
        <time>2015-12-05T09:20:27Z</time>
      </trkpt>
      <trkpt lat="44.46609" lon="1.08777">
        <ele>236.62</ele>
        <time>2015-12-05T09:20:41Z</time>
      </trkpt>
      <trkpt lat="44.4661" lon="1.08785">
        <ele>236.62</ele>
        <time>2015-12-05T09:20:42Z</time>
      </trkpt>
      <trkpt lat="44.46612" lon="1.08823">
        <ele>235.66</ele>
        <time>2015-12-05T09:20:47Z</time>
      </trkpt>
      <trkpt lat="44.46611" lon="1.08833">
        <ele>235.18</ele>
        <time>2015-12-05T09:20:48Z</time>
      </trkpt>
      <trkpt lat="44.4661" lon="1.08842">
        <ele>235.18</ele>
        <time>2015-12-05T09:20:49Z</time>
      </trkpt>
      <trkpt lat="44.46582" lon="1.08957">
        <ele>235.18</ele>
        <time>2015-12-05T09:21:03Z</time>
      </trkpt>
      <trkpt lat="44.46539" lon="1.09062">
        <ele>233.74</ele>
        <time>2015-12-05T09:21:16Z</time>
      </trkpt>
      <trkpt lat="44.4647" lon="1.09184">
        <ele>232.3</ele>
        <time>2015-12-05T09:21:32Z</time>
      </trkpt>
      <trkpt lat="44.46449" lon="1.09217">
        <ele>231.33</ele>
        <time>2015-12-05T09:21:37Z</time>
      </trkpt>
      <trkpt lat="44.46446" lon="1.09224">
        <ele>231.33</ele>
        <time>2015-12-05T09:21:38Z</time>
      </trkpt>
      <trkpt lat="44.46439" lon="1.09241">
        <ele>230.37</ele>
        <time>2015-12-05T09:21:43Z</time>
      </trkpt>
      <trkpt lat="44.46438" lon="1.09243">
        <ele>230.37</ele>
        <time>2015-12-05T09:21:44Z</time>
      </trkpt>
      <trkpt lat="44.46438" lon="1.09245">
        <ele>230.37</ele>
        <time>2015-12-05T09:21:45Z</time>
      </trkpt>
      <trkpt lat="44.46437" lon="1.09246">
        <ele>230.37</ele>
        <time>2015-12-05T09:21:46Z</time>
      </trkpt>
      <trkpt lat="44.46436" lon="1.09245">
        <ele>230.37</ele>
        <time>2015-12-05T09:21:47Z</time>
      </trkpt>
      <trkpt lat="44.46436" lon="1.09243">
        <ele>230.85</ele>
        <time>2015-12-05T09:21:48Z</time>
      </trkpt>
      <trkpt lat="44.46437" lon="1.09241">
        <ele>230.85</ele>
        <time>2015-12-05T09:21:49Z</time>
      </trkpt>
      <trkpt lat="44.46438" lon="1.0924">
        <ele>230.85</ele>
        <time>2015-12-05T09:21:50Z</time>
      </trkpt>
      <trkpt lat="44.46439" lon="1.09238">
        <ele>230.85</ele>
        <time>2015-12-05T09:21:51Z</time>
      </trkpt>
      <trkpt lat="44.4644" lon="1.09236">
        <ele>230.85</ele>
        <time>2015-12-05T09:21:52Z</time>
      </trkpt>
      <trkpt lat="44.46441" lon="1.09233">
        <ele>230.85</ele>
        <time>2015-12-05T09:21:53Z</time>
      </trkpt>
      <trkpt lat="44.46442" lon="1.0923">
        <ele>230.85</ele>
        <time>2015-12-05T09:21:54Z</time>
      </trkpt>
      <trkpt lat="44.46443" lon="1.09228">
        <ele>230.85</ele>
        <time>2015-12-05T09:21:55Z</time>
      </trkpt>
      <trkpt lat="44.46442" lon="1.09225">
        <ele>230.85</ele>
        <time>2015-12-05T09:21:56Z</time>
      </trkpt>
      <trkpt lat="44.46441" lon="1.09222">
        <ele>230.85</ele>
        <time>2015-12-05T09:21:57Z</time>
      </trkpt>
      <trkpt lat="44.4644" lon="1.09219">
        <ele>230.85</ele>
        <time>2015-12-05T09:21:58Z</time>
      </trkpt>
      <trkpt lat="44.46439" lon="1.09216">
        <ele>230.85</ele>
        <time>2015-12-05T09:21:59Z</time>
      </trkpt>
      <trkpt lat="44.4643" lon="1.09213">
        <ele>230.85</ele>
        <time>2015-12-05T09:22:03Z</time>
      </trkpt>
      <trkpt lat="44.46371" lon="1.0924">
        <ele>227.97</ele>
        <time>2015-12-05T09:22:16Z</time>
      </trkpt>
      <trkpt lat="44.46336" lon="1.09259">
        <ele>226.05</ele>
        <time>2015-12-05T09:22:23Z</time>
      </trkpt>
      <trkpt lat="44.46321" lon="1.09265">
        <ele>225.09</ele>
        <time>2015-12-05T09:22:26Z</time>
      </trkpt>
      <trkpt lat="44.46307" lon="1.09271">
        <ele>224.61</ele>
        <time>2015-12-05T09:22:29Z</time>
      </trkpt>
      <trkpt lat="44.46287" lon="1.09275">
        <ele>223.64</ele>
        <time>2015-12-05T09:22:33Z</time>
      </trkpt>
      <trkpt lat="44.46209" lon="1.09295">
        <ele>221.72</ele>
        <time>2015-12-05T09:22:48Z</time>
      </trkpt>
      <trkpt lat="44.46143" lon="1.09303">
        <ele>221.72</ele>
        <time>2015-12-05T09:23:00Z</time>
      </trkpt>
      <trkpt lat="44.46096" lon="1.09317">
        <ele>223.64</ele>
        <time>2015-12-05T09:23:14Z</time>
      </trkpt>
      <trkpt lat="44.46085" lon="1.09326">
        <ele>224.12</ele>
        <time>2015-12-05T09:23:27Z</time>
      </trkpt>
      <trkpt lat="44.46085" lon="1.09326">
        <ele>224.61</ele>
        <time>2015-12-05T09:23:49Z</time>
      </trkpt>
      <trkpt lat="44.4608" lon="1.09328">
        <ele>223.64</ele>
        <time>2015-12-05T09:24:01Z</time>
      </trkpt>
      <trkpt lat="44.46055" lon="1.09361">
        <ele>225.09</ele>
        <time>2015-12-05T09:24:15Z</time>
      </trkpt>
      <trkpt lat="44.4604" lon="1.09381">
        <ele>225.09</ele>
        <time>2015-12-05T09:24:24Z</time>
      </trkpt>
      <trkpt lat="44.46038" lon="1.09384">
        <ele>224.61</ele>
        <time>2015-12-05T09:24:38Z</time>
      </trkpt>
      <trkpt lat="44.46015" lon="1.09415">
        <ele>225.57</ele>
        <time>2015-12-05T09:24:51Z</time>
      </trkpt>
      <trkpt lat="44.45977" lon="1.09464">
        <ele>228.45</ele>
        <time>2015-12-05T09:25:05Z</time>
      </trkpt>
      <trkpt lat="44.45946" lon="1.09533">
        <ele>230.85</ele>
        <time>2015-12-05T09:25:19Z</time>
      </trkpt>
      <trkpt lat="44.45928" lon="1.0958">
        <ele>232.3</ele>
        <time>2015-12-05T09:25:28Z</time>
      </trkpt>
      <trkpt lat="44.4591" lon="1.09647">
        <ele>234.7</ele>
        <time>2015-12-05T09:25:42Z</time>
      </trkpt>
      <trkpt lat="44.45899" lon="1.09673">
        <ele>235.66</ele>
        <time>2015-12-05T09:25:54Z</time>
      </trkpt>
      <trkpt lat="44.45896" lon="1.09686">
        <ele>235.66</ele>
        <time>2015-12-05T09:26:18Z</time>
      </trkpt>
      <trkpt lat="44.45895" lon="1.09688">
        <ele>235.66</ele>
        <time>2015-12-05T09:26:19Z</time>
      </trkpt>
      <trkpt lat="44.45888" lon="1.09705">
        <ele>236.62</ele>
        <time>2015-12-05T09:26:28Z</time>
      </trkpt>
      <trkpt lat="44.45862" lon="1.09738">
        <ele>237.1</ele>
        <time>2015-12-05T09:26:41Z</time>
      </trkpt>
      <trkpt lat="44.45827" lon="1.09762">
        <ele>236.14</ele>
        <time>2015-12-05T09:26:52Z</time>
      </trkpt>
      <trkpt lat="44.45807" lon="1.09769">
        <ele>237.58</ele>
        <time>2015-12-05T09:26:57Z</time>
      </trkpt>
      <trkpt lat="44.45757" lon="1.09793">
        <ele>240.95</ele>
        <time>2015-12-05T09:27:11Z</time>
      </trkpt>
      <trkpt lat="44.45718" lon="1.09811">
        <ele>243.35</ele>
        <time>2015-12-05T09:27:25Z</time>
      </trkpt>
      <trkpt lat="44.45684" lon="1.09834">
        <ele>245.75</ele>
        <time>2015-12-05T09:27:39Z</time>
      </trkpt>
      <trkpt lat="44.4565" lon="1.09864">
        <ele>246.72</ele>
        <time>2015-12-05T09:27:52Z</time>
      </trkpt>
      <trkpt lat="44.45614" lon="1.09897">
        <ele>246.72</ele>
        <time>2015-12-05T09:28:05Z</time>
      </trkpt>
      <trkpt lat="44.45601" lon="1.09906">
        <ele>246.23</ele>
        <time>2015-12-05T09:28:08Z</time>
      </trkpt>
      <trkpt lat="44.45552" lon="1.09944">
        <ele>245.75</ele>
        <time>2015-12-05T09:28:21Z</time>
      </trkpt>
      <trkpt lat="44.45514" lon="1.09971">
        <ele>244.79</ele>
        <time>2015-12-05T09:28:31Z</time>
      </trkpt>
      <trkpt lat="44.45466" lon="1.09999">
        <ele>245.75</ele>
        <time>2015-12-05T09:28:44Z</time>
      </trkpt>
      <trkpt lat="44.45421" lon="1.10015">
        <ele>247.68</ele>
        <time>2015-12-05T09:28:58Z</time>
      </trkpt>
      <trkpt lat="44.45382" lon="1.10027">
        <ele>248.64</ele>
        <time>2015-12-05T09:29:10Z</time>
      </trkpt>
      <trkpt lat="44.45309" lon="1.10033">
        <ele>240.95</ele>
        <time>2015-12-05T09:29:24Z</time>
      </trkpt>
      <trkpt lat="44.45294" lon="1.10035">
        <ele>239.02</ele>
        <time>2015-12-05T09:29:27Z</time>
      </trkpt>
      <trkpt lat="44.45254" lon="1.10046">
        <ele>235.18</ele>
        <time>2015-12-05T09:29:39Z</time>
      </trkpt>
      <trkpt lat="44.45254" lon="1.10046">
        <ele>233.74</ele>
        <time>2015-12-05T09:29:48Z</time>
      </trkpt>
      <trkpt lat="44.45253" lon="1.10048">
        <ele>233.74</ele>
        <time>2015-12-05T09:29:49Z</time>
      </trkpt>
      <trkpt lat="44.45252" lon="1.1005">
        <ele>233.74</ele>
        <time>2015-12-05T09:29:50Z</time>
      </trkpt>
      <trkpt lat="44.4525" lon="1.10052">
        <ele>233.74</ele>
        <time>2015-12-05T09:29:51Z</time>
      </trkpt>
      <trkpt lat="44.45249" lon="1.10055">
        <ele>233.26</ele>
        <time>2015-12-05T09:29:52Z</time>
      </trkpt>
      <trkpt lat="44.45247" lon="1.10057">
        <ele>233.74</ele>
        <time>2015-12-05T09:29:53Z</time>
      </trkpt>
      <trkpt lat="44.45245" lon="1.1006">
        <ele>233.74</ele>
        <time>2015-12-05T09:29:54Z</time>
      </trkpt>
      <trkpt lat="44.45243" lon="1.10062">
        <ele>233.74</ele>
        <time>2015-12-05T09:29:55Z</time>
      </trkpt>
      <trkpt lat="44.4524" lon="1.10065">
        <ele>233.74</ele>
        <time>2015-12-05T09:29:56Z</time>
      </trkpt>
      <trkpt lat="44.45238" lon="1.10067">
        <ele>233.74</ele>
        <time>2015-12-05T09:29:57Z</time>
      </trkpt>
      <trkpt lat="44.45236" lon="1.1007">
        <ele>233.74</ele>
        <time>2015-12-05T09:29:58Z</time>
      </trkpt>
      <trkpt lat="44.45234" lon="1.10073">
        <ele>234.22</ele>
        <time>2015-12-05T09:29:59Z</time>
      </trkpt>
      <trkpt lat="44.45218" lon="1.10104">
        <ele>235.66</ele>
        <time>2015-12-05T09:30:08Z</time>
      </trkpt>
      <trkpt lat="44.45195" lon="1.1015">
        <ele>238.54</ele>
        <time>2015-12-05T09:30:22Z</time>
      </trkpt>
      <trkpt lat="44.45183" lon="1.10175">
        <ele>239.99</ele>
        <time>2015-12-05T09:30:31Z</time>
      </trkpt>
      <trkpt lat="44.45177" lon="1.1019">
        <ele>240.47</ele>
        <time>2015-12-05T09:30:50Z</time>
      </trkpt>
      <trkpt lat="44.45163" lon="1.1023">
        <ele>242.39</ele>
        <time>2015-12-05T09:31:03Z</time>
      </trkpt>
      <trkpt lat="44.45146" lon="1.10283">
        <ele>244.31</ele>
        <time>2015-12-05T09:31:15Z</time>
      </trkpt>
      <trkpt lat="44.45129" lon="1.10339">
        <ele>244.79</ele>
        <time>2015-12-05T09:31:28Z</time>
      </trkpt>
      <trkpt lat="44.45119" lon="1.10396">
        <ele>245.75</ele>
        <time>2015-12-05T09:31:41Z</time>
      </trkpt>
      <trkpt lat="44.45115" lon="1.10448">
        <ele>246.72</ele>
        <time>2015-12-05T09:31:55Z</time>
      </trkpt>
      <trkpt lat="44.45118" lon="1.10507">
        <ele>246.72</ele>
        <time>2015-12-05T09:32:09Z</time>
      </trkpt>
      <trkpt lat="44.45114" lon="1.10555">
        <ele>247.2</ele>
        <time>2015-12-05T09:32:22Z</time>
      </trkpt>
      <trkpt lat="44.45113" lon="1.10557">
        <ele>247.2</ele>
        <time>2015-12-05T09:32:23Z</time>
      </trkpt>
      <trkpt lat="44.45098" lon="1.10583">
        <ele>245.27</ele>
        <time>2015-12-05T09:32:34Z</time>
      </trkpt>
      <trkpt lat="44.45083" lon="1.10612">
        <ele>244.79</ele>
        <time>2015-12-05T09:32:41Z</time>
      </trkpt>
      <trkpt lat="44.45073" lon="1.1063">
        <ele>244.31</ele>
        <time>2015-12-05T09:32:45Z</time>
      </trkpt>
      <trkpt lat="44.4505" lon="1.10719">
        <ele>240.95</ele>
        <time>2015-12-05T09:32:59Z</time>
      </trkpt>
      <trkpt lat="44.45036" lon="1.10766">
        <ele>238.54</ele>
        <time>2015-12-05T09:33:11Z</time>
      </trkpt>
      <trkpt lat="44.45018" lon="1.10821">
        <ele>236.14</ele>
        <time>2015-12-05T09:33:24Z</time>
      </trkpt>
      <trkpt lat="44.44984" lon="1.10883">
        <ele>234.22</ele>
        <time>2015-12-05T09:33:38Z</time>
      </trkpt>
      <trkpt lat="44.44948" lon="1.10924">
        <ele>236.14</ele>
        <time>2015-12-05T09:33:51Z</time>
      </trkpt>
      <trkpt lat="44.44921" lon="1.10967">
        <ele>238.06</ele>
        <time>2015-12-05T09:34:06Z</time>
      </trkpt>
      <trkpt lat="44.44899" lon="1.11012">
        <ele>240.47</ele>
        <time>2015-12-05T09:34:19Z</time>
      </trkpt>
      <trkpt lat="44.44888" lon="1.11049">
        <ele>242.87</ele>
        <time>2015-12-05T09:34:31Z</time>
      </trkpt>
      <trkpt lat="44.44889" lon="1.1105">
        <ele>243.35</ele>
        <time>2015-12-05T09:34:45Z</time>
      </trkpt>
      <trkpt lat="44.44865" lon="1.1105">
        <ele>242.87</ele>
        <time>2015-12-05T09:34:55Z</time>
      </trkpt>
      <trkpt lat="44.4482" lon="1.11056">
        <ele>244.79</ele>
        <time>2015-12-05T09:35:10Z</time>
      </trkpt>
      <trkpt lat="44.44783" lon="1.11057">
        <ele>246.23</ele>
        <time>2015-12-05T09:35:23Z</time>
      </trkpt>
      <trkpt lat="44.44773" lon="1.11074">
        <ele>246.72</ele>
        <time>2015-12-05T09:35:31Z</time>
      </trkpt>
      <trkpt lat="44.44752" lon="1.11117">
        <ele>249.6</ele>
        <time>2015-12-05T09:35:46Z</time>
      </trkpt>
      <trkpt lat="44.44737" lon="1.11152">
        <ele>252</ele>
        <time>2015-12-05T09:36:01Z</time>
      </trkpt>
      <trkpt lat="44.44737" lon="1.11153">
        <ele>252</ele>
        <time>2015-12-05T09:36:16Z</time>
      </trkpt>
      <trkpt lat="44.44734" lon="1.11182">
        <ele>250.56</ele>
        <time>2015-12-05T09:36:26Z</time>
      </trkpt>
      <trkpt lat="44.44709" lon="1.11227">
        <ele>251.04</ele>
        <time>2015-12-05T09:36:39Z</time>
      </trkpt>
      <trkpt lat="44.44707" lon="1.11232">
        <ele>251.04</ele>
        <time>2015-12-05T09:36:40Z</time>
      </trkpt>
      <trkpt lat="44.44673" lon="1.1129">
        <ele>248.16</ele>
        <time>2015-12-05T09:36:54Z</time>
      </trkpt>
      <trkpt lat="44.4465" lon="1.1133">
        <ele>247.2</ele>
        <time>2015-12-05T09:37:04Z</time>
      </trkpt>
      <trkpt lat="44.4464" lon="1.11347">
        <ele>247.2</ele>
        <time>2015-12-05T09:37:08Z</time>
      </trkpt>
      <trkpt lat="44.44625" lon="1.11349">
        <ele>246.72</ele>
        <time>2015-12-05T09:37:15Z</time>
      </trkpt>
      <trkpt lat="44.4459" lon="1.11389">
        <ele>248.64</ele>
        <time>2015-12-05T09:37:29Z</time>
      </trkpt>
      <trkpt lat="44.44553" lon="1.11432">
        <ele>249.12</ele>
        <time>2015-12-05T09:37:44Z</time>
      </trkpt>
      <trkpt lat="44.44511" lon="1.11477">
        <ele>250.08</ele>
        <time>2015-12-05T09:37:59Z</time>
      </trkpt>
      <trkpt lat="44.44504" lon="1.11488">
        <ele>250.08</ele>
        <time>2015-12-05T09:38:03Z</time>
      </trkpt>
      <trkpt lat="44.44503" lon="1.11491">
        <ele>249.6</ele>
        <time>2015-12-05T09:38:04Z</time>
      </trkpt>
      <trkpt lat="44.44502" lon="1.11493">
        <ele>250.08</ele>
        <time>2015-12-05T09:38:05Z</time>
      </trkpt>
      <trkpt lat="44.44479" lon="1.11534">
        <ele>249.6</ele>
        <time>2015-12-05T09:38:18Z</time>
      </trkpt>
      <trkpt lat="44.44444" lon="1.11594">
        <ele>250.08</ele>
        <time>2015-12-05T09:38:34Z</time>
      </trkpt>
      <trkpt lat="44.444" lon="1.11658">
        <ele>252.96</ele>
        <time>2015-12-05T09:38:51Z</time>
      </trkpt>
      <trkpt lat="44.44358" lon="1.11685">
        <ele>253.44</ele>
        <time>2015-12-05T09:39:04Z</time>
      </trkpt>
      <trkpt lat="44.44311" lon="1.11694">
        <ele>257.29</ele>
        <time>2015-12-05T09:39:19Z</time>
      </trkpt>
      <trkpt lat="44.44265" lon="1.11697">
        <ele>257.77</ele>
        <time>2015-12-05T09:39:33Z</time>
      </trkpt>
      <trkpt lat="44.44216" lon="1.11718">
        <ele>256.81</ele>
        <time>2015-12-05T09:39:47Z</time>
      </trkpt>
      <trkpt lat="44.44173" lon="1.11745">
        <ele>257.29</ele>
        <time>2015-12-05T09:40:01Z</time>
      </trkpt>
      <trkpt lat="44.4414" lon="1.11781">
        <ele>256.81</ele>
        <time>2015-12-05T09:40:14Z</time>
      </trkpt>
      <trkpt lat="44.44131" lon="1.11792">
        <ele>256.81</ele>
        <time>2015-12-05T09:40:24Z</time>
      </trkpt>
      <trkpt lat="44.44131" lon="1.11793">
        <ele>256.81</ele>
        <time>2015-12-05T09:40:50Z</time>
      </trkpt>
      <trkpt lat="44.4413" lon="1.11793">
        <ele>256.33</ele>
        <time>2015-12-05T09:41:07Z</time>
      </trkpt>
      <trkpt lat="44.4413" lon="1.11794">
        <ele>256.81</ele>
        <time>2015-12-05T09:41:29Z</time>
      </trkpt>
      <trkpt lat="44.44126" lon="1.11799">
        <ele>256.81</ele>
        <time>2015-12-05T09:41:40Z</time>
      </trkpt>
      <trkpt lat="44.44122" lon="1.11802">
        <ele>257.29</ele>
        <time>2015-12-05T09:41:49Z</time>
      </trkpt>
      <trkpt lat="44.44123" lon="1.11803">
        <ele>258.25</ele>
        <time>2015-12-05T09:42:16Z</time>
      </trkpt>
      <trkpt lat="44.44125" lon="1.11804">
        <ele>257.77</ele>
        <time>2015-12-05T09:42:52Z</time>
      </trkpt>
      <trkpt lat="44.44124" lon="1.11804">
        <ele>258.25</ele>
        <time>2015-12-05T09:43:37Z</time>
      </trkpt>
      <trkpt lat="44.44123" lon="1.11804">
        <ele>257.77</ele>
        <time>2015-12-05T09:44:11Z</time>
      </trkpt>
      <trkpt lat="44.44123" lon="1.11805">
        <ele>257.77</ele>
        <time>2015-12-05T09:44:47Z</time>
      </trkpt>
      <trkpt lat="44.44122" lon="1.11804">
        <ele>258.73</ele>
        <time>2015-12-05T09:45:23Z</time>
      </trkpt>
      <trkpt lat="44.44121" lon="1.11803">
        <ele>257.77</ele>
        <time>2015-12-05T09:45:54Z</time>
      </trkpt>
      <trkpt lat="44.44122" lon="1.11804">
        <ele>258.25</ele>
        <time>2015-12-05T09:46:36Z</time>
      </trkpt>
      <trkpt lat="44.44124" lon="1.11803">
        <ele>256.81</ele>
        <time>2015-12-05T09:47:20Z</time>
      </trkpt>
      <trkpt lat="44.44125" lon="1.11803">
        <ele>255.85</ele>
        <time>2015-12-05T09:47:59Z</time>
      </trkpt>
      <trkpt lat="44.44124" lon="1.11803">
        <ele>255.37</ele>
        <time>2015-12-05T09:48:32Z</time>
      </trkpt>
      <trkpt lat="44.44124" lon="1.11803">
        <ele>253.44</ele>
        <time>2015-12-05T09:49:08Z</time>
      </trkpt>
      <trkpt lat="44.44123" lon="1.11804">
        <ele>254.41</ele>
        <time>2015-12-05T09:49:46Z</time>
      </trkpt>
      <trkpt lat="44.44123" lon="1.11803">
        <ele>254.89</ele>
        <time>2015-12-05T09:50:30Z</time>
      </trkpt>
      <trkpt lat="44.44125" lon="1.11804">
        <ele>256.33</ele>
        <time>2015-12-05T09:51:08Z</time>
      </trkpt>
      <trkpt lat="44.44123" lon="1.11805">
        <ele>255.85</ele>
        <time>2015-12-05T09:51:27Z</time>
      </trkpt>
      <trkpt lat="44.44123" lon="1.11806">
        <ele>256.81</ele>
        <time>2015-12-05T09:51:44Z</time>
      </trkpt>
      <trkpt lat="44.44122" lon="1.11805">
        <ele>257.29</ele>
        <time>2015-12-05T09:52:08Z</time>
      </trkpt>
      <trkpt lat="44.44122" lon="1.11807">
        <ele>257.29</ele>
        <time>2015-12-05T09:52:18Z</time>
      </trkpt>
      <trkpt lat="44.44112" lon="1.11824">
        <ele>254.89</ele>
        <time>2015-12-05T09:52:24Z</time>
      </trkpt>
      <trkpt lat="44.44102" lon="1.11856">
        <ele>252</ele>
        <time>2015-12-05T09:52:29Z</time>
      </trkpt>
      <trkpt lat="44.44099" lon="1.11951">
        <ele>245.75</ele>
        <time>2015-12-05T09:52:38Z</time>
      </trkpt>
      <trkpt lat="44.44075" lon="1.12033">
        <ele>243.35</ele>
        <time>2015-12-05T09:52:46Z</time>
      </trkpt>
      <trkpt lat="44.44051" lon="1.12064">
        <ele>242.87</ele>
        <time>2015-12-05T09:52:51Z</time>
      </trkpt>
      <trkpt lat="44.44" lon="1.12144">
        <ele>241.91</ele>
        <time>2015-12-05T09:53:04Z</time>
      </trkpt>
      <trkpt lat="44.4396" lon="1.12203">
        <ele>238.54</ele>
        <time>2015-12-05T09:53:15Z</time>
      </trkpt>
      <trkpt lat="44.43944" lon="1.12229">
        <ele>236.14</ele>
        <time>2015-12-05T09:53:21Z</time>
      </trkpt>
      <trkpt lat="44.43949" lon="1.1224">
        <ele>235.66</ele>
        <time>2015-12-05T09:53:31Z</time>
      </trkpt>
      <trkpt lat="44.4395" lon="1.1224">
        <ele>235.18</ele>
        <time>2015-12-05T09:53:34Z</time>
      </trkpt>
      <trkpt lat="44.43974" lon="1.12234">
        <ele>236.62</ele>
        <time>2015-12-05T09:53:47Z</time>
      </trkpt>
      <trkpt lat="44.44007" lon="1.12227">
        <ele>236.14</ele>
        <time>2015-12-05T09:53:55Z</time>
      </trkpt>
      <trkpt lat="44.44069" lon="1.12223">
        <ele>230.37</ele>
        <time>2015-12-05T09:54:06Z</time>
      </trkpt>
      <trkpt lat="44.44071" lon="1.12225">
        <ele>230.37</ele>
        <time>2015-12-05T09:54:07Z</time>
      </trkpt>
      <trkpt lat="44.44071" lon="1.12228">
        <ele>229.89</ele>
        <time>2015-12-05T09:54:08Z</time>
      </trkpt>
      <trkpt lat="44.4407" lon="1.12232">
        <ele>229.41</ele>
        <time>2015-12-05T09:54:09Z</time>
      </trkpt>
      <trkpt lat="44.44068" lon="1.12235">
        <ele>228.93</ele>
        <time>2015-12-05T09:54:10Z</time>
      </trkpt>
      <trkpt lat="44.44065" lon="1.12238">
        <ele>228.45</ele>
        <time>2015-12-05T09:54:11Z</time>
      </trkpt>
      <trkpt lat="44.44062" lon="1.12243">
        <ele>228.45</ele>
        <time>2015-12-05T09:54:12Z</time>
      </trkpt>
      <trkpt lat="44.44013" lon="1.12308">
        <ele>221.24</ele>
        <time>2015-12-05T09:54:22Z</time>
      </trkpt>
      <trkpt lat="44.43998" lon="1.12325">
        <ele>219.32</ele>
        <time>2015-12-05T09:54:24Z</time>
      </trkpt>
      <trkpt lat="44.43992" lon="1.12335">
        <ele>218.36</ele>
        <time>2015-12-05T09:54:25Z</time>
      </trkpt>
      <trkpt lat="44.43988" lon="1.12346">
        <ele>217.4</ele>
        <time>2015-12-05T09:54:26Z</time>
      </trkpt>
      <trkpt lat="44.43987" lon="1.12358">
        <ele>216.43</ele>
        <time>2015-12-05T09:54:27Z</time>
      </trkpt>
      <trkpt lat="44.43989" lon="1.12369">
        <ele>215.95</ele>
        <time>2015-12-05T09:54:28Z</time>
      </trkpt>
      <trkpt lat="44.43992" lon="1.12379">
        <ele>214.99</ele>
        <time>2015-12-05T09:54:29Z</time>
      </trkpt>
      <trkpt lat="44.43996" lon="1.1239">
        <ele>214.51</ele>
        <time>2015-12-05T09:54:30Z</time>
      </trkpt>
      <trkpt lat="44.44001" lon="1.124">
        <ele>214.03</ele>
        <time>2015-12-05T09:54:31Z</time>
      </trkpt>
      <trkpt lat="44.44005" lon="1.12412">
        <ele>213.55</ele>
        <time>2015-12-05T09:54:32Z</time>
      </trkpt>
      <trkpt lat="44.44009" lon="1.12423">
        <ele>213.07</ele>
        <time>2015-12-05T09:54:33Z</time>
      </trkpt>
      <trkpt lat="44.44012" lon="1.12434">
        <ele>212.59</ele>
        <time>2015-12-05T09:54:34Z</time>
      </trkpt>
      <trkpt lat="44.44022" lon="1.12481">
        <ele>211.63</ele>
        <time>2015-12-05T09:54:41Z</time>
      </trkpt>
      <trkpt lat="44.44024" lon="1.12493">
        <ele>211.63</ele>
        <time>2015-12-05T09:54:45Z</time>
      </trkpt>
      <trkpt lat="44.44025" lon="1.12496">
        <ele>211.63</ele>
        <time>2015-12-05T09:54:47Z</time>
      </trkpt>
      <trkpt lat="44.44025" lon="1.12497">
        <ele>211.63</ele>
        <time>2015-12-05T09:54:48Z</time>
      </trkpt>
      <trkpt lat="44.44029" lon="1.12526">
        <ele>211.15</ele>
        <time>2015-12-05T09:55:02Z</time>
      </trkpt>
      <trkpt lat="44.44034" lon="1.1256">
        <ele>210.67</ele>
        <time>2015-12-05T09:55:16Z</time>
      </trkpt>
      <trkpt lat="44.44036" lon="1.12602">
        <ele>209.7</ele>
        <time>2015-12-05T09:55:29Z</time>
      </trkpt>
      <trkpt lat="44.44042" lon="1.12644">
        <ele>207.78</ele>
        <time>2015-12-05T09:55:37Z</time>
      </trkpt>
      <trkpt lat="44.44045" lon="1.1274">
        <ele>204.42</ele>
        <time>2015-12-05T09:55:48Z</time>
      </trkpt>
      <trkpt lat="44.44045" lon="1.12757">
        <ele>204.42</ele>
        <time>2015-12-05T09:55:50Z</time>
      </trkpt>
      <trkpt lat="44.44045" lon="1.12766">
        <ele>204.42</ele>
        <time>2015-12-05T09:55:51Z</time>
      </trkpt>
      <trkpt lat="44.44052" lon="1.1289">
        <ele>203.94</ele>
        <time>2015-12-05T09:56:06Z</time>
      </trkpt>
      <trkpt lat="44.44053" lon="1.12909">
        <ele>202.49</ele>
        <time>2015-12-05T09:56:08Z</time>
      </trkpt>
      <trkpt lat="44.44057" lon="1.12939">
        <ele>200.57</ele>
        <time>2015-12-05T09:56:11Z</time>
      </trkpt>
      <trkpt lat="44.4406" lon="1.12948">
        <ele>200.09</ele>
        <time>2015-12-05T09:56:12Z</time>
      </trkpt>
      <trkpt lat="44.44064" lon="1.12956">
        <ele>199.61</ele>
        <time>2015-12-05T09:56:13Z</time>
      </trkpt>
      <trkpt lat="44.44071" lon="1.12972">
        <ele>198.17</ele>
        <time>2015-12-05T09:56:15Z</time>
      </trkpt>
      <trkpt lat="44.44081" lon="1.13005">
        <ele>195.28</ele>
        <time>2015-12-05T09:56:19Z</time>
      </trkpt>
      <trkpt lat="44.44084" lon="1.13019">
        <ele>193.84</ele>
        <time>2015-12-05T09:56:21Z</time>
      </trkpt>
      <trkpt lat="44.44093" lon="1.13082">
        <ele>187.59</ele>
        <time>2015-12-05T09:56:29Z</time>
      </trkpt>
      <trkpt lat="44.44109" lon="1.13153">
        <ele>183.75</ele>
        <time>2015-12-05T09:56:37Z</time>
      </trkpt>
      <trkpt lat="44.44106" lon="1.13184">
        <ele>180.87</ele>
        <time>2015-12-05T09:56:41Z</time>
      </trkpt>
      <trkpt lat="44.44118" lon="1.13201">
        <ele>179.9</ele>
        <time>2015-12-05T09:56:48Z</time>
      </trkpt>
      <trkpt lat="44.44138" lon="1.13169">
        <ele>178.46</ele>
        <time>2015-12-05T09:56:54Z</time>
      </trkpt>
      <trkpt lat="44.44144" lon="1.13149">
        <ele>177.02</ele>
        <time>2015-12-05T09:56:58Z</time>
      </trkpt>
      <trkpt lat="44.44146" lon="1.13121">
        <ele>175.58</ele>
        <time>2015-12-05T09:57:04Z</time>
      </trkpt>
      <trkpt lat="44.44152" lon="1.13123">
        <ele>174.62</ele>
        <time>2015-12-05T09:57:08Z</time>
      </trkpt>
      <trkpt lat="44.44153" lon="1.13179">
        <ele>174.14</ele>
        <time>2015-12-05T09:57:17Z</time>
      </trkpt>
      <trkpt lat="44.44153" lon="1.13211">
        <ele>171.25</ele>
        <time>2015-12-05T09:57:22Z</time>
      </trkpt>
      <trkpt lat="44.44165" lon="1.13202">
        <ele>169.81</ele>
        <time>2015-12-05T09:57:30Z</time>
      </trkpt>
      <trkpt lat="44.44188" lon="1.1314">
        <ele>165.48</ele>
        <time>2015-12-05T09:57:42Z</time>
      </trkpt>
      <trkpt lat="44.44191" lon="1.13119">
        <ele>162.12</ele>
        <time>2015-12-05T09:57:50Z</time>
      </trkpt>
      <trkpt lat="44.44192" lon="1.13116">
        <ele>161.64</ele>
        <time>2015-12-05T09:57:52Z</time>
      </trkpt>
      <trkpt lat="44.44198" lon="1.13133">
        <ele>160.2</ele>
        <time>2015-12-05T09:57:58Z</time>
      </trkpt>
      <trkpt lat="44.44203" lon="1.13175">
        <ele>158.75</ele>
        <time>2015-12-05T09:58:04Z</time>
      </trkpt>
      <trkpt lat="44.44201" lon="1.13219">
        <ele>156.35</ele>
        <time>2015-12-05T09:58:09Z</time>
      </trkpt>
      <trkpt lat="44.44199" lon="1.13245">
        <ele>153.95</ele>
        <time>2015-12-05T09:58:13Z</time>
      </trkpt>
      <trkpt lat="44.44197" lon="1.13261">
        <ele>152.51</ele>
        <time>2015-12-05T09:58:25Z</time>
      </trkpt>
      <trkpt lat="44.44196" lon="1.13267">
        <ele>152.51</ele>
        <time>2015-12-05T09:58:37Z</time>
      </trkpt>
      <trkpt lat="44.44193" lon="1.13264">
        <ele>152.99</ele>
        <time>2015-12-05T09:59:13Z</time>
      </trkpt>
      <trkpt lat="44.44192" lon="1.13263">
        <ele>152.03</ele>
        <time>2015-12-05T09:59:43Z</time>
      </trkpt>
      <trkpt lat="44.44195" lon="1.13263">
        <ele>154.43</ele>
        <time>2015-12-05T10:00:17Z</time>
      </trkpt>
      <trkpt lat="44.44194" lon="1.13263">
        <ele>155.39</ele>
        <time>2015-12-05T10:00:51Z</time>
      </trkpt>
      <trkpt lat="44.44194" lon="1.13265">
        <ele>156.83</ele>
        <time>2015-12-05T10:01:25Z</time>
      </trkpt>
      <trkpt lat="44.44194" lon="1.13266">
        <ele>159.24</ele>
        <time>2015-12-05T10:02:01Z</time>
      </trkpt>
      <trkpt lat="44.44193" lon="1.1327">
        <ele>160.2</ele>
        <time>2015-12-05T10:02:12Z</time>
      </trkpt>
      <trkpt lat="44.44194" lon="1.13268">
        <ele>162.6</ele>
        <time>2015-12-05T10:02:54Z</time>
      </trkpt>
      <trkpt lat="44.44195" lon="1.13268">
        <ele>161.64</ele>
        <time>2015-12-05T10:03:24Z</time>
      </trkpt>
      <trkpt lat="44.44196" lon="1.13266">
        <ele>160.2</ele>
        <time>2015-12-05T10:03:51Z</time>
      </trkpt>
      <trkpt lat="44.44195" lon="1.13265">
        <ele>156.83</ele>
        <time>2015-12-05T10:04:18Z</time>
      </trkpt>
      <trkpt lat="44.44194" lon="1.13267">
        <ele>156.35</ele>
        <time>2015-12-05T10:04:44Z</time>
      </trkpt>
      <trkpt lat="44.44194" lon="1.13269">
        <ele>157.31</ele>
        <time>2015-12-05T10:05:18Z</time>
      </trkpt>
      <trkpt lat="44.44194" lon="1.13267">
        <ele>158.27</ele>
        <time>2015-12-05T10:05:48Z</time>
      </trkpt>
      <trkpt lat="44.44195" lon="1.13268">
        <ele>157.79</ele>
        <time>2015-12-05T10:06:23Z</time>
      </trkpt>
      <trkpt lat="44.44194" lon="1.13267">
        <ele>158.27</ele>
        <time>2015-12-05T10:06:57Z</time>
      </trkpt>
      <trkpt lat="44.44196" lon="1.1327">
        <ele>157.31</ele>
        <time>2015-12-05T10:07:11Z</time>
      </trkpt>
      <trkpt lat="44.44196" lon="1.1327">
        <ele>156.83</ele>
        <time>2015-12-05T10:07:25Z</time>
      </trkpt>
      <trkpt lat="44.44199" lon="1.13282">
        <ele>157.79</ele>
        <time>2015-12-05T10:07:31Z</time>
      </trkpt>
      <trkpt lat="44.44202" lon="1.13313">
        <ele>160.2</ele>
        <time>2015-12-05T10:07:41Z</time>
      </trkpt>
      <trkpt lat="44.44201" lon="1.13326">
        <ele>160.68</ele>
        <time>2015-12-05T10:07:45Z</time>
      </trkpt>
      <trkpt lat="44.44203" lon="1.13341">
        <ele>161.64</ele>
        <time>2015-12-05T10:07:50Z</time>
      </trkpt>
      <trkpt lat="44.44202" lon="1.13357">
        <ele>159.24</ele>
        <time>2015-12-05T10:07:55Z</time>
      </trkpt>
      <trkpt lat="44.44195" lon="1.13399">
        <ele>154.91</ele>
        <time>2015-12-05T10:08:05Z</time>
      </trkpt>
      <trkpt lat="44.44178" lon="1.13443">
        <ele>152.51</ele>
        <time>2015-12-05T10:08:15Z</time>
      </trkpt>
      <trkpt lat="44.44164" lon="1.13505">
        <ele>147.7</ele>
        <time>2015-12-05T10:08:26Z</time>
      </trkpt>
      <trkpt lat="44.44147" lon="1.13559">
        <ele>150.1</ele>
        <time>2015-12-05T10:08:37Z</time>
      </trkpt>
      <trkpt lat="44.44135" lon="1.13614">
        <ele>145.78</ele>
        <time>2015-12-05T10:08:50Z</time>
      </trkpt>
      <trkpt lat="44.44121" lon="1.1366">
        <ele>140.49</ele>
        <time>2015-12-05T10:09:00Z</time>
      </trkpt>
      <trkpt lat="44.44094" lon="1.13683">
        <ele>139.53</ele>
        <time>2015-12-05T10:09:11Z</time>
      </trkpt>
      <trkpt lat="44.44093" lon="1.13692">
        <ele>138.09</ele>
        <time>2015-12-05T10:09:17Z</time>
      </trkpt>
      <trkpt lat="44.44106" lon="1.13699">
        <ele>134.72</ele>
        <time>2015-12-05T10:09:30Z</time>
      </trkpt>
      <trkpt lat="44.4411" lon="1.13701">
        <ele>133.76</ele>
        <time>2015-12-05T10:09:41Z</time>
      </trkpt>
      <trkpt lat="44.44111" lon="1.13702">
        <ele>131.84</ele>
        <time>2015-12-05T10:09:56Z</time>
      </trkpt>
      <trkpt lat="44.4411" lon="1.13704">
        <ele>130.88</ele>
        <time>2015-12-05T10:10:12Z</time>
      </trkpt>
      <trkpt lat="44.44096" lon="1.13714">
        <ele>128.95</ele>
        <time>2015-12-05T10:10:22Z</time>
      </trkpt>
      <trkpt lat="44.44085" lon="1.13715">
        <ele>127.99</ele>
        <time>2015-12-05T10:10:27Z</time>
      </trkpt>
      <trkpt lat="44.44073" lon="1.13702">
        <ele>128.47</ele>
        <time>2015-12-05T10:10:31Z</time>
      </trkpt>
      <trkpt lat="44.4407" lon="1.13699">
        <ele>128.47</ele>
        <time>2015-12-05T10:10:32Z</time>
      </trkpt>
      <trkpt lat="44.44067" lon="1.13695">
        <ele>128.47</ele>
        <time>2015-12-05T10:10:33Z</time>
      </trkpt>
      <trkpt lat="44.44065" lon="1.13692">
        <ele>128.47</ele>
        <time>2015-12-05T10:10:34Z</time>
      </trkpt>
      <trkpt lat="44.44062" lon="1.13689">
        <ele>127.99</ele>
        <time>2015-12-05T10:10:35Z</time>
      </trkpt>
      <trkpt lat="44.44059" lon="1.13684">
        <ele>128.47</ele>
        <time>2015-12-05T10:10:45Z</time>
      </trkpt>
      <trkpt lat="44.44058" lon="1.13684">
        <ele>128.95</ele>
        <time>2015-12-05T10:11:04Z</time>
      </trkpt>
      <trkpt lat="44.44057" lon="1.13685">
        <ele>128.47</ele>
        <time>2015-12-05T10:11:29Z</time>
      </trkpt>
      <trkpt lat="44.44057" lon="1.13684">
        <ele>128.47</ele>
        <time>2015-12-05T10:11:51Z</time>
      </trkpt>
      <trkpt lat="44.44054" lon="1.13677">
        <ele>128.47</ele>
        <time>2015-12-05T10:12:12Z</time>
      </trkpt>
      <trkpt lat="44.44038" lon="1.13646">
        <ele>129.43</ele>
        <time>2015-12-05T10:12:26Z</time>
      </trkpt>
      <trkpt lat="44.44016" lon="1.13612">
        <ele>126.55</ele>
        <time>2015-12-05T10:12:37Z</time>
      </trkpt>
      <trkpt lat="44.43988" lon="1.13574">
        <ele>124.63</ele>
        <time>2015-12-05T10:12:49Z</time>
      </trkpt>
      <trkpt lat="44.43958" lon="1.13539">
        <ele>122.71</ele>
        <time>2015-12-05T10:13:01Z</time>
      </trkpt>
      <trkpt lat="44.43936" lon="1.13509">
        <ele>118.38</ele>
        <time>2015-12-05T10:13:13Z</time>
      </trkpt>
      <trkpt lat="44.4391" lon="1.13477">
        <ele>119.34</ele>
        <time>2015-12-05T10:13:25Z</time>
      </trkpt>
      <trkpt lat="44.43907" lon="1.13476">
        <ele>119.34</ele>
        <time>2015-12-05T10:13:26Z</time>
      </trkpt>
      <trkpt lat="44.43896" lon="1.13487">
        <ele>119.82</ele>
        <time>2015-12-05T10:13:30Z</time>
      </trkpt>
      <trkpt lat="44.43869" lon="1.13534">
        <ele>119.82</ele>
        <time>2015-12-05T10:13:44Z</time>
      </trkpt>
      <trkpt lat="44.43847" lon="1.1357">
        <ele>123.19</ele>
        <time>2015-12-05T10:13:56Z</time>
      </trkpt>
      <trkpt lat="44.43833" lon="1.136">
        <ele>125.11</ele>
        <time>2015-12-05T10:14:06Z</time>
      </trkpt>
      <trkpt lat="44.43833" lon="1.13603">
        <ele>125.59</ele>
        <time>2015-12-05T10:14:07Z</time>
      </trkpt>
      <trkpt lat="44.43848" lon="1.13648">
        <ele>131.84</ele>
        <time>2015-12-05T10:14:19Z</time>
      </trkpt>
      <trkpt lat="44.43849" lon="1.13656">
        <ele>132.8</ele>
        <time>2015-12-05T10:14:21Z</time>
      </trkpt>
      <trkpt lat="44.43849" lon="1.13658">
        <ele>132.8</ele>
        <time>2015-12-05T10:14:22Z</time>
      </trkpt>
      <trkpt lat="44.43847" lon="1.1366">
        <ele>132.8</ele>
        <time>2015-12-05T10:14:23Z</time>
      </trkpt>
      <trkpt lat="44.43845" lon="1.1366">
        <ele>132.32</ele>
        <time>2015-12-05T10:14:24Z</time>
      </trkpt>
      <trkpt lat="44.43843" lon="1.13658">
        <ele>131.84</ele>
        <time>2015-12-05T10:14:25Z</time>
      </trkpt>
      <trkpt lat="44.43841" lon="1.13654">
        <ele>131.84</ele>
        <time>2015-12-05T10:14:26Z</time>
      </trkpt>
      <trkpt lat="44.43839" lon="1.1365">
        <ele>131.36</ele>
        <time>2015-12-05T10:14:27Z</time>
      </trkpt>
      <trkpt lat="44.43837" lon="1.13648">
        <ele>130.88</ele>
        <time>2015-12-05T10:14:28Z</time>
      </trkpt>
      <trkpt lat="44.43835" lon="1.13646">
        <ele>130.4</ele>
        <time>2015-12-05T10:14:29Z</time>
      </trkpt>
      <trkpt lat="44.43807" lon="1.13616">
        <ele>128.47</ele>
        <time>2015-12-05T10:14:42Z</time>
      </trkpt>
      <trkpt lat="44.4377" lon="1.1357">
        <ele>129.43</ele>
        <time>2015-12-05T10:14:56Z</time>
      </trkpt>
      <trkpt lat="44.43748" lon="1.13546">
        <ele>130.4</ele>
        <time>2015-12-05T10:15:04Z</time>
      </trkpt>
      <trkpt lat="44.43701" lon="1.13522">
        <ele>131.36</ele>
        <time>2015-12-05T10:15:17Z</time>
      </trkpt>
      <trkpt lat="44.43692" lon="1.13521">
        <ele>130.88</ele>
        <time>2015-12-05T10:15:19Z</time>
      </trkpt>
      <trkpt lat="44.43644" lon="1.13523">
        <ele>130.88</ele>
        <time>2015-12-05T10:15:32Z</time>
      </trkpt>
      <trkpt lat="44.43598" lon="1.13542">
        <ele>131.36</ele>
        <time>2015-12-05T10:15:46Z</time>
      </trkpt>
      <trkpt lat="44.4354" lon="1.13572">
        <ele>131.36</ele>
        <time>2015-12-05T10:16:02Z</time>
      </trkpt>
      <trkpt lat="44.4351" lon="1.13583">
        <ele>130.88</ele>
        <time>2015-12-05T10:16:13Z</time>
      </trkpt>
      <trkpt lat="44.43508" lon="1.13586">
        <ele>130.88</ele>
        <time>2015-12-05T10:16:14Z</time>
      </trkpt>
      <trkpt lat="44.43508" lon="1.1359">
        <ele>130.88</ele>
        <time>2015-12-05T10:16:15Z</time>
      </trkpt>
      <trkpt lat="44.43509" lon="1.13594">
        <ele>130.88</ele>
        <time>2015-12-05T10:16:16Z</time>
      </trkpt>
      <trkpt lat="44.4351" lon="1.13596">
        <ele>131.36</ele>
        <time>2015-12-05T10:16:17Z</time>
      </trkpt>
      <trkpt lat="44.43513" lon="1.13597">
        <ele>131.36</ele>
        <time>2015-12-05T10:16:18Z</time>
      </trkpt>
      <trkpt lat="44.43515" lon="1.13598">
        <ele>131.84</ele>
        <time>2015-12-05T10:16:19Z</time>
      </trkpt>
      <trkpt lat="44.43516" lon="1.13599">
        <ele>132.32</ele>
        <time>2015-12-05T10:16:20Z</time>
      </trkpt>
      <trkpt lat="44.43518" lon="1.13599">
        <ele>132.8</ele>
        <time>2015-12-05T10:16:21Z</time>
      </trkpt>
      <trkpt lat="44.4352" lon="1.13598">
        <ele>133.28</ele>
        <time>2015-12-05T10:16:22Z</time>
      </trkpt>
      <trkpt lat="44.43523" lon="1.13598">
        <ele>133.28</ele>
        <time>2015-12-05T10:16:23Z</time>
      </trkpt>
      <trkpt lat="44.43525" lon="1.13598">
        <ele>133.76</ele>
        <time>2015-12-05T10:16:24Z</time>
      </trkpt>
      <trkpt lat="44.43527" lon="1.13597">
        <ele>133.76</ele>
        <time>2015-12-05T10:16:25Z</time>
      </trkpt>
      <trkpt lat="44.43536" lon="1.13593">
        <ele>135.68</ele>
        <time>2015-12-05T10:16:30Z</time>
      </trkpt>
      <trkpt lat="44.43538" lon="1.13593">
        <ele>136.16</ele>
        <time>2015-12-05T10:16:31Z</time>
      </trkpt>
      <trkpt lat="44.4354" lon="1.13593">
        <ele>136.64</ele>
        <time>2015-12-05T10:16:32Z</time>
      </trkpt>
      <trkpt lat="44.43541" lon="1.13592">
        <ele>137.13</ele>
        <time>2015-12-05T10:16:33Z</time>
      </trkpt>
      <trkpt lat="44.43543" lon="1.13591">
        <ele>137.61</ele>
        <time>2015-12-05T10:16:34Z</time>
      </trkpt>
      <trkpt lat="44.43545" lon="1.13591">
        <ele>138.57</ele>
        <time>2015-12-05T10:16:35Z</time>
      </trkpt>
      <trkpt lat="44.43547" lon="1.1359">
        <ele>139.53</ele>
        <time>2015-12-05T10:16:36Z</time>
      </trkpt>
      <trkpt lat="44.43549" lon="1.13589">
        <ele>140.01</ele>
        <time>2015-12-05T10:16:37Z</time>
      </trkpt>
      <trkpt lat="44.43551" lon="1.13588">
        <ele>140.97</ele>
        <time>2015-12-05T10:16:38Z</time>
      </trkpt>
      <trkpt lat="44.43553" lon="1.13587">
        <ele>141.93</ele>
        <time>2015-12-05T10:16:39Z</time>
      </trkpt>
      <trkpt lat="44.43556" lon="1.13586">
        <ele>142.41</ele>
        <time>2015-12-05T10:16:40Z</time>
      </trkpt>
      <trkpt lat="44.43558" lon="1.13586">
        <ele>142.41</ele>
        <time>2015-12-05T10:16:41Z</time>
      </trkpt>
      <trkpt lat="44.43559" lon="1.13586">
        <ele>143.37</ele>
        <time>2015-12-05T10:16:42Z</time>
      </trkpt>
      <trkpt lat="44.43561" lon="1.13585">
        <ele>143.85</ele>
        <time>2015-12-05T10:16:43Z</time>
      </trkpt>
      <trkpt lat="44.43563" lon="1.13585">
        <ele>144.82</ele>
        <time>2015-12-05T10:16:44Z</time>
      </trkpt>
      <trkpt lat="44.43572" lon="1.13583">
        <ele>147.22</ele>
        <time>2015-12-05T10:16:48Z</time>
      </trkpt>
      <trkpt lat="44.43573" lon="1.13583">
        <ele>147.7</ele>
        <time>2015-12-05T10:16:49Z</time>
      </trkpt>
      <trkpt lat="44.436" lon="1.13579">
        <ele>153.47</ele>
        <time>2015-12-05T10:17:02Z</time>
      </trkpt>
      <trkpt lat="44.43619" lon="1.13587">
        <ele>156.83</ele>
        <time>2015-12-05T10:17:12Z</time>
      </trkpt>
      <trkpt lat="44.43622" lon="1.13596">
        <ele>156.83</ele>
        <time>2015-12-05T10:17:16Z</time>
      </trkpt>
      <trkpt lat="44.43621" lon="1.13598">
        <ele>156.83</ele>
        <time>2015-12-05T10:17:17Z</time>
      </trkpt>
      <trkpt lat="44.4362" lon="1.136">
        <ele>156.83</ele>
        <time>2015-12-05T10:17:18Z</time>
      </trkpt>
      <trkpt lat="44.436" lon="1.13619">
        <ele>159.24</ele>
        <time>2015-12-05T10:17:30Z</time>
      </trkpt>
      <trkpt lat="44.43572" lon="1.13639">
        <ele>159.72</ele>
        <time>2015-12-05T10:17:43Z</time>
      </trkpt>
      <trkpt lat="44.43545" lon="1.13651">
        <ele>160.68</ele>
        <time>2015-12-05T10:17:54Z</time>
      </trkpt>
      <trkpt lat="44.43509" lon="1.13684">
        <ele>159.72</ele>
        <time>2015-12-05T10:18:09Z</time>
      </trkpt>
      <trkpt lat="44.43494" lon="1.13731">
        <ele>161.64</ele>
        <time>2015-12-05T10:18:22Z</time>
      </trkpt>
      <trkpt lat="44.43478" lon="1.13782">
        <ele>165.48</ele>
        <time>2015-12-05T10:18:36Z</time>
      </trkpt>
      <trkpt lat="44.43477" lon="1.13833">
        <ele>171.25</ele>
        <time>2015-12-05T10:18:51Z</time>
      </trkpt>
      <trkpt lat="44.43477" lon="1.13874">
        <ele>174.62</ele>
        <time>2015-12-05T10:19:04Z</time>
      </trkpt>
      <trkpt lat="44.43472" lon="1.1391">
        <ele>177.02</ele>
        <time>2015-12-05T10:19:16Z</time>
      </trkpt>
      <trkpt lat="44.43435" lon="1.13937">
        <ele>179.42</ele>
        <time>2015-12-05T10:19:31Z</time>
      </trkpt>
      <trkpt lat="44.43405" lon="1.13952">
        <ele>180.38</ele>
        <time>2015-12-05T10:19:42Z</time>
      </trkpt>
      <trkpt lat="44.43378" lon="1.13962">
        <ele>182.79</ele>
        <time>2015-12-05T10:19:53Z</time>
      </trkpt>
      <trkpt lat="44.43344" lon="1.13986">
        <ele>184.23</ele>
        <time>2015-12-05T10:20:08Z</time>
      </trkpt>
      <trkpt lat="44.43311" lon="1.13992">
        <ele>183.75</ele>
        <time>2015-12-05T10:20:20Z</time>
      </trkpt>
      <trkpt lat="44.4327" lon="1.13991">
        <ele>187.11</ele>
        <time>2015-12-05T10:20:37Z</time>
      </trkpt>
      <trkpt lat="44.43242" lon="1.13998">
        <ele>190</ele>
        <time>2015-12-05T10:20:48Z</time>
      </trkpt>
      <trkpt lat="44.43211" lon="1.14022">
        <ele>191.92</ele>
        <time>2015-12-05T10:21:02Z</time>
      </trkpt>
      <trkpt lat="44.43185" lon="1.14048">
        <ele>194.8</ele>
        <time>2015-12-05T10:21:15Z</time>
      </trkpt>
      <trkpt lat="44.4316" lon="1.14074">
        <ele>198.17</ele>
        <time>2015-12-05T10:21:28Z</time>
      </trkpt>
      <trkpt lat="44.4314" lon="1.14101">
        <ele>200.57</ele>
        <time>2015-12-05T10:21:40Z</time>
      </trkpt>
      <trkpt lat="44.43134" lon="1.14111">
        <ele>200.09</ele>
        <time>2015-12-05T10:21:52Z</time>
      </trkpt>
      <trkpt lat="44.43134" lon="1.14112">
        <ele>199.61</ele>
        <time>2015-12-05T10:22:12Z</time>
      </trkpt>
      <trkpt lat="44.43134" lon="1.14113">
        <ele>199.13</ele>
        <time>2015-12-05T10:22:30Z</time>
      </trkpt>
      <trkpt lat="44.43133" lon="1.14116">
        <ele>199.13</ele>
        <time>2015-12-05T10:22:44Z</time>
      </trkpt>
      <trkpt lat="44.43132" lon="1.14117">
        <ele>198.17</ele>
        <time>2015-12-05T10:23:05Z</time>
      </trkpt>
      <trkpt lat="44.43133" lon="1.14119">
        <ele>198.65</ele>
        <time>2015-12-05T10:23:34Z</time>
      </trkpt>
      <trkpt lat="44.43133" lon="1.14118">
        <ele>198.17</ele>
        <time>2015-12-05T10:23:49Z</time>
      </trkpt>
      <trkpt lat="44.43133" lon="1.14117">
        <ele>197.69</ele>
        <time>2015-12-05T10:24:10Z</time>
      </trkpt>
      <trkpt lat="44.43122" lon="1.14135">
        <ele>197.69</ele>
        <time>2015-12-05T10:24:27Z</time>
      </trkpt>
      <trkpt lat="44.43113" lon="1.14152">
        <ele>197.21</ele>
        <time>2015-12-05T10:24:31Z</time>
      </trkpt>
      <trkpt lat="44.431" lon="1.1417">
        <ele>197.21</ele>
        <time>2015-12-05T10:24:35Z</time>
      </trkpt>
      <trkpt lat="44.43058" lon="1.14193">
        <ele>199.13</ele>
        <time>2015-12-05T10:24:48Z</time>
      </trkpt>
      <trkpt lat="44.43016" lon="1.1422">
        <ele>199.61</ele>
        <time>2015-12-05T10:25:01Z</time>
      </trkpt>
      <trkpt lat="44.42973" lon="1.14263">
        <ele>200.57</ele>
        <time>2015-12-05T10:25:16Z</time>
      </trkpt>
      <trkpt lat="44.42942" lon="1.14298">
        <ele>200.57</ele>
        <time>2015-12-05T10:25:26Z</time>
      </trkpt>
      <trkpt lat="44.42909" lon="1.14324">
        <ele>200.09</ele>
        <time>2015-12-05T10:25:34Z</time>
      </trkpt>
      <trkpt lat="44.42843" lon="1.14362">
        <ele>199.13</ele>
        <time>2015-12-05T10:25:48Z</time>
      </trkpt>
      <trkpt lat="44.42812" lon="1.1438">
        <ele>199.61</ele>
        <time>2015-12-05T10:25:55Z</time>
      </trkpt>
      <trkpt lat="44.42776" lon="1.14388">
        <ele>197.69</ele>
        <time>2015-12-05T10:26:03Z</time>
      </trkpt>
      <trkpt lat="44.42765" lon="1.14411">
        <ele>197.21</ele>
        <time>2015-12-05T10:26:08Z</time>
      </trkpt>
      <trkpt lat="44.42763" lon="1.1444">
        <ele>197.69</ele>
        <time>2015-12-05T10:26:13Z</time>
      </trkpt>
      <trkpt lat="44.42754" lon="1.14487">
        <ele>195.77</ele>
        <time>2015-12-05T10:26:24Z</time>
      </trkpt>
      <trkpt lat="44.42743" lon="1.14534">
        <ele>191.92</ele>
        <time>2015-12-05T10:26:31Z</time>
      </trkpt>
      <trkpt lat="44.42742" lon="1.14548">
        <ele>190.48</ele>
        <time>2015-12-05T10:26:33Z</time>
      </trkpt>
      <trkpt lat="44.42742" lon="1.14555">
        <ele>189.52</ele>
        <time>2015-12-05T10:26:34Z</time>
      </trkpt>
      <trkpt lat="44.42744" lon="1.14563">
        <ele>189.04</ele>
        <time>2015-12-05T10:26:35Z</time>
      </trkpt>
      <trkpt lat="44.42747" lon="1.14571">
        <ele>188.08</ele>
        <time>2015-12-05T10:26:36Z</time>
      </trkpt>
      <trkpt lat="44.4275" lon="1.14579">
        <ele>187.11</ele>
        <time>2015-12-05T10:26:37Z</time>
      </trkpt>
      <trkpt lat="44.42773" lon="1.1463">
        <ele>184.71</ele>
        <time>2015-12-05T10:26:47Z</time>
      </trkpt>
      <trkpt lat="44.42792" lon="1.14666">
        <ele>186.63</ele>
        <time>2015-12-05T10:26:59Z</time>
      </trkpt>
      <trkpt lat="44.42797" lon="1.1468">
        <ele>189.04</ele>
        <time>2015-12-05T10:27:06Z</time>
      </trkpt>
      <trkpt lat="44.42794" lon="1.14704">
        <ele>190.96</ele>
        <time>2015-12-05T10:27:20Z</time>
      </trkpt>
      <trkpt lat="44.428" lon="1.14719">
        <ele>192.4</ele>
        <time>2015-12-05T10:27:28Z</time>
      </trkpt>
      <trkpt lat="44.42802" lon="1.14726">
        <ele>194.8</ele>
        <time>2015-12-05T10:27:32Z</time>
      </trkpt>
      <trkpt lat="44.42805" lon="1.14748">
        <ele>197.69</ele>
        <time>2015-12-05T10:27:44Z</time>
      </trkpt>
      <trkpt lat="44.42802" lon="1.14759">
        <ele>198.65</ele>
        <time>2015-12-05T10:27:51Z</time>
      </trkpt>
      <trkpt lat="44.42791" lon="1.1478">
        <ele>200.57</ele>
        <time>2015-12-05T10:28:06Z</time>
      </trkpt>
      <trkpt lat="44.42788" lon="1.14795">
        <ele>202.98</ele>
        <time>2015-12-05T10:28:16Z</time>
      </trkpt>
      <trkpt lat="44.42787" lon="1.14808">
        <ele>205.86</ele>
        <time>2015-12-05T10:28:28Z</time>
      </trkpt>
      <trkpt lat="44.42787" lon="1.1481">
        <ele>205.86</ele>
        <time>2015-12-05T10:28:40Z</time>
      </trkpt>
      <trkpt lat="44.42792" lon="1.1482">
        <ele>209.22</ele>
        <time>2015-12-05T10:28:55Z</time>
      </trkpt>
      <trkpt lat="44.42797" lon="1.14835">
        <ele>213.55</ele>
        <time>2015-12-05T10:29:13Z</time>
      </trkpt>
      <trkpt lat="44.42799" lon="1.14843">
        <ele>215.95</ele>
        <time>2015-12-05T10:29:26Z</time>
      </trkpt>
      <trkpt lat="44.428" lon="1.14856">
        <ele>219.8</ele>
        <time>2015-12-05T10:29:41Z</time>
      </trkpt>
      <trkpt lat="44.428" lon="1.14857">
        <ele>219.8</ele>
        <time>2015-12-05T10:29:42Z</time>
      </trkpt>
      <trkpt lat="44.428" lon="1.14868">
        <ele>222.2</ele>
        <time>2015-12-05T10:29:58Z</time>
      </trkpt>
      <trkpt lat="44.428" lon="1.14869">
        <ele>222.68</ele>
        <time>2015-12-05T10:30:17Z</time>
      </trkpt>
      <trkpt lat="44.42798" lon="1.1487">
        <ele>222.2</ele>
        <time>2015-12-05T10:30:40Z</time>
      </trkpt>
      <trkpt lat="44.42794" lon="1.14872">
        <ele>221.72</ele>
        <time>2015-12-05T10:30:51Z</time>
      </trkpt>
      <trkpt lat="44.42794" lon="1.14873">
        <ele>221.24</ele>
        <time>2015-12-05T10:31:06Z</time>
      </trkpt>
      <trkpt lat="44.42787" lon="1.1488">
        <ele>221.72</ele>
        <time>2015-12-05T10:31:20Z</time>
      </trkpt>
      <trkpt lat="44.42787" lon="1.14881">
        <ele>222.2</ele>
        <time>2015-12-05T10:31:32Z</time>
      </trkpt>
      <trkpt lat="44.42776" lon="1.14898">
        <ele>222.68</ele>
        <time>2015-12-05T10:31:46Z</time>
      </trkpt>
      <trkpt lat="44.42775" lon="1.14899">
        <ele>223.16</ele>
        <time>2015-12-05T10:31:59Z</time>
      </trkpt>
      <trkpt lat="44.42774" lon="1.14899">
        <ele>222.68</ele>
        <time>2015-12-05T10:32:17Z</time>
      </trkpt>
      <trkpt lat="44.42774" lon="1.14899">
        <ele>222.68</ele>
        <time>2015-12-05T10:32:39Z</time>
      </trkpt>
      <trkpt lat="44.42774" lon="1.14899">
        <ele>222.2</ele>
        <time>2015-12-05T10:33:07Z</time>
      </trkpt>
      <trkpt lat="44.42775" lon="1.14898">
        <ele>221.24</ele>
        <time>2015-12-05T10:33:24Z</time>
      </trkpt>
      <trkpt lat="44.42775" lon="1.14898">
        <ele>221.24</ele>
        <time>2015-12-05T10:33:48Z</time>
      </trkpt>
      <trkpt lat="44.42775" lon="1.14898">
        <ele>221.24</ele>
        <time>2015-12-05T10:34:04Z</time>
      </trkpt>
      <trkpt lat="44.42775" lon="1.14899">
        <ele>221.72</ele>
        <time>2015-12-05T10:34:39Z</time>
      </trkpt>
      <trkpt lat="44.42775" lon="1.149">
        <ele>222.2</ele>
        <time>2015-12-05T10:35:11Z</time>
      </trkpt>
      <trkpt lat="44.42776" lon="1.149">
        <ele>223.16</ele>
        <time>2015-12-05T10:35:41Z</time>
      </trkpt>
      <trkpt lat="44.42775" lon="1.14901">
        <ele>223.64</ele>
        <time>2015-12-05T10:36:20Z</time>
      </trkpt>
      <trkpt lat="44.42775" lon="1.14901">
        <ele>223.16</ele>
        <time>2015-12-05T10:36:47Z</time>
      </trkpt>
      <trkpt lat="44.42775" lon="1.14902">
        <ele>223.16</ele>
        <time>2015-12-05T10:37:14Z</time>
      </trkpt>
      <trkpt lat="44.42775" lon="1.14902">
        <ele>223.16</ele>
        <time>2015-12-05T10:37:51Z</time>
      </trkpt>
      <trkpt lat="44.42775" lon="1.14902">
        <ele>223.16</ele>
        <time>2015-12-05T10:38:20Z</time>
      </trkpt>
      <trkpt lat="44.42774" lon="1.14902">
        <ele>224.12</ele>
        <time>2015-12-05T10:38:53Z</time>
      </trkpt>
      <trkpt lat="44.42774" lon="1.14902">
        <ele>223.64</ele>
        <time>2015-12-05T10:39:09Z</time>
      </trkpt>
      <trkpt lat="44.42775" lon="1.149">
        <ele>223.16</ele>
        <time>2015-12-05T10:39:35Z</time>
      </trkpt>
      <trkpt lat="44.42773" lon="1.14901">
        <ele>222.68</ele>
        <time>2015-12-05T10:39:53Z</time>
      </trkpt>
      <trkpt lat="44.42773" lon="1.14902">
        <ele>222.68</ele>
        <time>2015-12-05T10:40:10Z</time>
      </trkpt>
      <trkpt lat="44.42764" lon="1.14909">
        <ele>223.16</ele>
        <time>2015-12-05T10:40:18Z</time>
      </trkpt>
      <trkpt lat="44.42743" lon="1.14928">
        <ele>222.68</ele>
        <time>2015-12-05T10:40:33Z</time>
      </trkpt>
      <trkpt lat="44.42739" lon="1.14932">
        <ele>223.16</ele>
        <time>2015-12-05T10:40:35Z</time>
      </trkpt>
      <trkpt lat="44.42718" lon="1.14966">
        <ele>221.24</ele>
        <time>2015-12-05T10:40:47Z</time>
      </trkpt>
      <trkpt lat="44.42707" lon="1.15004">
        <ele>220.76</ele>
        <time>2015-12-05T10:40:57Z</time>
      </trkpt>
      <trkpt lat="44.427" lon="1.15035">
        <ele>218.84</ele>
        <time>2015-12-05T10:41:06Z</time>
      </trkpt>
      <trkpt lat="44.42696" lon="1.15046">
        <ele>215.95</ele>
        <time>2015-12-05T10:41:09Z</time>
      </trkpt>
      <trkpt lat="44.42683" lon="1.15087">
        <ele>211.63</ele>
        <time>2015-12-05T10:41:19Z</time>
      </trkpt>
      <trkpt lat="44.42681" lon="1.15094">
        <ele>212.11</ele>
        <time>2015-12-05T10:41:30Z</time>
      </trkpt>
      <trkpt lat="44.42674" lon="1.15112">
        <ele>212.11</ele>
        <time>2015-12-05T10:41:40Z</time>
      </trkpt>
      <trkpt lat="44.42673" lon="1.15113">
        <ele>212.11</ele>
        <time>2015-12-05T10:41:55Z</time>
      </trkpt>
      <trkpt lat="44.4267" lon="1.15116">
        <ele>214.03</ele>
        <time>2015-12-05T10:42:09Z</time>
      </trkpt>
      <trkpt lat="44.42666" lon="1.15119">
        <ele>214.51</ele>
        <time>2015-12-05T10:42:12Z</time>
      </trkpt>
      <trkpt lat="44.42662" lon="1.15119">
        <ele>217.88</ele>
        <time>2015-12-05T10:42:23Z</time>
      </trkpt>
      <trkpt lat="44.42662" lon="1.15119">
        <ele>217.4</ele>
        <time>2015-12-05T10:42:33Z</time>
      </trkpt>
      <trkpt lat="44.42658" lon="1.15124">
        <ele>217.88</ele>
        <time>2015-12-05T10:42:37Z</time>
      </trkpt>
      <trkpt lat="44.42653" lon="1.15137">
        <ele>217.88</ele>
        <time>2015-12-05T10:42:46Z</time>
      </trkpt>
      <trkpt lat="44.42646" lon="1.15151">
        <ele>220.76</ele>
        <time>2015-12-05T10:43:00Z</time>
      </trkpt>
      <trkpt lat="44.42643" lon="1.15159">
        <ele>222.68</ele>
        <time>2015-12-05T10:43:07Z</time>
      </trkpt>
      <trkpt lat="44.42642" lon="1.15166">
        <ele>224.12</ele>
        <time>2015-12-05T10:43:12Z</time>
      </trkpt>
      <trkpt lat="44.42633" lon="1.15187">
        <ele>225.57</ele>
        <time>2015-12-05T10:43:29Z</time>
      </trkpt>
      <trkpt lat="44.42622" lon="1.15205">
        <ele>225.57</ele>
        <time>2015-12-05T10:43:41Z</time>
      </trkpt>
      <trkpt lat="44.4261" lon="1.15231">
        <ele>225.57</ele>
        <time>2015-12-05T10:43:54Z</time>
      </trkpt>
      <trkpt lat="44.42608" lon="1.15249">
        <ele>227.49</ele>
        <time>2015-12-05T10:44:06Z</time>
      </trkpt>
      <trkpt lat="44.42607" lon="1.15275">
        <ele>232.3</ele>
        <time>2015-12-05T10:44:22Z</time>
      </trkpt>
      <trkpt lat="44.42608" lon="1.15284">
        <ele>231.81</ele>
        <time>2015-12-05T10:44:35Z</time>
      </trkpt>
      <trkpt lat="44.42609" lon="1.15285">
        <ele>231.81</ele>
        <time>2015-12-05T10:44:55Z</time>
      </trkpt>
      <trkpt lat="44.42609" lon="1.15285">
        <ele>231.81</ele>
        <time>2015-12-05T10:45:18Z</time>
      </trkpt>
      <trkpt lat="44.42608" lon="1.15285">
        <ele>231.33</ele>
        <time>2015-12-05T10:45:39Z</time>
      </trkpt>
      <trkpt lat="44.42608" lon="1.15285">
        <ele>231.33</ele>
        <time>2015-12-05T10:46:05Z</time>
      </trkpt>
      <trkpt lat="44.42607" lon="1.15285">
        <ele>231.81</ele>
        <time>2015-12-05T10:46:29Z</time>
      </trkpt>
      <trkpt lat="44.42608" lon="1.15285">
        <ele>231.81</ele>
        <time>2015-12-05T10:46:48Z</time>
      </trkpt>
      <trkpt lat="44.42608" lon="1.15286">
        <ele>231.33</ele>
        <time>2015-12-05T10:47:11Z</time>
      </trkpt>
      <trkpt lat="44.42608" lon="1.15286">
        <ele>231.33</ele>
        <time>2015-12-05T10:47:35Z</time>
      </trkpt>
      <trkpt lat="44.42608" lon="1.15287">
        <ele>231.33</ele>
        <time>2015-12-05T10:47:54Z</time>
      </trkpt>
      <trkpt lat="44.42607" lon="1.15291">
        <ele>232.78</ele>
        <time>2015-12-05T10:48:18Z</time>
      </trkpt>
      <trkpt lat="44.42607" lon="1.15291">
        <ele>233.26</ele>
        <time>2015-12-05T10:48:39Z</time>
      </trkpt>
      <trkpt lat="44.42607" lon="1.15293">
        <ele>232.78</ele>
        <time>2015-12-05T10:48:44Z</time>
      </trkpt>
      <trkpt lat="44.42601" lon="1.15312">
        <ele>232.78</ele>
        <time>2015-12-05T10:48:53Z</time>
      </trkpt>
      <trkpt lat="44.42594" lon="1.15338">
        <ele>235.66</ele>
        <time>2015-12-05T10:49:05Z</time>
      </trkpt>
      <trkpt lat="44.42587" lon="1.1535">
        <ele>238.06</ele>
        <time>2015-12-05T10:49:17Z</time>
      </trkpt>
      <trkpt lat="44.42586" lon="1.15352">
        <ele>238.06</ele>
        <time>2015-12-05T10:49:20Z</time>
      </trkpt>
      <trkpt lat="44.42579" lon="1.15386">
        <ele>240.47</ele>
        <time>2015-12-05T10:49:35Z</time>
      </trkpt>
      <trkpt lat="44.42564" lon="1.15412">
        <ele>240.47</ele>
        <time>2015-12-05T10:49:47Z</time>
      </trkpt>
      <trkpt lat="44.42553" lon="1.15426">
        <ele>239.99</ele>
        <time>2015-12-05T10:49:54Z</time>
      </trkpt>
      <trkpt lat="44.42545" lon="1.15457">
        <ele>240.47</ele>
        <time>2015-12-05T10:50:05Z</time>
      </trkpt>
      <trkpt lat="44.42541" lon="1.15466">
        <ele>239.99</ele>
        <time>2015-12-05T10:50:10Z</time>
      </trkpt>
      <trkpt lat="44.42534" lon="1.15475">
        <ele>240.95</ele>
        <time>2015-12-05T10:50:22Z</time>
      </trkpt>
      <trkpt lat="44.42533" lon="1.15476">
        <ele>240.95</ele>
        <time>2015-12-05T10:50:46Z</time>
      </trkpt>
      <trkpt lat="44.42532" lon="1.15477">
        <ele>240.47</ele>
        <time>2015-12-05T10:51:09Z</time>
      </trkpt>
      <trkpt lat="44.42533" lon="1.15477">
        <ele>239.02</ele>
        <time>2015-12-05T10:51:23Z</time>
      </trkpt>
      <trkpt lat="44.42534" lon="1.15478">
        <ele>237.58</ele>
        <time>2015-12-05T10:52:08Z</time>
      </trkpt>
      <trkpt lat="44.42535" lon="1.15478">
        <ele>237.58</ele>
        <time>2015-12-05T10:52:49Z</time>
      </trkpt>
      <trkpt lat="44.42531" lon="1.15484">
        <ele>237.58</ele>
        <time>2015-12-05T10:53:07Z</time>
      </trkpt>
      <trkpt lat="44.42508" lon="1.1551">
        <ele>234.22</ele>
        <time>2015-12-05T10:53:20Z</time>
      </trkpt>
      <trkpt lat="44.42483" lon="1.15544">
        <ele>227.01</ele>
        <time>2015-12-05T10:53:30Z</time>
      </trkpt>
      <trkpt lat="44.42479" lon="1.1555">
        <ele>226.05</ele>
        <time>2015-12-05T10:53:32Z</time>
      </trkpt>
      <trkpt lat="44.42457" lon="1.15566">
        <ele>222.68</ele>
        <time>2015-12-05T10:53:37Z</time>
      </trkpt>
      <trkpt lat="44.42442" lon="1.15574">
        <ele>221.72</ele>
        <time>2015-12-05T10:53:40Z</time>
      </trkpt>
      <trkpt lat="44.4242" lon="1.156">
        <ele>222.2</ele>
        <time>2015-12-05T10:53:48Z</time>
      </trkpt>
      <trkpt lat="44.42415" lon="1.15606">
        <ele>223.64</ele>
        <time>2015-12-05T10:53:59Z</time>
      </trkpt>
      <trkpt lat="44.42415" lon="1.15607">
        <ele>223.64</ele>
        <time>2015-12-05T10:54:14Z</time>
      </trkpt>
      <trkpt lat="44.42415" lon="1.15608">
        <ele>223.64</ele>
        <time>2015-12-05T10:54:41Z</time>
      </trkpt>
      <trkpt lat="44.42415" lon="1.15608">
        <ele>224.12</ele>
        <time>2015-12-05T10:55:09Z</time>
      </trkpt>
      <trkpt lat="44.42415" lon="1.15608">
        <ele>224.61</ele>
        <time>2015-12-05T10:55:35Z</time>
      </trkpt>
      <trkpt lat="44.42412" lon="1.15615">
        <ele>225.09</ele>
        <time>2015-12-05T10:56:01Z</time>
      </trkpt>
      <trkpt lat="44.42397" lon="1.15639">
        <ele>225.57</ele>
        <time>2015-12-05T10:56:12Z</time>
      </trkpt>
      <trkpt lat="44.42386" lon="1.15666">
        <ele>224.61</ele>
        <time>2015-12-05T10:56:22Z</time>
      </trkpt>
      <trkpt lat="44.42385" lon="1.15667">
        <ele>224.61</ele>
        <time>2015-12-05T10:56:23Z</time>
      </trkpt>
      <trkpt lat="44.42369" lon="1.15693">
        <ele>225.57</ele>
        <time>2015-12-05T10:56:36Z</time>
      </trkpt>
      <trkpt lat="44.42351" lon="1.15721">
        <ele>228.93</ele>
        <time>2015-12-05T10:56:52Z</time>
      </trkpt>
      <trkpt lat="44.42335" lon="1.15745">
        <ele>231.81</ele>
        <time>2015-12-05T10:57:04Z</time>
      </trkpt>
      <trkpt lat="44.42321" lon="1.15766">
        <ele>233.26</ele>
        <time>2015-12-05T10:57:14Z</time>
      </trkpt>
      <trkpt lat="44.42317" lon="1.15773">
        <ele>234.7</ele>
        <time>2015-12-05T10:57:18Z</time>
      </trkpt>
      <trkpt lat="44.42304" lon="1.15803">
        <ele>238.06</ele>
        <time>2015-12-05T10:57:33Z</time>
      </trkpt>
      <trkpt lat="44.42303" lon="1.15832">
        <ele>236.62</ele>
        <time>2015-12-05T10:57:42Z</time>
      </trkpt>
      <trkpt lat="44.423" lon="1.1585">
        <ele>237.1</ele>
        <time>2015-12-05T10:57:50Z</time>
      </trkpt>
      <trkpt lat="44.42298" lon="1.15866">
        <ele>239.02</ele>
        <time>2015-12-05T10:57:57Z</time>
      </trkpt>
      <trkpt lat="44.42296" lon="1.1588">
        <ele>239.99</ele>
        <time>2015-12-05T10:58:10Z</time>
      </trkpt>
      <trkpt lat="44.42295" lon="1.15883">
        <ele>239.51</ele>
        <time>2015-12-05T10:58:17Z</time>
      </trkpt>
      <trkpt lat="44.42286" lon="1.15912">
        <ele>241.91</ele>
        <time>2015-12-05T10:58:32Z</time>
      </trkpt>
      <trkpt lat="44.4227" lon="1.1594">
        <ele>244.31</ele>
        <time>2015-12-05T10:58:48Z</time>
      </trkpt>
      <trkpt lat="44.42259" lon="1.15972">
        <ele>246.23</ele>
        <time>2015-12-05T10:59:02Z</time>
      </trkpt>
      <trkpt lat="44.42243" lon="1.16008">
        <ele>248.64</ele>
        <time>2015-12-05T10:59:16Z</time>
      </trkpt>
      <trkpt lat="44.42224" lon="1.16031">
        <ele>248.64</ele>
        <time>2015-12-05T10:59:29Z</time>
      </trkpt>
      <trkpt lat="44.42219" lon="1.16035">
        <ele>246.23</ele>
        <time>2015-12-05T10:59:45Z</time>
      </trkpt>
      <trkpt lat="44.4222" lon="1.16035">
        <ele>245.27</ele>
        <time>2015-12-05T11:00:18Z</time>
      </trkpt>
      <trkpt lat="44.42219" lon="1.16034">
        <ele>244.79</ele>
        <time>2015-12-05T11:00:42Z</time>
      </trkpt>
      <trkpt lat="44.42223" lon="1.16034">
        <ele>245.75</ele>
        <time>2015-12-05T11:00:57Z</time>
      </trkpt>
      <trkpt lat="44.42224" lon="1.16036">
        <ele>244.79</ele>
        <time>2015-12-05T11:01:11Z</time>
      </trkpt>
      <trkpt lat="44.42223" lon="1.16036">
        <ele>245.27</ele>
        <time>2015-12-05T11:01:29Z</time>
      </trkpt>
      <trkpt lat="44.42223" lon="1.16036">
        <ele>244.79</ele>
        <time>2015-12-05T11:01:44Z</time>
      </trkpt>
      <trkpt lat="44.42223" lon="1.16036">
        <ele>245.75</ele>
        <time>2015-12-05T11:02:00Z</time>
      </trkpt>
      <trkpt lat="44.4222" lon="1.16039">
        <ele>245.75</ele>
        <time>2015-12-05T11:02:04Z</time>
      </trkpt>
      <trkpt lat="44.42217" lon="1.16075">
        <ele>246.72</ele>
        <time>2015-12-05T11:02:20Z</time>
      </trkpt>
      <trkpt lat="44.4221" lon="1.16147">
        <ele>247.2</ele>
        <time>2015-12-05T11:02:36Z</time>
      </trkpt>
      <trkpt lat="44.42203" lon="1.16202">
        <ele>246.72</ele>
        <time>2015-12-05T11:02:49Z</time>
      </trkpt>
      <trkpt lat="44.42195" lon="1.16254">
        <ele>246.23</ele>
        <time>2015-12-05T11:03:01Z</time>
      </trkpt>
      <trkpt lat="44.42182" lon="1.1632">
        <ele>247.2</ele>
        <time>2015-12-05T11:03:15Z</time>
      </trkpt>
      <trkpt lat="44.42166" lon="1.16399">
        <ele>248.64</ele>
        <time>2015-12-05T11:03:31Z</time>
      </trkpt>
      <trkpt lat="44.42154" lon="1.16455">
        <ele>249.6</ele>
        <time>2015-12-05T11:03:43Z</time>
      </trkpt>
      <trkpt lat="44.42133" lon="1.1652">
        <ele>248.64</ele>
        <time>2015-12-05T11:03:57Z</time>
      </trkpt>
      <trkpt lat="44.42112" lon="1.16576">
        <ele>249.6</ele>
        <time>2015-12-05T11:04:10Z</time>
      </trkpt>
      <trkpt lat="44.42091" lon="1.16623">
        <ele>251.04</ele>
        <time>2015-12-05T11:04:22Z</time>
      </trkpt>
      <trkpt lat="44.42065" lon="1.16681">
        <ele>251.04</ele>
        <time>2015-12-05T11:04:34Z</time>
      </trkpt>
      <trkpt lat="44.42039" lon="1.16724">
        <ele>250.08</ele>
        <time>2015-12-05T11:04:47Z</time>
      </trkpt>
      <trkpt lat="44.42035" lon="1.16733">
        <ele>250.56</ele>
        <time>2015-12-05T11:05:00Z</time>
      </trkpt>
      <trkpt lat="44.42034" lon="1.16755">
        <ele>250.56</ele>
        <time>2015-12-05T11:05:17Z</time>
      </trkpt>
      <trkpt lat="44.42048" lon="1.16787">
        <ele>249.6</ele>
        <time>2015-12-05T11:05:27Z</time>
      </trkpt>
      <trkpt lat="44.42089" lon="1.16859">
        <ele>250.56</ele>
        <time>2015-12-05T11:05:43Z</time>
      </trkpt>
      <trkpt lat="44.421" lon="1.16879">
        <ele>250.08</ele>
        <time>2015-12-05T11:05:47Z</time>
      </trkpt>
      <trkpt lat="44.42113" lon="1.16899">
        <ele>249.6</ele>
        <time>2015-12-05T11:05:51Z</time>
      </trkpt>
      <trkpt lat="44.42127" lon="1.16919">
        <ele>248.64</ele>
        <time>2015-12-05T11:05:55Z</time>
      </trkpt>
      <trkpt lat="44.42138" lon="1.16932">
        <ele>248.64</ele>
        <time>2015-12-05T11:05:58Z</time>
      </trkpt>
      <trkpt lat="44.42199" lon="1.16982">
        <ele>249.6</ele>
        <time>2015-12-05T11:06:14Z</time>
      </trkpt>
      <trkpt lat="44.42247" lon="1.17018">
        <ele>249.6</ele>
        <time>2015-12-05T11:06:28Z</time>
      </trkpt>
      <trkpt lat="44.42274" lon="1.17031">
        <ele>249.12</ele>
        <time>2015-12-05T11:06:37Z</time>
      </trkpt>
      <trkpt lat="44.42276" lon="1.17032">
        <ele>249.12</ele>
        <time>2015-12-05T11:06:43Z</time>
      </trkpt>
      <trkpt lat="44.42277" lon="1.17032">
        <ele>249.12</ele>
        <time>2015-12-05T11:06:44Z</time>
      </trkpt>
      <trkpt lat="44.42278" lon="1.17033">
        <ele>248.64</ele>
        <time>2015-12-05T11:06:45Z</time>
      </trkpt>
      <trkpt lat="44.42279" lon="1.17034">
        <ele>248.64</ele>
        <time>2015-12-05T11:06:46Z</time>
      </trkpt>
      <trkpt lat="44.42298" lon="1.17037">
        <ele>247.68</ele>
        <time>2015-12-05T11:06:53Z</time>
      </trkpt>
      <trkpt lat="44.42348" lon="1.17055">
        <ele>248.16</ele>
        <time>2015-12-05T11:07:07Z</time>
      </trkpt>
      <trkpt lat="44.42392" lon="1.17069">
        <ele>249.6</ele>
        <time>2015-12-05T11:07:22Z</time>
      </trkpt>
      <trkpt lat="44.42409" lon="1.17074">
        <ele>250.08</ele>
        <time>2015-12-05T11:07:26Z</time>
      </trkpt>
      <trkpt lat="44.4243" lon="1.17081">
        <ele>250.08</ele>
        <time>2015-12-05T11:07:31Z</time>
      </trkpt>
      <trkpt lat="44.42434" lon="1.17082">
        <ele>250.08</ele>
        <time>2015-12-05T11:07:32Z</time>
      </trkpt>
      <trkpt lat="44.42437" lon="1.17083">
        <ele>250.08</ele>
        <time>2015-12-05T11:07:33Z</time>
      </trkpt>
      <trkpt lat="44.42441" lon="1.17084">
        <ele>250.08</ele>
        <time>2015-12-05T11:07:34Z</time>
      </trkpt>
      <trkpt lat="44.42444" lon="1.17085">
        <ele>250.08</ele>
        <time>2015-12-05T11:07:35Z</time>
      </trkpt>
      <trkpt lat="44.42479" lon="1.17098">
        <ele>252</ele>
        <time>2015-12-05T11:07:48Z</time>
      </trkpt>
      <trkpt lat="44.42521" lon="1.17112">
        <ele>253.93</ele>
        <time>2015-12-05T11:08:02Z</time>
      </trkpt>
      <trkpt lat="44.42564" lon="1.17115">
        <ele>253.93</ele>
        <time>2015-12-05T11:08:15Z</time>
      </trkpt>
      <trkpt lat="44.42611" lon="1.17096">
        <ele>254.89</ele>
        <time>2015-12-05T11:08:30Z</time>
      </trkpt>
      <trkpt lat="44.42654" lon="1.17073">
        <ele>256.81</ele>
        <time>2015-12-05T11:08:45Z</time>
      </trkpt>
      <trkpt lat="44.42661" lon="1.17069">
        <ele>257.29</ele>
        <time>2015-12-05T11:08:49Z</time>
      </trkpt>
      <trkpt lat="44.42662" lon="1.17068">
        <ele>257.77</ele>
        <time>2015-12-05T11:08:50Z</time>
      </trkpt>
      <trkpt lat="44.42664" lon="1.17068">
        <ele>257.29</ele>
        <time>2015-12-05T11:08:51Z</time>
      </trkpt>
      <trkpt lat="44.42696" lon="1.17052">
        <ele>258.25</ele>
        <time>2015-12-05T11:09:03Z</time>
      </trkpt>
      <trkpt lat="44.42732" lon="1.17031">
        <ele>258.73</ele>
        <time>2015-12-05T11:09:15Z</time>
      </trkpt>
      <trkpt lat="44.42779" lon="1.17005">
        <ele>259.21</ele>
        <time>2015-12-05T11:09:29Z</time>
      </trkpt>
      <trkpt lat="44.42838" lon="1.16977">
        <ele>259.21</ele>
        <time>2015-12-05T11:09:45Z</time>
      </trkpt>
      <trkpt lat="44.42901" lon="1.16971">
        <ele>261.62</ele>
        <time>2015-12-05T11:10:01Z</time>
      </trkpt>
      <trkpt lat="44.42951" lon="1.16977">
        <ele>264.5</ele>
        <time>2015-12-05T11:10:15Z</time>
      </trkpt>
      <trkpt lat="44.4299" lon="1.16999">
        <ele>265.94</ele>
        <time>2015-12-05T11:10:28Z</time>
      </trkpt>
      <trkpt lat="44.43038" lon="1.17028">
        <ele>266.42</ele>
        <time>2015-12-05T11:10:44Z</time>
      </trkpt>
      <trkpt lat="44.43088" lon="1.17058">
        <ele>266.9</ele>
        <time>2015-12-05T11:11:01Z</time>
      </trkpt>
      <trkpt lat="44.43135" lon="1.17097">
        <ele>265.46</ele>
        <time>2015-12-05T11:11:16Z</time>
      </trkpt>
      <trkpt lat="44.43139" lon="1.17102">
        <ele>265.46</ele>
        <time>2015-12-05T11:11:17Z</time>
      </trkpt>
      <trkpt lat="44.43196" lon="1.17177">
        <ele>263.06</ele>
        <time>2015-12-05T11:11:33Z</time>
      </trkpt>
      <trkpt lat="44.43219" lon="1.17207">
        <ele>262.58</ele>
        <time>2015-12-05T11:11:40Z</time>
      </trkpt>
      <trkpt lat="44.43222" lon="1.17212">
        <ele>262.58</ele>
        <time>2015-12-05T11:11:41Z</time>
      </trkpt>
      <trkpt lat="44.43291" lon="1.17313">
        <ele>257.29</ele>
        <time>2015-12-05T11:11:58Z</time>
      </trkpt>
      <trkpt lat="44.43344" lon="1.17379">
        <ele>253.93</ele>
        <time>2015-12-05T11:12:08Z</time>
      </trkpt>
      <trkpt lat="44.4335" lon="1.17382">
        <ele>253.93</ele>
        <time>2015-12-05T11:12:09Z</time>
      </trkpt>
      <trkpt lat="44.43356" lon="1.17385">
        <ele>253.44</ele>
        <time>2015-12-05T11:12:10Z</time>
      </trkpt>
      <trkpt lat="44.43362" lon="1.17386">
        <ele>253.44</ele>
        <time>2015-12-05T11:12:11Z</time>
      </trkpt>
      <trkpt lat="44.43368" lon="1.17386">
        <ele>253.44</ele>
        <time>2015-12-05T11:12:12Z</time>
      </trkpt>
      <trkpt lat="44.43374" lon="1.17386">
        <ele>253.44</ele>
        <time>2015-12-05T11:12:13Z</time>
      </trkpt>
      <trkpt lat="44.43399" lon="1.1738">
        <ele>253.93</ele>
        <time>2015-12-05T11:12:18Z</time>
      </trkpt>
      <trkpt lat="44.43403" lon="1.17378">
        <ele>253.93</ele>
        <time>2015-12-05T11:12:19Z</time>
      </trkpt>
      <trkpt lat="44.43408" lon="1.17377">
        <ele>253.93</ele>
        <time>2015-12-05T11:12:20Z</time>
      </trkpt>
      <trkpt lat="44.43412" lon="1.17376">
        <ele>253.93</ele>
        <time>2015-12-05T11:12:21Z</time>
      </trkpt>
      <trkpt lat="44.43415" lon="1.17375">
        <ele>253.93</ele>
        <time>2015-12-05T11:12:22Z</time>
      </trkpt>
      <trkpt lat="44.4347" lon="1.17352">
        <ele>254.89</ele>
        <time>2015-12-05T11:12:35Z</time>
      </trkpt>
      <trkpt lat="44.43479" lon="1.1735">
        <ele>255.37</ele>
        <time>2015-12-05T11:12:37Z</time>
      </trkpt>
      <trkpt lat="44.43487" lon="1.17348">
        <ele>255.85</ele>
        <time>2015-12-05T11:12:39Z</time>
      </trkpt>
      <trkpt lat="44.43516" lon="1.17337">
        <ele>256.81</ele>
        <time>2015-12-05T11:12:46Z</time>
      </trkpt>
      <trkpt lat="44.43565" lon="1.17332">
        <ele>257.77</ele>
        <time>2015-12-05T11:12:58Z</time>
      </trkpt>
      <trkpt lat="44.43615" lon="1.17354">
        <ele>260.17</ele>
        <time>2015-12-05T11:13:11Z</time>
      </trkpt>
      <trkpt lat="44.43619" lon="1.17356">
        <ele>260.65</ele>
        <time>2015-12-05T11:13:12Z</time>
      </trkpt>
      <trkpt lat="44.43641" lon="1.17367">
        <ele>261.14</ele>
        <time>2015-12-05T11:13:18Z</time>
      </trkpt>
      <trkpt lat="44.43688" lon="1.17384">
        <ele>262.1</ele>
        <time>2015-12-05T11:13:30Z</time>
      </trkpt>
      <trkpt lat="44.437" lon="1.17386">
        <ele>262.58</ele>
        <time>2015-12-05T11:13:33Z</time>
      </trkpt>
      <trkpt lat="44.43749" lon="1.17388">
        <ele>263.54</ele>
        <time>2015-12-05T11:13:44Z</time>
      </trkpt>
      <trkpt lat="44.43833" lon="1.17387">
        <ele>262.58</ele>
        <time>2015-12-05T11:14:01Z</time>
      </trkpt>
      <trkpt lat="44.43857" lon="1.17388">
        <ele>262.1</ele>
        <time>2015-12-05T11:14:06Z</time>
      </trkpt>
      <trkpt lat="44.43877" lon="1.17395">
        <ele>262.1</ele>
        <time>2015-12-05T11:14:10Z</time>
      </trkpt>
      <trkpt lat="44.43882" lon="1.17398">
        <ele>261.62</ele>
        <time>2015-12-05T11:14:11Z</time>
      </trkpt>
      <trkpt lat="44.43896" lon="1.17408">
        <ele>261.14</ele>
        <time>2015-12-05T11:14:14Z</time>
      </trkpt>
      <trkpt lat="44.439" lon="1.17412">
        <ele>261.14</ele>
        <time>2015-12-05T11:14:15Z</time>
      </trkpt>
      <trkpt lat="44.43904" lon="1.17417">
        <ele>261.14</ele>
        <time>2015-12-05T11:14:16Z</time>
      </trkpt>
      <trkpt lat="44.43943" lon="1.17469">
        <ele>261.14</ele>
        <time>2015-12-05T11:14:27Z</time>
      </trkpt>
      <trkpt lat="44.43947" lon="1.17474">
        <ele>261.14</ele>
        <time>2015-12-05T11:14:28Z</time>
      </trkpt>
      <trkpt lat="44.4395" lon="1.17478">
        <ele>261.14</ele>
        <time>2015-12-05T11:14:29Z</time>
      </trkpt>
      <trkpt lat="44.43956" lon="1.17486">
        <ele>261.14</ele>
        <time>2015-12-05T11:14:31Z</time>
      </trkpt>
      <trkpt lat="44.43974" lon="1.17513">
        <ele>260.65</ele>
        <time>2015-12-05T11:14:37Z</time>
      </trkpt>
      <trkpt lat="44.44024" lon="1.17585">
        <ele>261.14</ele>
        <time>2015-12-05T11:14:53Z</time>
      </trkpt>
      <trkpt lat="44.44028" lon="1.1759">
        <ele>261.14</ele>
        <time>2015-12-05T11:14:54Z</time>
      </trkpt>
      <trkpt lat="44.44048" lon="1.1762">
        <ele>261.62</ele>
        <time>2015-12-05T11:15:04Z</time>
      </trkpt>
      <trkpt lat="44.4405" lon="1.17623">
        <ele>261.62</ele>
        <time>2015-12-05T11:15:11Z</time>
      </trkpt>
      <trkpt lat="44.44046" lon="1.17616">
        <ele>261.62</ele>
        <time>2015-12-05T11:15:16Z</time>
      </trkpt>
      <trkpt lat="44.44045" lon="1.17614">
        <ele>261.62</ele>
        <time>2015-12-05T11:15:17Z</time>
      </trkpt>
      <trkpt lat="44.44045" lon="1.17611">
        <ele>261.62</ele>
        <time>2015-12-05T11:15:18Z</time>
      </trkpt>
      <trkpt lat="44.4405" lon="1.17606">
        <ele>261.62</ele>
        <time>2015-12-05T11:15:22Z</time>
      </trkpt>
      <trkpt lat="44.44052" lon="1.17606">
        <ele>262.1</ele>
        <time>2015-12-05T11:15:23Z</time>
      </trkpt>
      <trkpt lat="44.44062" lon="1.17611">
        <ele>262.58</ele>
        <time>2015-12-05T11:15:29Z</time>
      </trkpt>
      <trkpt lat="44.44063" lon="1.17611">
        <ele>262.58</ele>
        <time>2015-12-05T11:15:30Z</time>
      </trkpt>
      <trkpt lat="44.44072" lon="1.1761">
        <ele>264.02</ele>
        <time>2015-12-05T11:15:34Z</time>
      </trkpt>
      <trkpt lat="44.44094" lon="1.17606">
        <ele>266.9</ele>
        <time>2015-12-05T11:15:45Z</time>
      </trkpt>
      <trkpt lat="44.44099" lon="1.17606">
        <ele>267.86</ele>
        <time>2015-12-05T11:15:50Z</time>
      </trkpt>
      <trkpt lat="44.44102" lon="1.17605">
        <ele>267.86</ele>
        <time>2015-12-05T11:15:52Z</time>
      </trkpt>
      <trkpt lat="44.4412" lon="1.17603">
        <ele>267.86</ele>
        <time>2015-12-05T11:16:02Z</time>
      </trkpt>
      <trkpt lat="44.44127" lon="1.17603">
        <ele>268.83</ele>
        <time>2015-12-05T11:16:06Z</time>
      </trkpt>
      <trkpt lat="44.44148" lon="1.17604">
        <ele>270.75</ele>
        <time>2015-12-05T11:16:21Z</time>
      </trkpt>
      <trkpt lat="44.44165" lon="1.17603">
        <ele>272.67</ele>
        <time>2015-12-05T11:16:33Z</time>
      </trkpt>
      <trkpt lat="44.4418" lon="1.176">
        <ele>274.59</ele>
        <time>2015-12-05T11:16:44Z</time>
      </trkpt>
      <trkpt lat="44.44198" lon="1.17591">
        <ele>277</ele>
        <time>2015-12-05T11:16:53Z</time>
      </trkpt>
      <trkpt lat="44.44209" lon="1.17584">
        <ele>278.44</ele>
        <time>2015-12-05T11:16:59Z</time>
      </trkpt>
      <trkpt lat="44.44213" lon="1.17576">
        <ele>279.4</ele>
        <time>2015-12-05T11:17:03Z</time>
      </trkpt>
      <trkpt lat="44.44218" lon="1.17535">
        <ele>281.8</ele>
        <time>2015-12-05T11:17:15Z</time>
      </trkpt>
      <trkpt lat="44.44221" lon="1.17497">
        <ele>286.13</ele>
        <time>2015-12-05T11:17:29Z</time>
      </trkpt>
      <trkpt lat="44.44227" lon="1.17471">
        <ele>285.65</ele>
        <time>2015-12-05T11:17:41Z</time>
      </trkpt>
      <trkpt lat="44.44229" lon="1.17465">
        <ele>283.25</ele>
        <time>2015-12-05T11:17:53Z</time>
      </trkpt>
      <trkpt lat="44.44232" lon="1.17459">
        <ele>281.32</ele>
        <time>2015-12-05T11:18:05Z</time>
      </trkpt>
      <trkpt lat="44.44233" lon="1.1746">
        <ele>280.84</ele>
        <time>2015-12-05T11:18:28Z</time>
      </trkpt>
      <trkpt lat="44.44234" lon="1.1746">
        <ele>280.36</ele>
        <time>2015-12-05T11:18:50Z</time>
      </trkpt>
      <trkpt lat="44.44236" lon="1.17459">
        <ele>279.88</ele>
        <time>2015-12-05T11:19:19Z</time>
      </trkpt>
      <trkpt lat="44.44236" lon="1.17458">
        <ele>279.4</ele>
        <time>2015-12-05T11:19:38Z</time>
      </trkpt>
      <trkpt lat="44.44237" lon="1.17461">
        <ele>277.96</ele>
        <time>2015-12-05T11:20:08Z</time>
      </trkpt>
      <trkpt lat="44.44238" lon="1.1746">
        <ele>277.96</ele>
        <time>2015-12-05T11:20:36Z</time>
      </trkpt>
      <trkpt lat="44.44238" lon="1.17459">
        <ele>277.48</ele>
        <time>2015-12-05T11:21:09Z</time>
      </trkpt>
      <trkpt lat="44.44238" lon="1.17459">
        <ele>277.48</ele>
        <time>2015-12-05T11:21:34Z</time>
      </trkpt>
      <trkpt lat="44.44238" lon="1.17458">
        <ele>277.96</ele>
        <time>2015-12-05T11:21:58Z</time>
      </trkpt>
      <trkpt lat="44.44238" lon="1.17457">
        <ele>277.96</ele>
        <time>2015-12-05T11:22:22Z</time>
      </trkpt>
      <trkpt lat="44.44238" lon="1.17457">
        <ele>277.48</ele>
        <time>2015-12-05T11:22:45Z</time>
      </trkpt>
      <trkpt lat="44.44238" lon="1.17456">
        <ele>277</ele>
        <time>2015-12-05T11:23:14Z</time>
      </trkpt>
      <trkpt lat="44.44238" lon="1.17457">
        <ele>275.56</ele>
        <time>2015-12-05T11:23:39Z</time>
      </trkpt>
      <trkpt lat="44.44238" lon="1.17458">
        <ele>275.07</ele>
        <time>2015-12-05T11:24:09Z</time>
      </trkpt>
      <trkpt lat="44.44239" lon="1.17457">
        <ele>274.59</ele>
        <time>2015-12-05T11:24:30Z</time>
      </trkpt>
      <trkpt lat="44.44239" lon="1.17456">
        <ele>275.07</ele>
        <time>2015-12-05T11:25:02Z</time>
      </trkpt>
      <trkpt lat="44.44238" lon="1.17456">
        <ele>275.56</ele>
        <time>2015-12-05T11:25:33Z</time>
      </trkpt>
      <trkpt lat="44.44238" lon="1.17457">
        <ele>276.52</ele>
        <time>2015-12-05T11:26:07Z</time>
      </trkpt>
      <trkpt lat="44.44239" lon="1.17457">
        <ele>276.04</ele>
        <time>2015-12-05T11:26:36Z</time>
      </trkpt>
      <trkpt lat="44.4424" lon="1.17456">
        <ele>276.04</ele>
        <time>2015-12-05T11:27:02Z</time>
      </trkpt>
      <trkpt lat="44.44239" lon="1.17455">
        <ele>275.07</ele>
        <time>2015-12-05T11:27:31Z</time>
      </trkpt>
      <trkpt lat="44.44239" lon="1.17454">
        <ele>275.56</ele>
        <time>2015-12-05T11:27:57Z</time>
      </trkpt>
      <trkpt lat="44.44239" lon="1.17454">
        <ele>277</ele>
        <time>2015-12-05T11:28:30Z</time>
      </trkpt>
      <trkpt lat="44.44239" lon="1.17455">
        <ele>276.04</ele>
        <time>2015-12-05T11:29:01Z</time>
      </trkpt>
      <trkpt lat="44.44238" lon="1.17456">
        <ele>275.56</ele>
        <time>2015-12-05T11:29:26Z</time>
      </trkpt>
      <trkpt lat="44.44238" lon="1.17455">
        <ele>276.52</ele>
        <time>2015-12-05T11:29:53Z</time>
      </trkpt>
      <trkpt lat="44.44239" lon="1.17456">
        <ele>277.48</ele>
        <time>2015-12-05T11:30:22Z</time>
      </trkpt>
      <trkpt lat="44.4424" lon="1.17455">
        <ele>277.96</ele>
        <time>2015-12-05T11:30:56Z</time>
      </trkpt>
      <trkpt lat="44.4424" lon="1.17454">
        <ele>278.44</ele>
        <time>2015-12-05T11:31:23Z</time>
      </trkpt>
      <trkpt lat="44.4424" lon="1.17455">
        <ele>278.92</ele>
        <time>2015-12-05T11:31:51Z</time>
      </trkpt>
      <trkpt lat="44.44239" lon="1.17455">
        <ele>278.92</ele>
        <time>2015-12-05T11:32:11Z</time>
      </trkpt>
      <trkpt lat="44.4424" lon="1.17455">
        <ele>278.92</ele>
        <time>2015-12-05T11:32:40Z</time>
      </trkpt>
      <trkpt lat="44.44239" lon="1.17455">
        <ele>277.96</ele>
        <time>2015-12-05T11:33:01Z</time>
      </trkpt>
      <trkpt lat="44.44239" lon="1.17454">
        <ele>278.44</ele>
        <time>2015-12-05T11:33:26Z</time>
      </trkpt>
      <trkpt lat="44.4424" lon="1.17454">
        <ele>277.96</ele>
        <time>2015-12-05T11:33:51Z</time>
      </trkpt>
      <trkpt lat="44.4424" lon="1.17454">
        <ele>277.96</ele>
        <time>2015-12-05T11:34:14Z</time>
      </trkpt>
      <trkpt lat="44.44241" lon="1.17454">
        <ele>277.96</ele>
        <time>2015-12-05T11:34:18Z</time>
      </trkpt>
      <trkpt lat="44.44244" lon="1.17446">
        <ele>277.48</ele>
        <time>2015-12-05T11:34:22Z</time>
      </trkpt>
      <trkpt lat="44.44244" lon="1.17443">
        <ele>277.48</ele>
        <time>2015-12-05T11:34:23Z</time>
      </trkpt>
      <trkpt lat="44.44259" lon="1.17417">
        <ele>276.52</ele>
        <time>2015-12-05T11:34:34Z</time>
      </trkpt>
      <trkpt lat="44.44262" lon="1.17414">
        <ele>275.56</ele>
        <time>2015-12-05T11:34:46Z</time>
      </trkpt>
      <trkpt lat="44.44262" lon="1.17414">
        <ele>276.52</ele>
        <time>2015-12-05T11:35:06Z</time>
      </trkpt>
      <trkpt lat="44.44261" lon="1.17416">
        <ele>276.52</ele>
        <time>2015-12-05T11:35:15Z</time>
      </trkpt>
      <trkpt lat="44.44254" lon="1.17418">
        <ele>277</ele>
        <time>2015-12-05T11:35:20Z</time>
      </trkpt>
      <trkpt lat="44.44252" lon="1.17416">
        <ele>277</ele>
        <time>2015-12-05T11:35:21Z</time>
      </trkpt>
      <trkpt lat="44.4425" lon="1.17415">
        <ele>277</ele>
        <time>2015-12-05T11:35:22Z</time>
      </trkpt>
      <trkpt lat="44.44248" lon="1.17414">
        <ele>277</ele>
        <time>2015-12-05T11:35:23Z</time>
      </trkpt>
      <trkpt lat="44.44245" lon="1.17414">
        <ele>276.52</ele>
        <time>2015-12-05T11:35:24Z</time>
      </trkpt>
      <trkpt lat="44.44243" lon="1.17412">
        <ele>276.52</ele>
        <time>2015-12-05T11:35:25Z</time>
      </trkpt>
      <trkpt lat="44.44241" lon="1.17409">
        <ele>276.04</ele>
        <time>2015-12-05T11:35:26Z</time>
      </trkpt>
      <trkpt lat="44.4424" lon="1.17405">
        <ele>275.56</ele>
        <time>2015-12-05T11:35:27Z</time>
      </trkpt>
      <trkpt lat="44.44239" lon="1.17401">
        <ele>275.56</ele>
        <time>2015-12-05T11:35:28Z</time>
      </trkpt>
      <trkpt lat="44.44239" lon="1.17396">
        <ele>275.07</ele>
        <time>2015-12-05T11:35:29Z</time>
      </trkpt>
      <trkpt lat="44.44234" lon="1.17374">
        <ele>273.63</ele>
        <time>2015-12-05T11:35:33Z</time>
      </trkpt>
      <trkpt lat="44.44234" lon="1.17369">
        <ele>273.63</ele>
        <time>2015-12-05T11:35:34Z</time>
      </trkpt>
      <trkpt lat="44.44233" lon="1.17357">
        <ele>273.15</ele>
        <time>2015-12-05T11:35:36Z</time>
      </trkpt>
      <trkpt lat="44.44231" lon="1.17306">
        <ele>271.71</ele>
        <time>2015-12-05T11:35:43Z</time>
      </trkpt>
      <trkpt lat="44.44227" lon="1.17284">
        <ele>271.23</ele>
        <time>2015-12-05T11:35:46Z</time>
      </trkpt>
      <trkpt lat="44.44216" lon="1.17251">
        <ele>270.27</ele>
        <time>2015-12-05T11:35:53Z</time>
      </trkpt>
      <trkpt lat="44.44202" lon="1.17215">
        <ele>269.79</ele>
        <time>2015-12-05T11:36:05Z</time>
      </trkpt>
      <trkpt lat="44.4419" lon="1.17152">
        <ele>268.83</ele>
        <time>2015-12-05T11:36:18Z</time>
      </trkpt>
      <trkpt lat="44.44193" lon="1.17135">
        <ele>268.83</ele>
        <time>2015-12-05T11:36:21Z</time>
      </trkpt>
      <trkpt lat="44.44193" lon="1.17128">
        <ele>268.83</ele>
        <time>2015-12-05T11:36:22Z</time>
      </trkpt>
      <trkpt lat="44.44196" lon="1.17109">
        <ele>268.83</ele>
        <time>2015-12-05T11:36:25Z</time>
      </trkpt>
      <trkpt lat="44.44203" lon="1.17038">
        <ele>267.38</ele>
        <time>2015-12-05T11:36:38Z</time>
      </trkpt>
      <trkpt lat="44.44202" lon="1.17032">
        <ele>266.9</ele>
        <time>2015-12-05T11:36:39Z</time>
      </trkpt>
      <trkpt lat="44.44199" lon="1.17013">
        <ele>266.42</ele>
        <time>2015-12-05T11:36:42Z</time>
      </trkpt>
      <trkpt lat="44.442" lon="1.16993">
        <ele>265.46</ele>
        <time>2015-12-05T11:36:45Z</time>
      </trkpt>
      <trkpt lat="44.44202" lon="1.16987">
        <ele>265.46</ele>
        <time>2015-12-05T11:36:46Z</time>
      </trkpt>
      <trkpt lat="44.44205" lon="1.16981">
        <ele>264.98</ele>
        <time>2015-12-05T11:36:47Z</time>
      </trkpt>
      <trkpt lat="44.44221" lon="1.16949">
        <ele>264.02</ele>
        <time>2015-12-05T11:36:52Z</time>
      </trkpt>
      <trkpt lat="44.44239" lon="1.16929">
        <ele>263.54</ele>
        <time>2015-12-05T11:36:56Z</time>
      </trkpt>
      <trkpt lat="44.44263" lon="1.16907">
        <ele>262.58</ele>
        <time>2015-12-05T11:37:01Z</time>
      </trkpt>
      <trkpt lat="44.44276" lon="1.1687">
        <ele>261.62</ele>
        <time>2015-12-05T11:37:06Z</time>
      </trkpt>
      <trkpt lat="44.44284" lon="1.16839">
        <ele>261.62</ele>
        <time>2015-12-05T11:37:10Z</time>
      </trkpt>
      <trkpt lat="44.44293" lon="1.16818">
        <ele>260.65</ele>
        <time>2015-12-05T11:37:13Z</time>
      </trkpt>
      <trkpt lat="44.4431" lon="1.16796">
        <ele>260.65</ele>
        <time>2015-12-05T11:37:17Z</time>
      </trkpt>
      <trkpt lat="44.44318" lon="1.16769">
        <ele>261.14</ele>
        <time>2015-12-05T11:37:22Z</time>
      </trkpt>
      <trkpt lat="44.4431" lon="1.16687">
        <ele>262.58</ele>
        <time>2015-12-05T11:37:37Z</time>
      </trkpt>
      <trkpt lat="44.44306" lon="1.16646">
        <ele>262.58</ele>
        <time>2015-12-05T11:37:44Z</time>
      </trkpt>
      <trkpt lat="44.44299" lon="1.16581">
        <ele>262.1</ele>
        <time>2015-12-05T11:37:57Z</time>
      </trkpt>
      <trkpt lat="44.44292" lon="1.16527">
        <ele>261.14</ele>
        <time>2015-12-05T11:38:11Z</time>
      </trkpt>
      <trkpt lat="44.44283" lon="1.16458">
        <ele>258.73</ele>
        <time>2015-12-05T11:38:23Z</time>
      </trkpt>
      <trkpt lat="44.44272" lon="1.16301">
        <ele>251.52</ele>
        <time>2015-12-05T11:38:39Z</time>
      </trkpt>
      <trkpt lat="44.44273" lon="1.16204">
        <ele>248.16</ele>
        <time>2015-12-05T11:38:48Z</time>
      </trkpt>
      <trkpt lat="44.44274" lon="1.16169">
        <ele>247.68</ele>
        <time>2015-12-05T11:38:52Z</time>
      </trkpt>
      <trkpt lat="44.4427" lon="1.16144">
        <ele>248.16</ele>
        <time>2015-12-05T11:38:55Z</time>
      </trkpt>
      <trkpt lat="44.44265" lon="1.16122">
        <ele>248.64</ele>
        <time>2015-12-05T11:38:58Z</time>
      </trkpt>
      <trkpt lat="44.44261" lon="1.1611">
        <ele>249.12</ele>
        <time>2015-12-05T11:39:00Z</time>
      </trkpt>
      <trkpt lat="44.44258" lon="1.16089">
        <ele>250.08</ele>
        <time>2015-12-05T11:39:04Z</time>
      </trkpt>
      <trkpt lat="44.44266" lon="1.16036">
        <ele>253.44</ele>
        <time>2015-12-05T11:39:16Z</time>
      </trkpt>
      <trkpt lat="44.44281" lon="1.15985">
        <ele>252.96</ele>
        <time>2015-12-05T11:39:28Z</time>
      </trkpt>
      <trkpt lat="44.44281" lon="1.15975">
        <ele>252.48</ele>
        <time>2015-12-05T11:39:30Z</time>
      </trkpt>
      <trkpt lat="44.44279" lon="1.15942">
        <ele>251.52</ele>
        <time>2015-12-05T11:39:39Z</time>
      </trkpt>
      <trkpt lat="44.44283" lon="1.15907">
        <ele>249.6</ele>
        <time>2015-12-05T11:39:45Z</time>
      </trkpt>
      <trkpt lat="44.44305" lon="1.15814">
        <ele>247.2</ele>
        <time>2015-12-05T11:39:59Z</time>
      </trkpt>
      <trkpt lat="44.44308" lon="1.15764">
        <ele>245.27</ele>
        <time>2015-12-05T11:40:12Z</time>
      </trkpt>
      <trkpt lat="44.44308" lon="1.15764">
        <ele>244.31</ele>
        <time>2015-12-05T11:40:32Z</time>
      </trkpt>
      <trkpt lat="44.44308" lon="1.15764">
        <ele>244.31</ele>
        <time>2015-12-05T11:40:33Z</time>
      </trkpt>
      <trkpt lat="44.44303" lon="1.15741">
        <ele>241.43</ele>
        <time>2015-12-05T11:40:38Z</time>
      </trkpt>
      <trkpt lat="44.44302" lon="1.15723">
        <ele>238.06</ele>
        <time>2015-12-05T11:40:46Z</time>
      </trkpt>
      <trkpt lat="44.44299" lon="1.15702">
        <ele>235.18</ele>
        <time>2015-12-05T11:40:56Z</time>
      </trkpt>
      <trkpt lat="44.443" lon="1.15667">
        <ele>229.89</ele>
        <time>2015-12-05T11:41:01Z</time>
      </trkpt>
      <trkpt lat="44.44291" lon="1.15634">
        <ele>225.57</ele>
        <time>2015-12-05T11:41:06Z</time>
      </trkpt>
      <trkpt lat="44.44286" lon="1.1562">
        <ele>223.16</ele>
        <time>2015-12-05T11:41:09Z</time>
      </trkpt>
      <trkpt lat="44.44288" lon="1.1559">
        <ele>220.28</ele>
        <time>2015-12-05T11:41:14Z</time>
      </trkpt>
      <trkpt lat="44.44291" lon="1.15583">
        <ele>219.32</ele>
        <time>2015-12-05T11:41:24Z</time>
      </trkpt>
      <trkpt lat="44.44291" lon="1.15583">
        <ele>219.8</ele>
        <time>2015-12-05T11:41:25Z</time>
      </trkpt>
      <trkpt lat="44.44289" lon="1.15562">
        <ele>217.88</ele>
        <time>2015-12-05T11:41:38Z</time>
      </trkpt>
      <trkpt lat="44.44288" lon="1.1556">
        <ele>218.84</ele>
        <time>2015-12-05T11:41:58Z</time>
      </trkpt>
      <trkpt lat="44.44287" lon="1.15557">
        <ele>220.28</ele>
        <time>2015-12-05T11:42:28Z</time>
      </trkpt>
      <trkpt lat="44.44286" lon="1.15556">
        <ele>220.28</ele>
        <time>2015-12-05T11:42:45Z</time>
      </trkpt>
      <trkpt lat="44.44284" lon="1.15544">
        <ele>217.4</ele>
        <time>2015-12-05T11:43:04Z</time>
      </trkpt>
      <trkpt lat="44.44283" lon="1.15538">
        <ele>216.91</ele>
        <time>2015-12-05T11:43:05Z</time>
      </trkpt>
      <trkpt lat="44.44275" lon="1.15498">
        <ele>214.99</ele>
        <time>2015-12-05T11:43:10Z</time>
      </trkpt>
      <trkpt lat="44.44271" lon="1.15436">
        <ele>213.07</ele>
        <time>2015-12-05T11:43:21Z</time>
      </trkpt>
      <trkpt lat="44.44266" lon="1.15424">
        <ele>215.47</ele>
        <time>2015-12-05T11:43:30Z</time>
      </trkpt>
      <trkpt lat="44.44262" lon="1.15413">
        <ele>218.84</ele>
        <time>2015-12-05T11:43:42Z</time>
      </trkpt>
      <trkpt lat="44.44262" lon="1.15401">
        <ele>220.76</ele>
        <time>2015-12-05T11:43:52Z</time>
      </trkpt>
      <trkpt lat="44.44262" lon="1.15388">
        <ele>220.76</ele>
        <time>2015-12-05T11:43:58Z</time>
      </trkpt>
      <trkpt lat="44.44259" lon="1.15354">
        <ele>221.72</ele>
        <time>2015-12-05T11:44:14Z</time>
      </trkpt>
      <trkpt lat="44.44258" lon="1.15347">
        <ele>223.16</ele>
        <time>2015-12-05T11:44:17Z</time>
      </trkpt>
      <trkpt lat="44.44254" lon="1.15319">
        <ele>227.49</ele>
        <time>2015-12-05T11:44:32Z</time>
      </trkpt>
      <trkpt lat="44.44253" lon="1.15314">
        <ele>227.01</ele>
        <time>2015-12-05T11:44:35Z</time>
      </trkpt>
      <trkpt lat="44.44254" lon="1.1529">
        <ele>226.53</ele>
        <time>2015-12-05T11:44:49Z</time>
      </trkpt>
      <trkpt lat="44.44258" lon="1.15263">
        <ele>226.05</ele>
        <time>2015-12-05T11:45:04Z</time>
      </trkpt>
      <trkpt lat="44.44256" lon="1.15251">
        <ele>228.45</ele>
        <time>2015-12-05T11:45:16Z</time>
      </trkpt>
      <trkpt lat="44.44256" lon="1.15238">
        <ele>231.33</ele>
        <time>2015-12-05T11:45:29Z</time>
      </trkpt>
      <trkpt lat="44.44256" lon="1.15234">
        <ele>230.37</ele>
        <time>2015-12-05T11:45:41Z</time>
      </trkpt>
      <trkpt lat="44.44255" lon="1.1523">
        <ele>230.37</ele>
        <time>2015-12-05T11:45:45Z</time>
      </trkpt>
      <trkpt lat="44.4425" lon="1.15216">
        <ele>230.85</ele>
        <time>2015-12-05T11:45:54Z</time>
      </trkpt>
      <trkpt lat="44.44247" lon="1.152">
        <ele>232.3</ele>
        <time>2015-12-05T11:46:02Z</time>
      </trkpt>
      <trkpt lat="44.44247" lon="1.15196">
        <ele>232.78</ele>
        <time>2015-12-05T11:46:04Z</time>
      </trkpt>
      <trkpt lat="44.44242" lon="1.15186">
        <ele>234.7</ele>
        <time>2015-12-05T11:46:10Z</time>
      </trkpt>
      <trkpt lat="44.44239" lon="1.15176">
        <ele>237.1</ele>
        <time>2015-12-05T11:46:16Z</time>
      </trkpt>
      <trkpt lat="44.4423" lon="1.15162">
        <ele>238.54</ele>
        <time>2015-12-05T11:46:25Z</time>
      </trkpt>
      <trkpt lat="44.44226" lon="1.15152">
        <ele>239.99</ele>
        <time>2015-12-05T11:46:39Z</time>
      </trkpt>
      <trkpt lat="44.44226" lon="1.15152">
        <ele>239.99</ele>
        <time>2015-12-05T11:46:58Z</time>
      </trkpt>
      <trkpt lat="44.44226" lon="1.15152">
        <ele>240.95</ele>
        <time>2015-12-05T11:47:19Z</time>
      </trkpt>
      <trkpt lat="44.44226" lon="1.15151">
        <ele>240.95</ele>
        <time>2015-12-05T11:47:41Z</time>
      </trkpt>
      <trkpt lat="44.44225" lon="1.1515">
        <ele>240.95</ele>
        <time>2015-12-05T11:48:02Z</time>
      </trkpt>
      <trkpt lat="44.44225" lon="1.15151">
        <ele>240.47</ele>
        <time>2015-12-05T11:48:30Z</time>
      </trkpt>
      <trkpt lat="44.44225" lon="1.15151">
        <ele>240.47</ele>
        <time>2015-12-05T11:48:59Z</time>
      </trkpt>
      <trkpt lat="44.44225" lon="1.15151">
        <ele>239.99</ele>
        <time>2015-12-05T11:49:33Z</time>
      </trkpt>
      <trkpt lat="44.44225" lon="1.15151">
        <ele>239.99</ele>
        <time>2015-12-05T11:50:04Z</time>
      </trkpt>
      <trkpt lat="44.44225" lon="1.15151">
        <ele>239.99</ele>
        <time>2015-12-05T11:50:05Z</time>
      </trkpt>
      <trkpt lat="44.4422" lon="1.15135">
        <ele>240.47</ele>
        <time>2015-12-05T11:50:18Z</time>
      </trkpt>
      <trkpt lat="44.44217" lon="1.15127">
        <ele>240.95</ele>
        <time>2015-12-05T11:50:29Z</time>
      </trkpt>
      <trkpt lat="44.44217" lon="1.15127">
        <ele>240.95</ele>
        <time>2015-12-05T11:50:37Z</time>
      </trkpt>
      <trkpt lat="44.44219" lon="1.1512">
        <ele>240.95</ele>
        <time>2015-12-05T11:50:41Z</time>
      </trkpt>
      <trkpt lat="44.44209" lon="1.15093">
        <ele>237.1</ele>
        <time>2015-12-05T11:50:50Z</time>
      </trkpt>
      <trkpt lat="44.44196" lon="1.15083">
        <ele>235.18</ele>
        <time>2015-12-05T11:50:55Z</time>
      </trkpt>
      <trkpt lat="44.44169" lon="1.15057">
        <ele>228.93</ele>
        <time>2015-12-05T11:51:06Z</time>
      </trkpt>
      <trkpt lat="44.44149" lon="1.15044">
        <ele>224.61</ele>
        <time>2015-12-05T11:51:13Z</time>
      </trkpt>
      <trkpt lat="44.44141" lon="1.15039">
        <ele>223.16</ele>
        <time>2015-12-05T11:51:17Z</time>
      </trkpt>
      <trkpt lat="44.44132" lon="1.15029">
        <ele>220.28</ele>
        <time>2015-12-05T11:51:23Z</time>
      </trkpt>
      <trkpt lat="44.44125" lon="1.1502">
        <ele>217.4</ele>
        <time>2015-12-05T11:51:28Z</time>
      </trkpt>
      <trkpt lat="44.44115" lon="1.15018">
        <ele>214.51</ele>
        <time>2015-12-05T11:51:34Z</time>
      </trkpt>
      <trkpt lat="44.44103" lon="1.15011">
        <ele>212.59</ele>
        <time>2015-12-05T11:51:38Z</time>
      </trkpt>
      <trkpt lat="44.44086" lon="1.15004">
        <ele>207.78</ele>
        <time>2015-12-05T11:51:44Z</time>
      </trkpt>
      <trkpt lat="44.44068" lon="1.14999">
        <ele>204.42</ele>
        <time>2015-12-05T11:51:49Z</time>
      </trkpt>
      <trkpt lat="44.44051" lon="1.14987">
        <ele>200.09</ele>
        <time>2015-12-05T11:51:56Z</time>
      </trkpt>
      <trkpt lat="44.4404" lon="1.14981">
        <ele>198.65</ele>
        <time>2015-12-05T11:51:59Z</time>
      </trkpt>
      <trkpt lat="44.44019" lon="1.14969">
        <ele>193.36</ele>
        <time>2015-12-05T11:52:06Z</time>
      </trkpt>
      <trkpt lat="44.44006" lon="1.14968">
        <ele>190</ele>
        <time>2015-12-05T11:52:11Z</time>
      </trkpt>
      <trkpt lat="44.4399" lon="1.14972">
        <ele>186.63</ele>
        <time>2015-12-05T11:52:16Z</time>
      </trkpt>
      <trkpt lat="44.43971" lon="1.14974">
        <ele>182.79</ele>
        <time>2015-12-05T11:52:24Z</time>
      </trkpt>
      <trkpt lat="44.4397" lon="1.14963">
        <ele>181.83</ele>
        <time>2015-12-05T11:52:27Z</time>
      </trkpt>
      <trkpt lat="44.43973" lon="1.14908">
        <ele>175.1</ele>
        <time>2015-12-05T11:52:38Z</time>
      </trkpt>
      <trkpt lat="44.43979" lon="1.14867">
        <ele>171.25</ele>
        <time>2015-12-05T11:52:46Z</time>
      </trkpt>
      <trkpt lat="44.43992" lon="1.14839">
        <ele>168.37</ele>
        <time>2015-12-05T11:52:52Z</time>
      </trkpt>
      <trkpt lat="44.44003" lon="1.14821">
        <ele>165.48</ele>
        <time>2015-12-05T11:52:56Z</time>
      </trkpt>
      <trkpt lat="44.44013" lon="1.14805">
        <ele>162.6</ele>
        <time>2015-12-05T11:53:01Z</time>
      </trkpt>
      <trkpt lat="44.44002" lon="1.14773">
        <ele>158.27</ele>
        <time>2015-12-05T11:53:10Z</time>
      </trkpt>
      <trkpt lat="44.44" lon="1.14749">
        <ele>158.27</ele>
        <time>2015-12-05T11:53:19Z</time>
      </trkpt>
      <trkpt lat="44.44012" lon="1.14724">
        <ele>164.04</ele>
        <time>2015-12-05T11:53:30Z</time>
      </trkpt>
      <trkpt lat="44.44017" lon="1.14716">
        <ele>164.52</ele>
        <time>2015-12-05T11:53:34Z</time>
      </trkpt>
      <trkpt lat="44.44019" lon="1.14711">
        <ele>163.08</ele>
        <time>2015-12-05T11:53:49Z</time>
      </trkpt>
      <trkpt lat="44.4402" lon="1.14709">
        <ele>160.68</ele>
        <time>2015-12-05T11:54:16Z</time>
      </trkpt>
      <trkpt lat="44.44021" lon="1.14709">
        <ele>161.16</ele>
        <time>2015-12-05T11:54:44Z</time>
      </trkpt>
      <trkpt lat="44.44021" lon="1.14707">
        <ele>162.12</ele>
        <time>2015-12-05T11:55:17Z</time>
      </trkpt>
      <trkpt lat="44.4402" lon="1.14709">
        <ele>161.16</ele>
        <time>2015-12-05T11:55:44Z</time>
      </trkpt>
      <trkpt lat="44.44021" lon="1.14709">
        <ele>161.16</ele>
        <time>2015-12-05T11:55:57Z</time>
      </trkpt>
      <trkpt lat="44.44023" lon="1.14702">
        <ele>160.68</ele>
        <time>2015-12-05T11:56:13Z</time>
      </trkpt>
      <trkpt lat="44.44023" lon="1.14701">
        <ele>160.68</ele>
        <time>2015-12-05T11:56:14Z</time>
      </trkpt>
      <trkpt lat="44.44024" lon="1.14693">
        <ele>160.2</ele>
        <time>2015-12-05T11:56:20Z</time>
      </trkpt>
      <trkpt lat="44.44024" lon="1.14691">
        <ele>160.2</ele>
        <time>2015-12-05T11:56:21Z</time>
      </trkpt>
      <trkpt lat="44.44026" lon="1.14658">
        <ele>160.2</ele>
        <time>2015-12-05T11:56:33Z</time>
      </trkpt>
      <trkpt lat="44.44023" lon="1.14625">
        <ele>161.64</ele>
        <time>2015-12-05T11:56:45Z</time>
      </trkpt>
      <trkpt lat="44.44014" lon="1.14591">
        <ele>164.04</ele>
        <time>2015-12-05T11:56:58Z</time>
      </trkpt>
      <trkpt lat="44.44011" lon="1.14562">
        <ele>164.52</ele>
        <time>2015-12-05T11:57:12Z</time>
      </trkpt>
      <trkpt lat="44.44012" lon="1.14547">
        <ele>163.56</ele>
        <time>2015-12-05T11:57:24Z</time>
      </trkpt>
      <trkpt lat="44.44014" lon="1.14536">
        <ele>162.12</ele>
        <time>2015-12-05T11:57:35Z</time>
      </trkpt>
      <trkpt lat="44.44015" lon="1.14527">
        <ele>161.64</ele>
        <time>2015-12-05T11:57:50Z</time>
      </trkpt>
      <trkpt lat="44.44017" lon="1.14511">
        <ele>160.68</ele>
        <time>2015-12-05T11:57:53Z</time>
      </trkpt>
      <trkpt lat="44.44018" lon="1.14505">
        <ele>160.2</ele>
        <time>2015-12-05T11:57:54Z</time>
      </trkpt>
      <trkpt lat="44.4402" lon="1.14499">
        <ele>159.24</ele>
        <time>2015-12-05T11:57:55Z</time>
      </trkpt>
      <trkpt lat="44.44023" lon="1.14493">
        <ele>159.24</ele>
        <time>2015-12-05T11:57:56Z</time>
      </trkpt>
      <trkpt lat="44.44026" lon="1.14486">
        <ele>158.75</ele>
        <time>2015-12-05T11:57:57Z</time>
      </trkpt>
      <trkpt lat="44.44029" lon="1.1448">
        <ele>158.27</ele>
        <time>2015-12-05T11:57:58Z</time>
      </trkpt>
      <trkpt lat="44.44037" lon="1.14459">
        <ele>156.83</ele>
        <time>2015-12-05T11:58:01Z</time>
      </trkpt>
      <trkpt lat="44.44039" lon="1.14452">
        <ele>156.83</ele>
        <time>2015-12-05T11:58:02Z</time>
      </trkpt>
      <trkpt lat="44.4404" lon="1.14444">
        <ele>155.87</ele>
        <time>2015-12-05T11:58:03Z</time>
      </trkpt>
      <trkpt lat="44.44041" lon="1.14437">
        <ele>155.39</ele>
        <time>2015-12-05T11:58:04Z</time>
      </trkpt>
      <trkpt lat="44.44042" lon="1.1443">
        <ele>154.91</ele>
        <time>2015-12-05T11:58:05Z</time>
      </trkpt>
      <trkpt lat="44.44046" lon="1.14399">
        <ele>153.47</ele>
        <time>2015-12-05T11:58:09Z</time>
      </trkpt>
      <trkpt lat="44.44046" lon="1.14391">
        <ele>152.99</ele>
        <time>2015-12-05T11:58:10Z</time>
      </trkpt>
      <trkpt lat="44.44045" lon="1.14383">
        <ele>152.99</ele>
        <time>2015-12-05T11:58:11Z</time>
      </trkpt>
      <trkpt lat="44.44042" lon="1.14376">
        <ele>152.51</ele>
        <time>2015-12-05T11:58:12Z</time>
      </trkpt>
      <trkpt lat="44.44039" lon="1.14367">
        <ele>152.03</ele>
        <time>2015-12-05T11:58:13Z</time>
      </trkpt>
      <trkpt lat="44.44035" lon="1.14359">
        <ele>151.54</ele>
        <time>2015-12-05T11:58:14Z</time>
      </trkpt>
      <trkpt lat="44.44031" lon="1.14351">
        <ele>150.58</ele>
        <time>2015-12-05T11:58:15Z</time>
      </trkpt>
      <trkpt lat="44.44022" lon="1.14336">
        <ele>149.62</ele>
        <time>2015-12-05T11:58:17Z</time>
      </trkpt>
      <trkpt lat="44.44019" lon="1.14327">
        <ele>149.14</ele>
        <time>2015-12-05T11:58:18Z</time>
      </trkpt>
      <trkpt lat="44.44019" lon="1.14317">
        <ele>148.66</ele>
        <time>2015-12-05T11:58:19Z</time>
      </trkpt>
      <trkpt lat="44.4402" lon="1.14307">
        <ele>147.7</ele>
        <time>2015-12-05T11:58:20Z</time>
      </trkpt>
      <trkpt lat="44.44022" lon="1.14297">
        <ele>147.22</ele>
        <time>2015-12-05T11:58:21Z</time>
      </trkpt>
      <trkpt lat="44.44024" lon="1.14288">
        <ele>146.74</ele>
        <time>2015-12-05T11:58:22Z</time>
      </trkpt>
      <trkpt lat="44.44028" lon="1.14271">
        <ele>145.78</ele>
        <time>2015-12-05T11:58:24Z</time>
      </trkpt>
      <trkpt lat="44.44029" lon="1.14262">
        <ele>145.3</ele>
        <time>2015-12-05T11:58:25Z</time>
      </trkpt>
      <trkpt lat="44.44029" lon="1.14254">
        <ele>145.3</ele>
        <time>2015-12-05T11:58:26Z</time>
      </trkpt>
      <trkpt lat="44.44025" lon="1.14215">
        <ele>142.41</ele>
        <time>2015-12-05T11:58:31Z</time>
      </trkpt>
      <trkpt lat="44.44026" lon="1.14208">
        <ele>141.93</ele>
        <time>2015-12-05T11:58:32Z</time>
      </trkpt>
      <trkpt lat="44.44034" lon="1.14145">
        <ele>139.05</ele>
        <time>2015-12-05T11:58:41Z</time>
      </trkpt>
      <trkpt lat="44.44033" lon="1.14123">
        <ele>138.57</ele>
        <time>2015-12-05T11:58:44Z</time>
      </trkpt>
      <trkpt lat="44.44032" lon="1.14115">
        <ele>138.09</ele>
        <time>2015-12-05T11:58:45Z</time>
      </trkpt>
      <trkpt lat="44.4403" lon="1.14108">
        <ele>137.61</ele>
        <time>2015-12-05T11:58:46Z</time>
      </trkpt>
      <trkpt lat="44.44025" lon="1.14084">
        <ele>136.64</ele>
        <time>2015-12-05T11:58:49Z</time>
      </trkpt>
      <trkpt lat="44.44022" lon="1.14076">
        <ele>136.64</ele>
        <time>2015-12-05T11:58:50Z</time>
      </trkpt>
      <trkpt lat="44.44007" lon="1.14041">
        <ele>135.2</ele>
        <time>2015-12-05T11:58:55Z</time>
      </trkpt>
      <trkpt lat="44.44003" lon="1.14036">
        <ele>134.72</ele>
        <time>2015-12-05T11:58:56Z</time>
      </trkpt>
      <trkpt lat="44.44" lon="1.14032">
        <ele>134.24</ele>
        <time>2015-12-05T11:58:57Z</time>
      </trkpt>
      <trkpt lat="44.43996" lon="1.14029">
        <ele>134.24</ele>
        <time>2015-12-05T11:58:58Z</time>
      </trkpt>
      <trkpt lat="44.43992" lon="1.14025">
        <ele>134.24</ele>
        <time>2015-12-05T11:58:59Z</time>
      </trkpt>
      <trkpt lat="44.43988" lon="1.14023">
        <ele>133.76</ele>
        <time>2015-12-05T11:59:00Z</time>
      </trkpt>
      <trkpt lat="44.43984" lon="1.14021">
        <ele>133.76</ele>
        <time>2015-12-05T11:59:01Z</time>
      </trkpt>
      <trkpt lat="44.43979" lon="1.14018">
        <ele>133.76</ele>
        <time>2015-12-05T11:59:02Z</time>
      </trkpt>
      <trkpt lat="44.43954" lon="1.14004">
        <ele>131.84</ele>
        <time>2015-12-05T11:59:08Z</time>
      </trkpt>
      <trkpt lat="44.43938" lon="1.13981">
        <ele>128.47</ele>
        <time>2015-12-05T11:59:17Z</time>
      </trkpt>
      <trkpt lat="44.4393" lon="1.13964">
        <ele>127.03</ele>
        <time>2015-12-05T11:59:22Z</time>
      </trkpt>
      <trkpt lat="44.43932" lon="1.13959">
        <ele>126.55</ele>
        <time>2015-12-05T11:59:23Z</time>
      </trkpt>
      <trkpt lat="44.43935" lon="1.13955">
        <ele>126.07</ele>
        <time>2015-12-05T11:59:24Z</time>
      </trkpt>
      <trkpt lat="44.4394" lon="1.13952">
        <ele>125.59</ele>
        <time>2015-12-05T11:59:25Z</time>
      </trkpt>
      <trkpt lat="44.43944" lon="1.13948">
        <ele>125.11</ele>
        <time>2015-12-05T11:59:26Z</time>
      </trkpt>
      <trkpt lat="44.43948" lon="1.13945">
        <ele>124.63</ele>
        <time>2015-12-05T11:59:27Z</time>
      </trkpt>
      <trkpt lat="44.4395" lon="1.13941">
        <ele>123.67</ele>
        <time>2015-12-05T11:59:28Z</time>
      </trkpt>
      <trkpt lat="44.43952" lon="1.13936">
        <ele>123.67</ele>
        <time>2015-12-05T11:59:29Z</time>
      </trkpt>
      <trkpt lat="44.43952" lon="1.1393">
        <ele>123.19</ele>
        <time>2015-12-05T11:59:30Z</time>
      </trkpt>
      <trkpt lat="44.43952" lon="1.13925">
        <ele>122.71</ele>
        <time>2015-12-05T11:59:31Z</time>
      </trkpt>
      <trkpt lat="44.43946" lon="1.13879">
        <ele>118.86</ele>
        <time>2015-12-05T11:59:42Z</time>
      </trkpt>
      <trkpt lat="44.43948" lon="1.13858">
        <ele>119.82</ele>
        <time>2015-12-05T11:59:53Z</time>
      </trkpt>
      <trkpt lat="44.43948" lon="1.13856">
        <ele>121.26</ele>
        <time>2015-12-05T12:00:05Z</time>
      </trkpt>
      <trkpt lat="44.43948" lon="1.13853">
        <ele>121.26</ele>
        <time>2015-12-05T12:00:06Z</time>
      </trkpt>
      <trkpt lat="44.43947" lon="1.1385">
        <ele>121.26</ele>
        <time>2015-12-05T12:00:07Z</time>
      </trkpt>
      <trkpt lat="44.43946" lon="1.13846">
        <ele>121.74</ele>
        <time>2015-12-05T12:00:08Z</time>
      </trkpt>
      <trkpt lat="44.43944" lon="1.13842">
        <ele>122.22</ele>
        <time>2015-12-05T12:00:09Z</time>
      </trkpt>
      <trkpt lat="44.43913" lon="1.13763">
        <ele>124.63</ele>
        <time>2015-12-05T12:00:24Z</time>
      </trkpt>
      <trkpt lat="44.43882" lon="1.13708">
        <ele>125.59</ele>
        <time>2015-12-05T12:00:35Z</time>
      </trkpt>
      <trkpt lat="44.43857" lon="1.13669">
        <ele>125.11</ele>
        <time>2015-12-05T12:00:44Z</time>
      </trkpt>
      <trkpt lat="44.43856" lon="1.13663">
        <ele>124.63</ele>
        <time>2015-12-05T12:00:45Z</time>
      </trkpt>
      <trkpt lat="44.43854" lon="1.13657">
        <ele>124.63</ele>
        <time>2015-12-05T12:00:46Z</time>
      </trkpt>
      <trkpt lat="44.43842" lon="1.13624">
        <ele>123.67</ele>
        <time>2015-12-05T12:00:51Z</time>
      </trkpt>
      <trkpt lat="44.43834" lon="1.13605">
        <ele>123.19</ele>
        <time>2015-12-05T12:00:54Z</time>
      </trkpt>
      <trkpt lat="44.43834" lon="1.13599">
        <ele>123.19</ele>
        <time>2015-12-05T12:00:55Z</time>
      </trkpt>
      <trkpt lat="44.43836" lon="1.13592">
        <ele>123.67</ele>
        <time>2015-12-05T12:00:56Z</time>
      </trkpt>
      <trkpt lat="44.43839" lon="1.13587">
        <ele>123.67</ele>
        <time>2015-12-05T12:00:57Z</time>
      </trkpt>
      <trkpt lat="44.43841" lon="1.13582">
        <ele>123.67</ele>
        <time>2015-12-05T12:00:58Z</time>
      </trkpt>
      <trkpt lat="44.43844" lon="1.13578">
        <ele>124.15</ele>
        <time>2015-12-05T12:00:59Z</time>
      </trkpt>
      <trkpt lat="44.4387" lon="1.13527">
        <ele>127.03</ele>
        <time>2015-12-05T12:01:11Z</time>
      </trkpt>
      <trkpt lat="44.43894" lon="1.13468">
        <ele>127.03</ele>
        <time>2015-12-05T12:01:25Z</time>
      </trkpt>
      <trkpt lat="44.43894" lon="1.13464">
        <ele>127.03</ele>
        <time>2015-12-05T12:01:26Z</time>
      </trkpt>
      <trkpt lat="44.43894" lon="1.13462">
        <ele>127.03</ele>
        <time>2015-12-05T12:01:27Z</time>
      </trkpt>
      <trkpt lat="44.43893" lon="1.13459">
        <ele>127.03</ele>
        <time>2015-12-05T12:01:28Z</time>
      </trkpt>
      <trkpt lat="44.43871" lon="1.13424">
        <ele>127.99</ele>
        <time>2015-12-05T12:01:40Z</time>
      </trkpt>
      <trkpt lat="44.43846" lon="1.13384">
        <ele>129.43</ele>
        <time>2015-12-05T12:01:52Z</time>
      </trkpt>
      <trkpt lat="44.43818" lon="1.13372">
        <ele>131.84</ele>
        <time>2015-12-05T12:02:04Z</time>
      </trkpt>
      <trkpt lat="44.43785" lon="1.13363">
        <ele>130.4</ele>
        <time>2015-12-05T12:02:16Z</time>
      </trkpt>
      <trkpt lat="44.43737" lon="1.13352">
        <ele>129.92</ele>
        <time>2015-12-05T12:02:29Z</time>
      </trkpt>
      <trkpt lat="44.43689" lon="1.13349">
        <ele>131.36</ele>
        <time>2015-12-05T12:02:42Z</time>
      </trkpt>
      <trkpt lat="44.43685" lon="1.13348">
        <ele>131.36</ele>
        <time>2015-12-05T12:02:43Z</time>
      </trkpt>
      <trkpt lat="44.43677" lon="1.13347">
        <ele>131.36</ele>
        <time>2015-12-05T12:02:45Z</time>
      </trkpt>
      <trkpt lat="44.43672" lon="1.13347">
        <ele>131.36</ele>
        <time>2015-12-05T12:02:46Z</time>
      </trkpt>
      <trkpt lat="44.43668" lon="1.13346">
        <ele>130.88</ele>
        <time>2015-12-05T12:02:47Z</time>
      </trkpt>
      <trkpt lat="44.43599" lon="1.1332">
        <ele>131.84</ele>
        <time>2015-12-05T12:03:06Z</time>
      </trkpt>
      <trkpt lat="44.43565" lon="1.13301">
        <ele>131.84</ele>
        <time>2015-12-05T12:03:20Z</time>
      </trkpt>
      <trkpt lat="44.43563" lon="1.133">
        <ele>131.84</ele>
        <time>2015-12-05T12:03:21Z</time>
      </trkpt>
      <trkpt lat="44.43562" lon="1.13298">
        <ele>132.32</ele>
        <time>2015-12-05T12:03:31Z</time>
      </trkpt>
      <trkpt lat="44.4356" lon="1.13297">
        <ele>131.84</ele>
        <time>2015-12-05T12:03:32Z</time>
      </trkpt>
      <trkpt lat="44.43558" lon="1.13297">
        <ele>131.84</ele>
        <time>2015-12-05T12:03:33Z</time>
      </trkpt>
      <trkpt lat="44.43556" lon="1.13297">
        <ele>131.84</ele>
        <time>2015-12-05T12:03:34Z</time>
      </trkpt>
      <trkpt lat="44.43554" lon="1.13298">
        <ele>131.84</ele>
        <time>2015-12-05T12:03:35Z</time>
      </trkpt>
      <trkpt lat="44.43551" lon="1.133">
        <ele>131.36</ele>
        <time>2015-12-05T12:03:36Z</time>
      </trkpt>
      <trkpt lat="44.43547" lon="1.13302">
        <ele>131.36</ele>
        <time>2015-12-05T12:03:37Z</time>
      </trkpt>
      <trkpt lat="44.43526" lon="1.13309">
        <ele>131.36</ele>
        <time>2015-12-05T12:03:44Z</time>
      </trkpt>
      <trkpt lat="44.43524" lon="1.13308">
        <ele>131.36</ele>
        <time>2015-12-05T12:03:45Z</time>
      </trkpt>
      <trkpt lat="44.43522" lon="1.13307">
        <ele>131.84</ele>
        <time>2015-12-05T12:03:46Z</time>
      </trkpt>
      <trkpt lat="44.4352" lon="1.13306">
        <ele>131.84</ele>
        <time>2015-12-05T12:03:47Z</time>
      </trkpt>
      <trkpt lat="44.43518" lon="1.13305">
        <ele>132.32</ele>
        <time>2015-12-05T12:03:48Z</time>
      </trkpt>
      <trkpt lat="44.43484" lon="1.13288">
        <ele>135.2</ele>
        <time>2015-12-05T12:04:00Z</time>
      </trkpt>
      <trkpt lat="44.43453" lon="1.13266">
        <ele>137.61</ele>
        <time>2015-12-05T12:04:14Z</time>
      </trkpt>
      <trkpt lat="44.43434" lon="1.13239">
        <ele>139.53</ele>
        <time>2015-12-05T12:04:26Z</time>
      </trkpt>
      <trkpt lat="44.43412" lon="1.13201">
        <ele>143.85</ele>
        <time>2015-12-05T12:04:40Z</time>
      </trkpt>
      <trkpt lat="44.43403" lon="1.13182">
        <ele>144.82</ele>
        <time>2015-12-05T12:04:47Z</time>
      </trkpt>
      <trkpt lat="44.43402" lon="1.13179">
        <ele>144.82</ele>
        <time>2015-12-05T12:04:48Z</time>
      </trkpt>
      <trkpt lat="44.43373" lon="1.13132">
        <ele>146.26</ele>
        <time>2015-12-05T12:05:06Z</time>
      </trkpt>
      <trkpt lat="44.43343" lon="1.1312">
        <ele>147.22</ele>
        <time>2015-12-05T12:05:21Z</time>
      </trkpt>
      <trkpt lat="44.43341" lon="1.1312">
        <ele>147.22</ele>
        <time>2015-12-05T12:05:22Z</time>
      </trkpt>
      <trkpt lat="44.4334" lon="1.1312">
        <ele>147.22</ele>
        <time>2015-12-05T12:05:23Z</time>
      </trkpt>
      <trkpt lat="44.43339" lon="1.13119">
        <ele>147.22</ele>
        <time>2015-12-05T12:05:24Z</time>
      </trkpt>
      <trkpt lat="44.43338" lon="1.13117">
        <ele>147.7</ele>
        <time>2015-12-05T12:05:25Z</time>
      </trkpt>
      <trkpt lat="44.43338" lon="1.13115">
        <ele>147.7</ele>
        <time>2015-12-05T12:05:26Z</time>
      </trkpt>
      <trkpt lat="44.43339" lon="1.13114">
        <ele>147.7</ele>
        <time>2015-12-05T12:05:27Z</time>
      </trkpt>
      <trkpt lat="44.4334" lon="1.13113">
        <ele>147.7</ele>
        <time>2015-12-05T12:05:28Z</time>
      </trkpt>
      <trkpt lat="44.43342" lon="1.13111">
        <ele>147.7</ele>
        <time>2015-12-05T12:05:29Z</time>
      </trkpt>
      <trkpt lat="44.43343" lon="1.1311">
        <ele>147.7</ele>
        <time>2015-12-05T12:05:30Z</time>
      </trkpt>
      <trkpt lat="44.43353" lon="1.13102">
        <ele>148.66</ele>
        <time>2015-12-05T12:05:40Z</time>
      </trkpt>
      <trkpt lat="44.43354" lon="1.131">
        <ele>148.66</ele>
        <time>2015-12-05T12:05:41Z</time>
      </trkpt>
      <trkpt lat="44.43364" lon="1.13087">
        <ele>151.06</ele>
        <time>2015-12-05T12:05:55Z</time>
      </trkpt>
      <trkpt lat="44.43368" lon="1.13083">
        <ele>151.54</ele>
        <time>2015-12-05T12:05:59Z</time>
      </trkpt>
      <trkpt lat="44.43382" lon="1.13069">
        <ele>153.95</ele>
        <time>2015-12-05T12:06:14Z</time>
      </trkpt>
      <trkpt lat="44.43394" lon="1.13056">
        <ele>155.39</ele>
        <time>2015-12-05T12:06:26Z</time>
      </trkpt>
      <trkpt lat="44.43405" lon="1.13043">
        <ele>156.35</ele>
        <time>2015-12-05T12:06:38Z</time>
      </trkpt>
      <trkpt lat="44.4341" lon="1.13024">
        <ele>159.72</ele>
        <time>2015-12-05T12:06:53Z</time>
      </trkpt>
      <trkpt lat="44.4341" lon="1.13021">
        <ele>159.72</ele>
        <time>2015-12-05T12:06:55Z</time>
      </trkpt>
      <trkpt lat="44.4341" lon="1.13007">
        <ele>161.16</ele>
        <time>2015-12-05T12:07:04Z</time>
      </trkpt>
      <trkpt lat="44.43408" lon="1.12998">
        <ele>161.16</ele>
        <time>2015-12-05T12:07:08Z</time>
      </trkpt>
      <trkpt lat="44.43408" lon="1.12959">
        <ele>162.6</ele>
        <time>2015-12-05T12:07:23Z</time>
      </trkpt>
      <trkpt lat="44.43414" lon="1.12935">
        <ele>164.04</ele>
        <time>2015-12-05T12:07:33Z</time>
      </trkpt>
      <trkpt lat="44.43419" lon="1.1289">
        <ele>163.56</ele>
        <time>2015-12-05T12:07:47Z</time>
      </trkpt>
      <trkpt lat="44.43419" lon="1.12862">
        <ele>163.08</ele>
        <time>2015-12-05T12:07:53Z</time>
      </trkpt>
      <trkpt lat="44.4342" lon="1.12839">
        <ele>161.64</ele>
        <time>2015-12-05T12:07:57Z</time>
      </trkpt>
      <trkpt lat="44.43418" lon="1.12822">
        <ele>160.68</ele>
        <time>2015-12-05T12:08:00Z</time>
      </trkpt>
      <trkpt lat="44.43406" lon="1.12799">
        <ele>158.75</ele>
        <time>2015-12-05T12:08:04Z</time>
      </trkpt>
      <trkpt lat="44.43394" lon="1.12761">
        <ele>154.91</ele>
        <time>2015-12-05T12:08:13Z</time>
      </trkpt>
      <trkpt lat="44.43394" lon="1.12753">
        <ele>154.43</ele>
        <time>2015-12-05T12:08:24Z</time>
      </trkpt>
      <trkpt lat="44.43398" lon="1.12733">
        <ele>154.43</ele>
        <time>2015-12-05T12:08:40Z</time>
      </trkpt>
      <trkpt lat="44.43403" lon="1.12696">
        <ele>157.31</ele>
        <time>2015-12-05T12:08:51Z</time>
      </trkpt>
      <trkpt lat="44.43409" lon="1.12635">
        <ele>161.16</ele>
        <time>2015-12-05T12:09:06Z</time>
      </trkpt>
      <trkpt lat="44.43411" lon="1.12597">
        <ele>161.64</ele>
        <time>2015-12-05T12:09:15Z</time>
      </trkpt>
      <trkpt lat="44.43411" lon="1.12528">
        <ele>162.6</ele>
        <time>2015-12-05T12:09:28Z</time>
      </trkpt>
      <trkpt lat="44.43411" lon="1.12477">
        <ele>164.52</ele>
        <time>2015-12-05T12:09:40Z</time>
      </trkpt>
      <trkpt lat="44.43413" lon="1.12464">
        <ele>164.52</ele>
        <time>2015-12-05T12:09:43Z</time>
      </trkpt>
      <trkpt lat="44.43417" lon="1.12425">
        <ele>163.56</ele>
        <time>2015-12-05T12:09:49Z</time>
      </trkpt>
      <trkpt lat="44.43422" lon="1.12362">
        <ele>162.12</ele>
        <time>2015-12-05T12:10:02Z</time>
      </trkpt>
      <trkpt lat="44.4342" lon="1.12309">
        <ele>165.48</ele>
        <time>2015-12-05T12:10:13Z</time>
      </trkpt>
      <trkpt lat="44.4342" lon="1.12255">
        <ele>167.41</ele>
        <time>2015-12-05T12:10:26Z</time>
      </trkpt>
      <trkpt lat="44.43427" lon="1.1223">
        <ele>168.37</ele>
        <time>2015-12-05T12:10:34Z</time>
      </trkpt>
      <trkpt lat="44.43431" lon="1.12223">
        <ele>167.41</ele>
        <time>2015-12-05T12:10:50Z</time>
      </trkpt>
      <trkpt lat="44.43431" lon="1.12221">
        <ele>166.93</ele>
        <time>2015-12-05T12:10:54Z</time>
      </trkpt>
      <trkpt lat="44.43435" lon="1.12212">
        <ele>166.93</ele>
        <time>2015-12-05T12:10:58Z</time>
      </trkpt>
      <trkpt lat="44.43462" lon="1.12178">
        <ele>169.33</ele>
        <time>2015-12-05T12:11:13Z</time>
      </trkpt>
      <trkpt lat="44.43483" lon="1.12152">
        <ele>171.25</ele>
        <time>2015-12-05T12:11:23Z</time>
      </trkpt>
      <trkpt lat="44.43506" lon="1.12117">
        <ele>173.66</ele>
        <time>2015-12-05T12:11:35Z</time>
      </trkpt>
      <trkpt lat="44.43524" lon="1.12088">
        <ele>172.69</ele>
        <time>2015-12-05T12:11:46Z</time>
      </trkpt>
      <trkpt lat="44.43541" lon="1.12083">
        <ele>171.73</ele>
        <time>2015-12-05T12:12:00Z</time>
      </trkpt>
      <trkpt lat="44.43563" lon="1.12095">
        <ele>176.54</ele>
        <time>2015-12-05T12:12:16Z</time>
      </trkpt>
      <trkpt lat="44.43571" lon="1.12102">
        <ele>177.98</ele>
        <time>2015-12-05T12:12:22Z</time>
      </trkpt>
      <trkpt lat="44.43593" lon="1.1211">
        <ele>179.9</ele>
        <time>2015-12-05T12:12:38Z</time>
      </trkpt>
      <trkpt lat="44.43609" lon="1.12113">
        <ele>181.83</ele>
        <time>2015-12-05T12:12:53Z</time>
      </trkpt>
      <trkpt lat="44.43612" lon="1.12115">
        <ele>182.31</ele>
        <time>2015-12-05T12:13:00Z</time>
      </trkpt>
      <trkpt lat="44.43623" lon="1.12114">
        <ele>181.83</ele>
        <time>2015-12-05T12:13:12Z</time>
      </trkpt>
      <trkpt lat="44.43627" lon="1.12114">
        <ele>182.31</ele>
        <time>2015-12-05T12:13:15Z</time>
      </trkpt>
      <trkpt lat="44.43632" lon="1.12114">
        <ele>181.83</ele>
        <time>2015-12-05T12:13:19Z</time>
      </trkpt>
      <trkpt lat="44.43644" lon="1.12112">
        <ele>182.31</ele>
        <time>2015-12-05T12:13:29Z</time>
      </trkpt>
      <trkpt lat="44.43649" lon="1.12111">
        <ele>182.31</ele>
        <time>2015-12-05T12:13:34Z</time>
      </trkpt>
      <trkpt lat="44.43655" lon="1.12109">
        <ele>183.27</ele>
        <time>2015-12-05T12:13:39Z</time>
      </trkpt>
      <trkpt lat="44.43673" lon="1.12108">
        <ele>184.71</ele>
        <time>2015-12-05T12:13:54Z</time>
      </trkpt>
      <trkpt lat="44.43676" lon="1.12107">
        <ele>184.71</ele>
        <time>2015-12-05T12:13:56Z</time>
      </trkpt>
      <trkpt lat="44.43693" lon="1.12116">
        <ele>186.15</ele>
        <time>2015-12-05T12:14:11Z</time>
      </trkpt>
      <trkpt lat="44.43707" lon="1.12131">
        <ele>189.52</ele>
        <time>2015-12-05T12:14:26Z</time>
      </trkpt>
      <trkpt lat="44.43723" lon="1.12147">
        <ele>196.25</ele>
        <time>2015-12-05T12:14:42Z</time>
      </trkpt>
      <trkpt lat="44.43725" lon="1.12149">
        <ele>197.21</ele>
        <time>2015-12-05T12:14:54Z</time>
      </trkpt>
      <trkpt lat="44.43741" lon="1.12167">
        <ele>200.57</ele>
        <time>2015-12-05T12:15:09Z</time>
      </trkpt>
      <trkpt lat="44.43756" lon="1.12177">
        <ele>205.38</ele>
        <time>2015-12-05T12:15:24Z</time>
      </trkpt>
      <trkpt lat="44.43765" lon="1.12178">
        <ele>207.3</ele>
        <time>2015-12-05T12:15:34Z</time>
      </trkpt>
      <trkpt lat="44.43783" lon="1.1218">
        <ele>206.82</ele>
        <time>2015-12-05T12:15:49Z</time>
      </trkpt>
      <trkpt lat="44.43788" lon="1.12181">
        <ele>206.82</ele>
        <time>2015-12-05T12:15:59Z</time>
      </trkpt>
      <trkpt lat="44.43797" lon="1.12182">
        <ele>208.26</ele>
        <time>2015-12-05T12:16:13Z</time>
      </trkpt>
      <trkpt lat="44.43798" lon="1.12181">
        <ele>209.22</ele>
        <time>2015-12-05T12:16:43Z</time>
      </trkpt>
      <trkpt lat="44.43796" lon="1.12181">
        <ele>206.82</ele>
        <time>2015-12-05T12:17:18Z</time>
      </trkpt>
      <trkpt lat="44.43802" lon="1.12185">
        <ele>205.86</ele>
        <time>2015-12-05T12:17:31Z</time>
      </trkpt>
      <trkpt lat="44.43811" lon="1.12192">
        <ele>208.74</ele>
        <time>2015-12-05T12:17:47Z</time>
      </trkpt>
      <trkpt lat="44.43823" lon="1.12195">
        <ele>212.59</ele>
        <time>2015-12-05T12:18:03Z</time>
      </trkpt>
      <trkpt lat="44.4383" lon="1.12197">
        <ele>214.03</ele>
        <time>2015-12-05T12:18:19Z</time>
      </trkpt>
      <trkpt lat="44.43841" lon="1.122">
        <ele>215.95</ele>
        <time>2015-12-05T12:18:35Z</time>
      </trkpt>
      <trkpt lat="44.4385" lon="1.12201">
        <ele>217.4</ele>
        <time>2015-12-05T12:18:50Z</time>
      </trkpt>
      <trkpt lat="44.43856" lon="1.12203">
        <ele>218.36</ele>
        <time>2015-12-05T12:19:03Z</time>
      </trkpt>
      <trkpt lat="44.43868" lon="1.12208">
        <ele>220.76</ele>
        <time>2015-12-05T12:19:19Z</time>
      </trkpt>
      <trkpt lat="44.4388" lon="1.12214">
        <ele>224.12</ele>
        <time>2015-12-05T12:19:36Z</time>
      </trkpt>
      <trkpt lat="44.43882" lon="1.12215">
        <ele>223.64</ele>
        <time>2015-12-05T12:19:51Z</time>
      </trkpt>
      <trkpt lat="44.43884" lon="1.12215">
        <ele>224.12</ele>
        <time>2015-12-05T12:19:58Z</time>
      </trkpt>
      <trkpt lat="44.43887" lon="1.12215">
        <ele>224.12</ele>
        <time>2015-12-05T12:20:01Z</time>
      </trkpt>
      <trkpt lat="44.43908" lon="1.12223">
        <ele>227.01</ele>
        <time>2015-12-05T12:20:18Z</time>
      </trkpt>
      <trkpt lat="44.43915" lon="1.12225">
        <ele>228.45</ele>
        <time>2015-12-05T12:20:24Z</time>
      </trkpt>
      <trkpt lat="44.43925" lon="1.12227">
        <ele>229.89</ele>
        <time>2015-12-05T12:20:32Z</time>
      </trkpt>
      <trkpt lat="44.43929" lon="1.12228">
        <ele>230.37</ele>
        <time>2015-12-05T12:20:35Z</time>
      </trkpt>
      <trkpt lat="44.43941" lon="1.12231">
        <ele>231.81</ele>
        <time>2015-12-05T12:20:45Z</time>
      </trkpt>
      <trkpt lat="44.43945" lon="1.12233">
        <ele>233.74</ele>
        <time>2015-12-05T12:20:57Z</time>
      </trkpt>
      <trkpt lat="44.43947" lon="1.12233">
        <ele>233.74</ele>
        <time>2015-12-05T12:21:24Z</time>
      </trkpt>
      <trkpt lat="44.43946" lon="1.12234">
        <ele>232.3</ele>
        <time>2015-12-05T12:21:56Z</time>
      </trkpt>
      <trkpt lat="44.43946" lon="1.12235">
        <ele>232.3</ele>
        <time>2015-12-05T12:22:33Z</time>
      </trkpt>
      <trkpt lat="44.43946" lon="1.12236">
        <ele>232.3</ele>
        <time>2015-12-05T12:23:03Z</time>
      </trkpt>
      <trkpt lat="44.43946" lon="1.12237">
        <ele>234.22</ele>
        <time>2015-12-05T12:23:40Z</time>
      </trkpt>
      <trkpt lat="44.43945" lon="1.12234">
        <ele>234.7</ele>
        <time>2015-12-05T12:24:21Z</time>
      </trkpt>
      <trkpt lat="44.43946" lon="1.12234">
        <ele>234.22</ele>
        <time>2015-12-05T12:25:12Z</time>
      </trkpt>
      <trkpt lat="44.43946" lon="1.12233">
        <ele>233.74</ele>
        <time>2015-12-05T12:26:02Z</time>
      </trkpt>
      <trkpt lat="44.43946" lon="1.12233">
        <ele>234.22</ele>
        <time>2015-12-05T12:26:42Z</time>
      </trkpt>
      <trkpt lat="44.43946" lon="1.12233">
        <ele>233.74</ele>
        <time>2015-12-05T12:27:35Z</time>
      </trkpt>
      <trkpt lat="44.43944" lon="1.12233">
        <ele>234.7</ele>
        <time>2015-12-05T12:28:19Z</time>
      </trkpt>
      <trkpt lat="44.43945" lon="1.12234">
        <ele>233.26</ele>
        <time>2015-12-05T12:28:56Z</time>
      </trkpt>
      <trkpt lat="44.43945" lon="1.12234">
        <ele>234.7</ele>
        <time>2015-12-05T12:29:49Z</time>
      </trkpt>
      <trkpt lat="44.43945" lon="1.12234">
        <ele>236.14</ele>
        <time>2015-12-05T12:30:28Z</time>
      </trkpt>
      <trkpt lat="44.43945" lon="1.12234">
        <ele>236.14</ele>
        <time>2015-12-05T12:31:03Z</time>
      </trkpt>
      <trkpt lat="44.43945" lon="1.12233">
        <ele>235.18</ele>
        <time>2015-12-05T12:31:41Z</time>
      </trkpt>
      <trkpt lat="44.43946" lon="1.12234">
        <ele>232.78</ele>
        <time>2015-12-05T12:32:23Z</time>
      </trkpt>
      <trkpt lat="44.43945" lon="1.12234">
        <ele>232.78</ele>
        <time>2015-12-05T12:33:10Z</time>
      </trkpt>
      <trkpt lat="44.43944" lon="1.12236">
        <ele>233.26</ele>
        <time>2015-12-05T12:33:44Z</time>
      </trkpt>
      <trkpt lat="44.43945" lon="1.12237">
        <ele>233.74</ele>
        <time>2015-12-05T12:34:17Z</time>
      </trkpt>
      <trkpt lat="44.43945" lon="1.12235">
        <ele>233.74</ele>
        <time>2015-12-05T12:34:54Z</time>
      </trkpt>
      <trkpt lat="44.43946" lon="1.12234">
        <ele>233.74</ele>
        <time>2015-12-05T12:35:31Z</time>
      </trkpt>
      <trkpt lat="44.43945" lon="1.12233">
        <ele>233.26</ele>
        <time>2015-12-05T12:36:17Z</time>
      </trkpt>
      <trkpt lat="44.43946" lon="1.12232">
        <ele>233.74</ele>
        <time>2015-12-05T12:37:02Z</time>
      </trkpt>
      <trkpt lat="44.43945" lon="1.12233">
        <ele>233.26</ele>
        <time>2015-12-05T12:37:41Z</time>
      </trkpt>
      <trkpt lat="44.43946" lon="1.12233">
        <ele>232.78</ele>
        <time>2015-12-05T12:38:12Z</time>
      </trkpt>
      <trkpt lat="44.43946" lon="1.12235">
        <ele>232.3</ele>
        <time>2015-12-05T12:38:55Z</time>
      </trkpt>
      <trkpt lat="44.43947" lon="1.12233">
        <ele>231.81</ele>
        <time>2015-12-05T12:39:08Z</time>
      </trkpt>
      <trkpt lat="44.43948" lon="1.12227">
        <ele>232.78</ele>
        <time>2015-12-05T12:39:25Z</time>
      </trkpt>
      <trkpt lat="44.43949" lon="1.12224">
        <ele>232.3</ele>
        <time>2015-12-05T12:39:45Z</time>
      </trkpt>
      <trkpt lat="44.4395" lon="1.12223">
        <ele>231.81</ele>
        <time>2015-12-05T12:40:11Z</time>
      </trkpt>
      <trkpt lat="44.4395" lon="1.12221">
        <ele>231.33</ele>
        <time>2015-12-05T12:40:32Z</time>
      </trkpt>
      <trkpt lat="44.43949" lon="1.12221">
        <ele>231.33</ele>
        <time>2015-12-05T12:41:06Z</time>
      </trkpt>
      <trkpt lat="44.4395" lon="1.1222">
        <ele>231.81</ele>
        <time>2015-12-05T12:41:13Z</time>
      </trkpt>
      <trkpt lat="44.43961" lon="1.12204">
        <ele>232.78</ele>
        <time>2015-12-05T12:41:26Z</time>
      </trkpt>
      <trkpt lat="44.43963" lon="1.12203">
        <ele>233.74</ele>
        <time>2015-12-05T12:41:29Z</time>
      </trkpt>
      <trkpt lat="44.43968" lon="1.12197">
        <ele>234.22</ele>
        <time>2015-12-05T12:41:33Z</time>
      </trkpt>
      <trkpt lat="44.43972" lon="1.12191">
        <ele>234.7</ele>
        <time>2015-12-05T12:41:37Z</time>
      </trkpt>
      <trkpt lat="44.43978" lon="1.12183">
        <ele>235.18</ele>
        <time>2015-12-05T12:41:42Z</time>
      </trkpt>
      <trkpt lat="44.43996" lon="1.12155">
        <ele>236.14</ele>
        <time>2015-12-05T12:41:57Z</time>
      </trkpt>
      <trkpt lat="44.44017" lon="1.12123">
        <ele>238.54</ele>
        <time>2015-12-05T12:42:11Z</time>
      </trkpt>
      <trkpt lat="44.44032" lon="1.121">
        <ele>239.02</ele>
        <time>2015-12-05T12:42:23Z</time>
      </trkpt>
      <trkpt lat="44.4406" lon="1.12058">
        <ele>239.51</ele>
        <time>2015-12-05T12:42:39Z</time>
      </trkpt>
      <trkpt lat="44.44094" lon="1.11998">
        <ele>239.51</ele>
        <time>2015-12-05T12:42:56Z</time>
      </trkpt>
      <trkpt lat="44.44101" lon="1.11933">
        <ele>240.95</ele>
        <time>2015-12-05T12:43:10Z</time>
      </trkpt>
      <trkpt lat="44.44103" lon="1.11869">
        <ele>246.23</ele>
        <time>2015-12-05T12:43:24Z</time>
      </trkpt>
      <trkpt lat="44.44116" lon="1.1182">
        <ele>250.08</ele>
        <time>2015-12-05T12:43:37Z</time>
      </trkpt>
      <trkpt lat="44.44137" lon="1.11788">
        <ele>252.96</ele>
        <time>2015-12-05T12:43:52Z</time>
      </trkpt>
      <trkpt lat="44.4414" lon="1.11786">
        <ele>253.93</ele>
        <time>2015-12-05T12:43:54Z</time>
      </trkpt>
      <trkpt lat="44.44143" lon="1.1179">
        <ele>253.93</ele>
        <time>2015-12-05T12:44:08Z</time>
      </trkpt>
      <trkpt lat="44.44143" lon="1.1179">
        <ele>254.89</ele>
        <time>2015-12-05T12:44:32Z</time>
      </trkpt>
      <trkpt lat="44.44144" lon="1.1179">
        <ele>253.44</ele>
        <time>2015-12-05T12:45:02Z</time>
      </trkpt>
      <trkpt lat="44.44146" lon="1.11793">
        <ele>253.44</ele>
        <time>2015-12-05T12:45:04Z</time>
      </trkpt>
      <trkpt lat="44.44173" lon="1.11826">
        <ele>254.89</ele>
        <time>2015-12-05T12:45:17Z</time>
      </trkpt>
      <trkpt lat="44.44221" lon="1.11873">
        <ele>254.89</ele>
        <time>2015-12-05T12:45:33Z</time>
      </trkpt>
      <trkpt lat="44.44276" lon="1.11928">
        <ele>252.48</ele>
        <time>2015-12-05T12:45:48Z</time>
      </trkpt>
      <trkpt lat="44.44289" lon="1.1196">
        <ele>252</ele>
        <time>2015-12-05T12:45:54Z</time>
      </trkpt>
      <trkpt lat="44.4429" lon="1.11965">
        <ele>252</ele>
        <time>2015-12-05T12:45:55Z</time>
      </trkpt>
      <trkpt lat="44.44319" lon="1.12061">
        <ele>252</ele>
        <time>2015-12-05T12:46:11Z</time>
      </trkpt>
      <trkpt lat="44.44327" lon="1.12077">
        <ele>252</ele>
        <time>2015-12-05T12:46:14Z</time>
      </trkpt>
      <trkpt lat="44.4433" lon="1.12081">
        <ele>251.52</ele>
        <time>2015-12-05T12:46:15Z</time>
      </trkpt>
      <trkpt lat="44.44333" lon="1.12085">
        <ele>251.52</ele>
        <time>2015-12-05T12:46:16Z</time>
      </trkpt>
      <trkpt lat="44.44337" lon="1.12088">
        <ele>251.04</ele>
        <time>2015-12-05T12:46:17Z</time>
      </trkpt>
      <trkpt lat="44.44341" lon="1.12091">
        <ele>251.04</ele>
        <time>2015-12-05T12:46:18Z</time>
      </trkpt>
      <trkpt lat="44.44344" lon="1.12094">
        <ele>251.04</ele>
        <time>2015-12-05T12:46:19Z</time>
      </trkpt>
      <trkpt lat="44.44348" lon="1.12096">
        <ele>251.04</ele>
        <time>2015-12-05T12:46:20Z</time>
      </trkpt>
      <trkpt lat="44.44352" lon="1.12097">
        <ele>250.56</ele>
        <time>2015-12-05T12:46:21Z</time>
      </trkpt>
      <trkpt lat="44.44385" lon="1.12109">
        <ele>251.04</ele>
        <time>2015-12-05T12:46:33Z</time>
      </trkpt>
      <trkpt lat="44.44397" lon="1.12113">
        <ele>250.56</ele>
        <time>2015-12-05T12:46:43Z</time>
      </trkpt>
      <trkpt lat="44.44397" lon="1.12112">
        <ele>250.08</ele>
        <time>2015-12-05T12:47:12Z</time>
      </trkpt>
      <trkpt lat="44.44399" lon="1.12112">
        <ele>250.08</ele>
        <time>2015-12-05T12:47:13Z</time>
      </trkpt>
      <trkpt lat="44.444" lon="1.12112">
        <ele>250.08</ele>
        <time>2015-12-05T12:47:14Z</time>
      </trkpt>
      <trkpt lat="44.44401" lon="1.12112">
        <ele>250.08</ele>
        <time>2015-12-05T12:47:15Z</time>
      </trkpt>
      <trkpt lat="44.44403" lon="1.12112">
        <ele>250.08</ele>
        <time>2015-12-05T12:47:16Z</time>
      </trkpt>
      <trkpt lat="44.44404" lon="1.12113">
        <ele>250.08</ele>
        <time>2015-12-05T12:47:17Z</time>
      </trkpt>
      <trkpt lat="44.44408" lon="1.12113">
        <ele>251.04</ele>
        <time>2015-12-05T12:47:20Z</time>
      </trkpt>
      <trkpt lat="44.4441" lon="1.12114">
        <ele>251.04</ele>
        <time>2015-12-05T12:47:21Z</time>
      </trkpt>
      <trkpt lat="44.44411" lon="1.12115">
        <ele>251.52</ele>
        <time>2015-12-05T12:47:22Z</time>
      </trkpt>
      <trkpt lat="44.44413" lon="1.12116">
        <ele>251.52</ele>
        <time>2015-12-05T12:47:23Z</time>
      </trkpt>
      <trkpt lat="44.44415" lon="1.12117">
        <ele>251.04</ele>
        <time>2015-12-05T12:47:24Z</time>
      </trkpt>
      <trkpt lat="44.44417" lon="1.12118">
        <ele>251.04</ele>
        <time>2015-12-05T12:47:25Z</time>
      </trkpt>
      <trkpt lat="44.44418" lon="1.12119">
        <ele>251.04</ele>
        <time>2015-12-05T12:47:26Z</time>
      </trkpt>
      <trkpt lat="44.44454" lon="1.12117">
        <ele>251.52</ele>
        <time>2015-12-05T12:47:39Z</time>
      </trkpt>
      <trkpt lat="44.44473" lon="1.121">
        <ele>251.52</ele>
        <time>2015-12-05T12:47:45Z</time>
      </trkpt>
      <trkpt lat="44.44476" lon="1.12096">
        <ele>251.52</ele>
        <time>2015-12-05T12:47:46Z</time>
      </trkpt>
      <trkpt lat="44.44478" lon="1.12092">
        <ele>251.52</ele>
        <time>2015-12-05T12:47:47Z</time>
      </trkpt>
      <trkpt lat="44.44516" lon="1.11987">
        <ele>249.12</ele>
        <time>2015-12-05T12:48:04Z</time>
      </trkpt>
      <trkpt lat="44.44524" lon="1.11967">
        <ele>248.64</ele>
        <time>2015-12-05T12:48:07Z</time>
      </trkpt>
      <trkpt lat="44.44527" lon="1.11961">
        <ele>248.64</ele>
        <time>2015-12-05T12:48:08Z</time>
      </trkpt>
      <trkpt lat="44.44531" lon="1.11955">
        <ele>248.64</ele>
        <time>2015-12-05T12:48:09Z</time>
      </trkpt>
      <trkpt lat="44.44535" lon="1.1195">
        <ele>248.64</ele>
        <time>2015-12-05T12:48:10Z</time>
      </trkpt>
      <trkpt lat="44.44539" lon="1.11945">
        <ele>248.16</ele>
        <time>2015-12-05T12:48:11Z</time>
      </trkpt>
      <trkpt lat="44.44544" lon="1.11942">
        <ele>248.16</ele>
        <time>2015-12-05T12:48:12Z</time>
      </trkpt>
      <trkpt lat="44.44549" lon="1.11939">
        <ele>248.64</ele>
        <time>2015-12-05T12:48:13Z</time>
      </trkpt>
      <trkpt lat="44.44554" lon="1.11936">
        <ele>248.64</ele>
        <time>2015-12-05T12:48:14Z</time>
      </trkpt>
      <trkpt lat="44.44593" lon="1.11934">
        <ele>247.2</ele>
        <time>2015-12-05T12:48:26Z</time>
      </trkpt>
      <trkpt lat="44.44649" lon="1.1196">
        <ele>244.79</ele>
        <time>2015-12-05T12:48:41Z</time>
      </trkpt>
      <trkpt lat="44.44734" lon="1.11989">
        <ele>241.91</ele>
        <time>2015-12-05T12:48:57Z</time>
      </trkpt>
      <trkpt lat="44.44796" lon="1.12006">
        <ele>239.99</ele>
        <time>2015-12-05T12:49:08Z</time>
      </trkpt>
      <trkpt lat="44.44829" lon="1.12014">
        <ele>239.51</ele>
        <time>2015-12-05T12:49:14Z</time>
      </trkpt>
      <trkpt lat="44.44841" lon="1.12014">
        <ele>239.02</ele>
        <time>2015-12-05T12:49:16Z</time>
      </trkpt>
      <trkpt lat="44.44847" lon="1.12013">
        <ele>238.54</ele>
        <time>2015-12-05T12:49:17Z</time>
      </trkpt>
      <trkpt lat="44.44853" lon="1.12011">
        <ele>238.06</ele>
        <time>2015-12-05T12:49:18Z</time>
      </trkpt>
      <trkpt lat="44.44858" lon="1.12008">
        <ele>238.06</ele>
        <time>2015-12-05T12:49:19Z</time>
      </trkpt>
      <trkpt lat="44.44864" lon="1.12004">
        <ele>238.06</ele>
        <time>2015-12-05T12:49:20Z</time>
      </trkpt>
      <trkpt lat="44.44869" lon="1.11999">
        <ele>237.58</ele>
        <time>2015-12-05T12:49:21Z</time>
      </trkpt>
      <trkpt lat="44.44949" lon="1.11913">
        <ele>235.18</ele>
        <time>2015-12-05T12:49:37Z</time>
      </trkpt>
      <trkpt lat="44.45028" lon="1.11829">
        <ele>231.81</ele>
        <time>2015-12-05T12:49:53Z</time>
      </trkpt>
      <trkpt lat="44.45039" lon="1.1182">
        <ele>230.85</ele>
        <time>2015-12-05T12:49:55Z</time>
      </trkpt>
      <trkpt lat="44.4507" lon="1.11806">
        <ele>230.37</ele>
        <time>2015-12-05T12:50:00Z</time>
      </trkpt>
      <trkpt lat="44.45076" lon="1.11805">
        <ele>230.37</ele>
        <time>2015-12-05T12:50:01Z</time>
      </trkpt>
      <trkpt lat="44.45083" lon="1.11805">
        <ele>230.37</ele>
        <time>2015-12-05T12:50:02Z</time>
      </trkpt>
      <trkpt lat="44.45089" lon="1.11806">
        <ele>230.37</ele>
        <time>2015-12-05T12:50:03Z</time>
      </trkpt>
      <trkpt lat="44.45095" lon="1.11807">
        <ele>230.37</ele>
        <time>2015-12-05T12:50:04Z</time>
      </trkpt>
      <trkpt lat="44.45174" lon="1.11832">
        <ele>229.89</ele>
        <time>2015-12-05T12:50:19Z</time>
      </trkpt>
      <trkpt lat="44.4524" lon="1.11851">
        <ele>227.01</ele>
        <time>2015-12-05T12:50:30Z</time>
      </trkpt>
      <trkpt lat="44.45279" lon="1.11871">
        <ele>224.61</ele>
        <time>2015-12-05T12:50:36Z</time>
      </trkpt>
      <trkpt lat="44.45285" lon="1.11876">
        <ele>224.12</ele>
        <time>2015-12-05T12:50:37Z</time>
      </trkpt>
      <trkpt lat="44.45356" lon="1.11946">
        <ele>219.32</ele>
        <time>2015-12-05T12:50:48Z</time>
      </trkpt>
      <trkpt lat="44.45363" lon="1.11948">
        <ele>218.84</ele>
        <time>2015-12-05T12:50:49Z</time>
      </trkpt>
      <trkpt lat="44.45371" lon="1.11947">
        <ele>218.36</ele>
        <time>2015-12-05T12:50:50Z</time>
      </trkpt>
      <trkpt lat="44.45379" lon="1.11943">
        <ele>217.88</ele>
        <time>2015-12-05T12:50:51Z</time>
      </trkpt>
      <trkpt lat="44.45386" lon="1.11938">
        <ele>217.4</ele>
        <time>2015-12-05T12:50:52Z</time>
      </trkpt>
      <trkpt lat="44.45392" lon="1.11931">
        <ele>216.91</ele>
        <time>2015-12-05T12:50:53Z</time>
      </trkpt>
      <trkpt lat="44.45399" lon="1.11923">
        <ele>216.43</ele>
        <time>2015-12-05T12:50:54Z</time>
      </trkpt>
      <trkpt lat="44.45503" lon="1.11807">
        <ele>209.22</ele>
        <time>2015-12-05T12:51:10Z</time>
      </trkpt>
      <trkpt lat="44.45601" lon="1.11769">
        <ele>202.49</ele>
        <time>2015-12-05T12:51:22Z</time>
      </trkpt>
      <trkpt lat="44.45711" lon="1.11738">
        <ele>194.8</ele>
        <time>2015-12-05T12:51:35Z</time>
      </trkpt>
      <trkpt lat="44.45778" lon="1.1173">
        <ele>190.48</ele>
        <time>2015-12-05T12:51:43Z</time>
      </trkpt>
      <trkpt lat="44.45786" lon="1.11733">
        <ele>190</ele>
        <time>2015-12-05T12:51:44Z</time>
      </trkpt>
      <trkpt lat="44.45888" lon="1.1178">
        <ele>183.75</ele>
        <time>2015-12-05T12:51:56Z</time>
      </trkpt>
      <trkpt lat="44.45896" lon="1.11787">
        <ele>182.79</ele>
        <time>2015-12-05T12:51:57Z</time>
      </trkpt>
      <trkpt lat="44.45904" lon="1.11794">
        <ele>182.31</ele>
        <time>2015-12-05T12:51:58Z</time>
      </trkpt>
      <trkpt lat="44.4594" lon="1.11835">
        <ele>178.94</ele>
        <time>2015-12-05T12:52:03Z</time>
      </trkpt>
      <trkpt lat="44.45948" lon="1.11841">
        <ele>177.98</ele>
        <time>2015-12-05T12:52:04Z</time>
      </trkpt>
      <trkpt lat="44.45957" lon="1.11845">
        <ele>177.5</ele>
        <time>2015-12-05T12:52:05Z</time>
      </trkpt>
      <trkpt lat="44.46021" lon="1.11863">
        <ele>172.69</ele>
        <time>2015-12-05T12:52:12Z</time>
      </trkpt>
      <trkpt lat="44.46039" lon="1.11872">
        <ele>171.73</ele>
        <time>2015-12-05T12:52:14Z</time>
      </trkpt>
      <trkpt lat="44.46048" lon="1.11874">
        <ele>171.25</ele>
        <time>2015-12-05T12:52:15Z</time>
      </trkpt>
      <trkpt lat="44.46057" lon="1.11874">
        <ele>170.29</ele>
        <time>2015-12-05T12:52:16Z</time>
      </trkpt>
      <trkpt lat="44.46177" lon="1.11878">
        <ele>163.08</ele>
        <time>2015-12-05T12:52:29Z</time>
      </trkpt>
      <trkpt lat="44.46275" lon="1.11912">
        <ele>157.31</ele>
        <time>2015-12-05T12:52:40Z</time>
      </trkpt>
      <trkpt lat="44.46284" lon="1.11913">
        <ele>156.83</ele>
        <time>2015-12-05T12:52:41Z</time>
      </trkpt>
      <trkpt lat="44.46294" lon="1.11913">
        <ele>156.35</ele>
        <time>2015-12-05T12:52:42Z</time>
      </trkpt>
      <trkpt lat="44.46302" lon="1.1191">
        <ele>155.87</ele>
        <time>2015-12-05T12:52:43Z</time>
      </trkpt>
      <trkpt lat="44.46311" lon="1.11906">
        <ele>155.39</ele>
        <time>2015-12-05T12:52:44Z</time>
      </trkpt>
      <trkpt lat="44.46382" lon="1.11893">
        <ele>151.54</ele>
        <time>2015-12-05T12:52:52Z</time>
      </trkpt>
      <trkpt lat="44.46391" lon="1.11896">
        <ele>151.06</ele>
        <time>2015-12-05T12:52:53Z</time>
      </trkpt>
      <trkpt lat="44.464" lon="1.119">
        <ele>150.1</ele>
        <time>2015-12-05T12:52:54Z</time>
      </trkpt>
      <trkpt lat="44.46408" lon="1.11906">
        <ele>149.62</ele>
        <time>2015-12-05T12:52:55Z</time>
      </trkpt>
      <trkpt lat="44.46416" lon="1.11913">
        <ele>149.14</ele>
        <time>2015-12-05T12:52:56Z</time>
      </trkpt>
      <trkpt lat="44.46424" lon="1.11919">
        <ele>148.66</ele>
        <time>2015-12-05T12:52:57Z</time>
      </trkpt>
      <trkpt lat="44.46432" lon="1.11924">
        <ele>148.18</ele>
        <time>2015-12-05T12:52:58Z</time>
      </trkpt>
      <trkpt lat="44.46474" lon="1.11949">
        <ele>145.78</ele>
        <time>2015-12-05T12:53:03Z</time>
      </trkpt>
      <trkpt lat="44.46481" lon="1.11956">
        <ele>145.3</ele>
        <time>2015-12-05T12:53:04Z</time>
      </trkpt>
      <trkpt lat="44.46487" lon="1.11965">
        <ele>144.34</ele>
        <time>2015-12-05T12:53:05Z</time>
      </trkpt>
      <trkpt lat="44.46492" lon="1.11975">
        <ele>143.85</ele>
        <time>2015-12-05T12:53:06Z</time>
      </trkpt>
      <trkpt lat="44.46497" lon="1.11986">
        <ele>143.37</ele>
        <time>2015-12-05T12:53:07Z</time>
      </trkpt>
      <trkpt lat="44.465" lon="1.11998">
        <ele>142.89</ele>
        <time>2015-12-05T12:53:08Z</time>
      </trkpt>
      <trkpt lat="44.46503" lon="1.1201">
        <ele>142.41</ele>
        <time>2015-12-05T12:53:09Z</time>
      </trkpt>
      <trkpt lat="44.46566" lon="1.12143">
        <ele>134.72</ele>
        <time>2015-12-05T12:53:22Z</time>
      </trkpt>
      <trkpt lat="44.46592" lon="1.1218">
        <ele>131.84</ele>
        <time>2015-12-05T12:53:26Z</time>
      </trkpt>
      <trkpt lat="44.46597" lon="1.12191">
        <ele>131.36</ele>
        <time>2015-12-05T12:53:27Z</time>
      </trkpt>
      <trkpt lat="44.46602" lon="1.12202">
        <ele>130.88</ele>
        <time>2015-12-05T12:53:28Z</time>
      </trkpt>
      <trkpt lat="44.46608" lon="1.12213">
        <ele>130.4</ele>
        <time>2015-12-05T12:53:29Z</time>
      </trkpt>
      <trkpt lat="44.46614" lon="1.12222">
        <ele>129.43</ele>
        <time>2015-12-05T12:53:30Z</time>
      </trkpt>
      <trkpt lat="44.46621" lon="1.12231">
        <ele>128.95</ele>
        <time>2015-12-05T12:53:31Z</time>
      </trkpt>
      <trkpt lat="44.46628" lon="1.12239">
        <ele>127.99</ele>
        <time>2015-12-05T12:53:32Z</time>
      </trkpt>
      <trkpt lat="44.46707" lon="1.12322">
        <ele>120.3</ele>
        <time>2015-12-05T12:53:43Z</time>
      </trkpt>
      <trkpt lat="44.46713" lon="1.1233">
        <ele>119.34</ele>
        <time>2015-12-05T12:53:44Z</time>
      </trkpt>
      <trkpt lat="44.46718" lon="1.12341">
        <ele>119.34</ele>
        <time>2015-12-05T12:53:45Z</time>
      </trkpt>
      <trkpt lat="44.46722" lon="1.12352">
        <ele>119.34</ele>
        <time>2015-12-05T12:53:46Z</time>
      </trkpt>
      <trkpt lat="44.46723" lon="1.12365">
        <ele>118.86</ele>
        <time>2015-12-05T12:53:47Z</time>
      </trkpt>
      <trkpt lat="44.46724" lon="1.12377">
        <ele>118.38</ele>
        <time>2015-12-05T12:53:48Z</time>
      </trkpt>
      <trkpt lat="44.46732" lon="1.12451">
        <ele>115.5</ele>
        <time>2015-12-05T12:53:54Z</time>
      </trkpt>
      <trkpt lat="44.46794" lon="1.12614">
        <ele>107.32</ele>
        <time>2015-12-05T12:54:09Z</time>
      </trkpt>
      <trkpt lat="44.46841" lon="1.12711">
        <ele>103.48</ele>
        <time>2015-12-05T12:54:19Z</time>
      </trkpt>
      <trkpt lat="44.46847" lon="1.12718">
        <ele>103.48</ele>
        <time>2015-12-05T12:54:20Z</time>
      </trkpt>
      <trkpt lat="44.46854" lon="1.12725">
        <ele>103</ele>
        <time>2015-12-05T12:54:21Z</time>
      </trkpt>
      <trkpt lat="44.46861" lon="1.1273">
        <ele>102.52</ele>
        <time>2015-12-05T12:54:22Z</time>
      </trkpt>
      <trkpt lat="44.46868" lon="1.12731">
        <ele>103</ele>
        <time>2015-12-05T12:54:23Z</time>
      </trkpt>
      <trkpt lat="44.46876" lon="1.12731">
        <ele>102.52</ele>
        <time>2015-12-05T12:54:24Z</time>
      </trkpt>
      <trkpt lat="44.46951" lon="1.12719">
        <ele>102.52</ele>
        <time>2015-12-05T12:54:36Z</time>
      </trkpt>
      <trkpt lat="44.46958" lon="1.12718">
        <ele>102.52</ele>
        <time>2015-12-05T12:54:37Z</time>
      </trkpt>
      <trkpt lat="44.46999" lon="1.12721">
        <ele>103</ele>
        <time>2015-12-05T12:54:44Z</time>
      </trkpt>
      <trkpt lat="44.47004" lon="1.12724">
        <ele>103</ele>
        <time>2015-12-05T12:54:45Z</time>
      </trkpt>
      <trkpt lat="44.4701" lon="1.12728">
        <ele>103.48</ele>
        <time>2015-12-05T12:54:46Z</time>
      </trkpt>
      <trkpt lat="44.47015" lon="1.12732">
        <ele>103.48</ele>
        <time>2015-12-05T12:54:47Z</time>
      </trkpt>
      <trkpt lat="44.4702" lon="1.12737">
        <ele>103.48</ele>
        <time>2015-12-05T12:54:48Z</time>
      </trkpt>
      <trkpt lat="44.4703" lon="1.12746">
        <ele>103.48</ele>
        <time>2015-12-05T12:54:50Z</time>
      </trkpt>
      <trkpt lat="44.47051" lon="1.12758">
        <ele>103</ele>
        <time>2015-12-05T12:54:54Z</time>
      </trkpt>
      <trkpt lat="44.47057" lon="1.12759">
        <ele>103</ele>
        <time>2015-12-05T12:54:55Z</time>
      </trkpt>
      <trkpt lat="44.47062" lon="1.1276">
        <ele>103</ele>
        <time>2015-12-05T12:54:56Z</time>
      </trkpt>
      <trkpt lat="44.47131" lon="1.1278">
        <ele>102.04</ele>
        <time>2015-12-05T12:55:08Z</time>
      </trkpt>
      <trkpt lat="44.4719" lon="1.12814">
        <ele>100.11</ele>
        <time>2015-12-05T12:55:19Z</time>
      </trkpt>
      <trkpt lat="44.47195" lon="1.12818">
        <ele>100.11</ele>
        <time>2015-12-05T12:55:20Z</time>
      </trkpt>
      <trkpt lat="44.472" lon="1.12823">
        <ele>100.11</ele>
        <time>2015-12-05T12:55:21Z</time>
      </trkpt>
      <trkpt lat="44.47204" lon="1.12828">
        <ele>99.63</ele>
        <time>2015-12-05T12:55:22Z</time>
      </trkpt>
      <trkpt lat="44.47208" lon="1.12834">
        <ele>99.15</ele>
        <time>2015-12-05T12:55:23Z</time>
      </trkpt>
      <trkpt lat="44.47215" lon="1.12846">
        <ele>98.67</ele>
        <time>2015-12-05T12:55:25Z</time>
      </trkpt>
      <trkpt lat="44.47235" lon="1.12894">
        <ele>97.71</ele>
        <time>2015-12-05T12:55:32Z</time>
      </trkpt>
      <trkpt lat="44.47243" lon="1.12922">
        <ele>96.75</ele>
        <time>2015-12-05T12:55:36Z</time>
      </trkpt>
      <trkpt lat="44.47249" lon="1.12935">
        <ele>96.27</ele>
        <time>2015-12-05T12:55:38Z</time>
      </trkpt>
      <trkpt lat="44.47253" lon="1.1294">
        <ele>96.27</ele>
        <time>2015-12-05T12:55:39Z</time>
      </trkpt>
      <trkpt lat="44.47268" lon="1.1296">
        <ele>95.31</ele>
        <time>2015-12-05T12:55:43Z</time>
      </trkpt>
      <trkpt lat="44.47271" lon="1.12965">
        <ele>94.83</ele>
        <time>2015-12-05T12:55:44Z</time>
      </trkpt>
      <trkpt lat="44.47275" lon="1.12971">
        <ele>94.83</ele>
        <time>2015-12-05T12:55:45Z</time>
      </trkpt>
      <trkpt lat="44.47279" lon="1.12976">
        <ele>94.35</ele>
        <time>2015-12-05T12:55:46Z</time>
      </trkpt>
      <trkpt lat="44.47284" lon="1.12981">
        <ele>94.35</ele>
        <time>2015-12-05T12:55:47Z</time>
      </trkpt>
      <trkpt lat="44.47288" lon="1.12987">
        <ele>94.35</ele>
        <time>2015-12-05T12:55:48Z</time>
      </trkpt>
      <trkpt lat="44.47352" lon="1.13062">
        <ele>92.42</ele>
        <time>2015-12-05T12:56:02Z</time>
      </trkpt>
      <trkpt lat="44.47427" lon="1.13148">
        <ele>91.46</ele>
        <time>2015-12-05T12:56:19Z</time>
      </trkpt>
      <trkpt lat="44.47464" lon="1.1318">
        <ele>91.46</ele>
        <time>2015-12-05T12:56:27Z</time>
      </trkpt>
      <trkpt lat="44.47469" lon="1.13184">
        <ele>91.46</ele>
        <time>2015-12-05T12:56:28Z</time>
      </trkpt>
      <trkpt lat="44.47473" lon="1.13189">
        <ele>91.46</ele>
        <time>2015-12-05T12:56:29Z</time>
      </trkpt>
      <trkpt lat="44.47482" lon="1.132">
        <ele>90.98</ele>
        <time>2015-12-05T12:56:31Z</time>
      </trkpt>
      <trkpt lat="44.47486" lon="1.13207">
        <ele>90.98</ele>
        <time>2015-12-05T12:56:32Z</time>
      </trkpt>
      <trkpt lat="44.4749" lon="1.13213">
        <ele>90.98</ele>
        <time>2015-12-05T12:56:33Z</time>
      </trkpt>
      <trkpt lat="44.47493" lon="1.13221">
        <ele>90.5</ele>
        <time>2015-12-05T12:56:34Z</time>
      </trkpt>
      <trkpt lat="44.47495" lon="1.13229">
        <ele>90.5</ele>
        <time>2015-12-05T12:56:35Z</time>
      </trkpt>
      <trkpt lat="44.47497" lon="1.13238">
        <ele>90.02</ele>
        <time>2015-12-05T12:56:36Z</time>
      </trkpt>
      <trkpt lat="44.47497" lon="1.13246">
        <ele>90.02</ele>
        <time>2015-12-05T12:56:37Z</time>
      </trkpt>
      <trkpt lat="44.47497" lon="1.13255">
        <ele>89.54</ele>
        <time>2015-12-05T12:56:38Z</time>
      </trkpt>
      <trkpt lat="44.47496" lon="1.13264">
        <ele>89.54</ele>
        <time>2015-12-05T12:56:39Z</time>
      </trkpt>
      <trkpt lat="44.47495" lon="1.13272">
        <ele>89.54</ele>
        <time>2015-12-05T12:56:40Z</time>
      </trkpt>
      <trkpt lat="44.47489" lon="1.13309">
        <ele>89.54</ele>
        <time>2015-12-05T12:56:45Z</time>
      </trkpt>
      <trkpt lat="44.47489" lon="1.13317">
        <ele>89.54</ele>
        <time>2015-12-05T12:56:46Z</time>
      </trkpt>
      <trkpt lat="44.47489" lon="1.13325">
        <ele>89.06</ele>
        <time>2015-12-05T12:56:47Z</time>
      </trkpt>
      <trkpt lat="44.4749" lon="1.13333">
        <ele>89.06</ele>
        <time>2015-12-05T12:56:48Z</time>
      </trkpt>
      <trkpt lat="44.47492" lon="1.13341">
        <ele>89.06</ele>
        <time>2015-12-05T12:56:49Z</time>
      </trkpt>
      <trkpt lat="44.47494" lon="1.13348">
        <ele>88.58</ele>
        <time>2015-12-05T12:56:50Z</time>
      </trkpt>
      <trkpt lat="44.47507" lon="1.13429">
        <ele>87.62</ele>
        <time>2015-12-05T12:57:00Z</time>
      </trkpt>
      <trkpt lat="44.47509" lon="1.13437">
        <ele>87.62</ele>
        <time>2015-12-05T12:57:01Z</time>
      </trkpt>
      <trkpt lat="44.47516" lon="1.13459">
        <ele>87.14</ele>
        <time>2015-12-05T12:57:04Z</time>
      </trkpt>
      <trkpt lat="44.47519" lon="1.13466">
        <ele>86.66</ele>
        <time>2015-12-05T12:57:05Z</time>
      </trkpt>
      <trkpt lat="44.47523" lon="1.13472">
        <ele>86.66</ele>
        <time>2015-12-05T12:57:06Z</time>
      </trkpt>
      <trkpt lat="44.47527" lon="1.13478">
        <ele>86.18</ele>
        <time>2015-12-05T12:57:07Z</time>
      </trkpt>
      <trkpt lat="44.47531" lon="1.13484">
        <ele>85.69</ele>
        <time>2015-12-05T12:57:08Z</time>
      </trkpt>
      <trkpt lat="44.47535" lon="1.13489">
        <ele>85.21</ele>
        <time>2015-12-05T12:57:09Z</time>
      </trkpt>
      <trkpt lat="44.47601" lon="1.13561">
        <ele>83.77</ele>
        <time>2015-12-05T12:57:23Z</time>
      </trkpt>
      <trkpt lat="44.47605" lon="1.13568">
        <ele>83.77</ele>
        <time>2015-12-05T12:57:24Z</time>
      </trkpt>
      <trkpt lat="44.47608" lon="1.13575">
        <ele>83.77</ele>
        <time>2015-12-05T12:57:25Z</time>
      </trkpt>
      <trkpt lat="44.47668" lon="1.13674">
        <ele>81.85</ele>
        <time>2015-12-05T12:57:41Z</time>
      </trkpt>
      <trkpt lat="44.47696" lon="1.13704">
        <ele>80.41</ele>
        <time>2015-12-05T12:57:52Z</time>
      </trkpt>
      <trkpt lat="44.47695" lon="1.13705">
        <ele>80.89</ele>
        <time>2015-12-05T12:58:16Z</time>
      </trkpt>
      <trkpt lat="44.47703" lon="1.13705">
        <ele>80.89</ele>
        <time>2015-12-05T12:58:35Z</time>
      </trkpt>
      <trkpt lat="44.47707" lon="1.13702">
        <ele>80.89</ele>
        <time>2015-12-05T12:58:36Z</time>
      </trkpt>
      <trkpt lat="44.47747" lon="1.13662">
        <ele>81.37</ele>
        <time>2015-12-05T12:58:49Z</time>
      </trkpt>
      <trkpt lat="44.47802" lon="1.13604">
        <ele>79.93</ele>
        <time>2015-12-05T12:59:07Z</time>
      </trkpt>
      <trkpt lat="44.47843" lon="1.13562">
        <ele>78.48</ele>
        <time>2015-12-05T12:59:21Z</time>
      </trkpt>
      <trkpt lat="44.47892" lon="1.1352">
        <ele>81.85</ele>
        <time>2015-12-05T12:59:35Z</time>
      </trkpt>
      <trkpt lat="44.47918" lon="1.13501">
        <ele>83.77</ele>
        <time>2015-12-05T12:59:41Z</time>
      </trkpt>
      <trkpt lat="44.47922" lon="1.13498">
        <ele>83.77</ele>
        <time>2015-12-05T12:59:42Z</time>
      </trkpt>
      <trkpt lat="44.48002" lon="1.13443">
        <ele>84.73</ele>
        <time>2015-12-05T12:59:59Z</time>
      </trkpt>
      <trkpt lat="44.48011" lon="1.13437">
        <ele>84.73</ele>
        <time>2015-12-05T13:00:01Z</time>
      </trkpt>
      <trkpt lat="44.48085" lon="1.1339">
        <ele>84.25</ele>
        <time>2015-12-05T13:00:16Z</time>
      </trkpt>
      <trkpt lat="44.48163" lon="1.13342">
        <ele>83.29</ele>
        <time>2015-12-05T13:00:32Z</time>
      </trkpt>
      <trkpt lat="44.48224" lon="1.13307">
        <ele>82.81</ele>
        <time>2015-12-05T13:00:46Z</time>
      </trkpt>
      <trkpt lat="44.48268" lon="1.13283">
        <ele>81.85</ele>
        <time>2015-12-05T13:00:56Z</time>
      </trkpt>
      <trkpt lat="44.48334" lon="1.13258">
        <ele>81.85</ele>
        <time>2015-12-05T13:01:11Z</time>
      </trkpt>
      <trkpt lat="44.48422" lon="1.13234">
        <ele>83.77</ele>
        <time>2015-12-05T13:01:28Z</time>
      </trkpt>
      <trkpt lat="44.48501" lon="1.13208">
        <ele>83.29</ele>
        <time>2015-12-05T13:01:44Z</time>
      </trkpt>
      <trkpt lat="44.48553" lon="1.13188">
        <ele>83.29</ele>
        <time>2015-12-05T13:01:55Z</time>
      </trkpt>
      <trkpt lat="44.48643" lon="1.13165">
        <ele>83.29</ele>
        <time>2015-12-05T13:02:13Z</time>
      </trkpt>
      <trkpt lat="44.48724" lon="1.13137">
        <ele>83.29</ele>
        <time>2015-12-05T13:02:30Z</time>
      </trkpt>
      <trkpt lat="44.48765" lon="1.13119">
        <ele>83.77</ele>
        <time>2015-12-05T13:02:43Z</time>
      </trkpt>
      <trkpt lat="44.488" lon="1.13108">
        <ele>84.73</ele>
        <time>2015-12-05T13:02:54Z</time>
      </trkpt>
      <trkpt lat="44.48808" lon="1.13105">
        <ele>84.73</ele>
        <time>2015-12-05T13:02:56Z</time>
      </trkpt>
      <trkpt lat="44.48831" lon="1.13096">
        <ele>84.73</ele>
        <time>2015-12-05T13:03:02Z</time>
      </trkpt>
      <trkpt lat="44.48834" lon="1.13091">
        <ele>84.73</ele>
        <time>2015-12-05T13:03:03Z</time>
      </trkpt>
      <trkpt lat="44.48837" lon="1.13086">
        <ele>85.21</ele>
        <time>2015-12-05T13:03:04Z</time>
      </trkpt>
      <trkpt lat="44.48838" lon="1.1308">
        <ele>85.21</ele>
        <time>2015-12-05T13:03:05Z</time>
      </trkpt>
      <trkpt lat="44.48839" lon="1.13075">
        <ele>85.69</ele>
        <time>2015-12-05T13:03:06Z</time>
      </trkpt>
      <trkpt lat="44.48839" lon="1.13069">
        <ele>85.69</ele>
        <time>2015-12-05T13:03:07Z</time>
      </trkpt>
      <trkpt lat="44.48846" lon="1.12997">
        <ele>88.58</ele>
        <time>2015-12-05T13:03:22Z</time>
      </trkpt>
      <trkpt lat="44.48853" lon="1.12927">
        <ele>91.94</ele>
        <time>2015-12-05T13:03:37Z</time>
      </trkpt>
      <trkpt lat="44.48866" lon="1.12864">
        <ele>94.35</ele>
        <time>2015-12-05T13:03:50Z</time>
      </trkpt>
      <trkpt lat="44.48869" lon="1.12853">
        <ele>94.35</ele>
        <time>2015-12-05T13:03:52Z</time>
      </trkpt>
      <trkpt lat="44.4887" lon="1.12847">
        <ele>94.35</ele>
        <time>2015-12-05T13:03:53Z</time>
      </trkpt>
      <trkpt lat="44.48877" lon="1.12821">
        <ele>93.87</ele>
        <time>2015-12-05T13:03:58Z</time>
      </trkpt>
      <trkpt lat="44.48879" lon="1.12815">
        <ele>93.87</ele>
        <time>2015-12-05T13:03:59Z</time>
      </trkpt>
      <trkpt lat="44.4888" lon="1.1281">
        <ele>93.87</ele>
        <time>2015-12-05T13:04:00Z</time>
      </trkpt>
      <trkpt lat="44.48888" lon="1.12726">
        <ele>94.83</ele>
        <time>2015-12-05T13:04:15Z</time>
      </trkpt>
      <trkpt lat="44.48887" lon="1.12714">
        <ele>95.31</ele>
        <time>2015-12-05T13:04:17Z</time>
      </trkpt>
      <trkpt lat="44.48887" lon="1.12691">
        <ele>95.79</ele>
        <time>2015-12-05T13:04:21Z</time>
      </trkpt>
      <trkpt lat="44.48887" lon="1.12685">
        <ele>95.79</ele>
        <time>2015-12-05T13:04:22Z</time>
      </trkpt>
      <trkpt lat="44.48894" lon="1.12608">
        <ele>98.67</ele>
        <time>2015-12-05T13:04:37Z</time>
      </trkpt>
      <trkpt lat="44.48901" lon="1.12567">
        <ele>100.6</ele>
        <time>2015-12-05T13:04:48Z</time>
      </trkpt>
      <trkpt lat="44.48913" lon="1.12508">
        <ele>103.48</ele>
        <time>2015-12-05T13:05:00Z</time>
      </trkpt>
      <trkpt lat="44.48934" lon="1.12423">
        <ele>104.92</ele>
        <time>2015-12-05T13:05:16Z</time>
      </trkpt>
      <trkpt lat="44.48954" lon="1.12343">
        <ele>105.88</ele>
        <time>2015-12-05T13:05:30Z</time>
      </trkpt>
      <trkpt lat="44.48971" lon="1.12221">
        <ele>104.92</ele>
        <time>2015-12-05T13:05:48Z</time>
      </trkpt>
      <trkpt lat="44.48972" lon="1.12147">
        <ele>105.4</ele>
        <time>2015-12-05T13:05:58Z</time>
      </trkpt>
      <trkpt lat="44.48977" lon="1.12051">
        <ele>105.88</ele>
        <time>2015-12-05T13:06:12Z</time>
      </trkpt>
      <trkpt lat="44.48983" lon="1.12009">
        <ele>105.88</ele>
        <time>2015-12-05T13:06:21Z</time>
      </trkpt>
      <trkpt lat="44.48996" lon="1.12008">
        <ele>104.92</ele>
        <time>2015-12-05T13:06:24Z</time>
      </trkpt>
      <trkpt lat="44.49017" lon="1.12016">
        <ele>103.48</ele>
        <time>2015-12-05T13:06:28Z</time>
      </trkpt>
      <trkpt lat="44.49032" lon="1.12058">
        <ele>102.04</ele>
        <time>2015-12-05T13:06:36Z</time>
      </trkpt>
      <trkpt lat="44.4903" lon="1.12071">
        <ele>102.52</ele>
        <time>2015-12-05T13:06:46Z</time>
      </trkpt>
      <trkpt lat="44.49033" lon="1.12074">
        <ele>103.96</ele>
        <time>2015-12-05T13:07:10Z</time>
      </trkpt>
      <trkpt lat="44.49033" lon="1.12073">
        <ele>105.88</ele>
        <time>2015-12-05T13:07:39Z</time>
      </trkpt>
      <trkpt lat="44.49031" lon="1.12071">
        <ele>107.32</ele>
        <time>2015-12-05T13:08:19Z</time>
      </trkpt>
      <trkpt lat="44.49032" lon="1.12072">
        <ele>106.36</ele>
        <time>2015-12-05T13:08:55Z</time>
      </trkpt>
      <trkpt lat="44.49031" lon="1.12074">
        <ele>103.96</ele>
        <time>2015-12-05T13:09:25Z</time>
      </trkpt>
      <trkpt lat="44.49031" lon="1.12074">
        <ele>103</ele>
        <time>2015-12-05T13:10:05Z</time>
      </trkpt>
      <trkpt lat="44.49029" lon="1.12074">
        <ele>103</ele>
        <time>2015-12-05T13:10:40Z</time>
      </trkpt>
      <trkpt lat="44.4903" lon="1.12072">
        <ele>103.48</ele>
        <time>2015-12-05T13:11:10Z</time>
      </trkpt>
      <trkpt lat="44.49031" lon="1.12073">
        <ele>101.56</ele>
        <time>2015-12-05T13:11:51Z</time>
      </trkpt>
    </trkseg>
  </trk>
</gpx>